<?xml version="1.0" encoding="UTF-8" standalone="no" ?>
<gpx xmlns="http://www.topografix.com/GPX/1/1" xmlns:xsi="http://www.w3.org/2001/XMLSchema-instance" xsi:schemaLocation="http://www.topografix.com/GPX/1/1 http://www.topografix.com/GPX/1/1/gpx.xsd" version="1.1" creator="VisuGPX - https://www.visugpx.com">
  <metadata>
    <name>Jura 2016 / Jour 3</name>
    <desc><![CDATA[Gorges de Baulmes, Aiguillons de Baulmes, Col et crète du Suchet]]></desc>
  </metadata>
  <trk>
    <name><![CDATA[Tracé 16 juil. 2016 09:39:21]]></name>
    <trkseg>
      <trkpt lat="46.78913" lon="6.52539">
        <ele>626</ele>
        <time>2016-07-16T07:39:21Z</time>
      </trkpt>
      <trkpt lat="46.78921" lon="6.52544">
        <ele>628</ele>
        <time>2016-07-16T07:47:22Z</time>
      </trkpt>
      <trkpt lat="46.7893" lon="6.52546">
        <ele>628</ele>
        <time>2016-07-16T07:47:27Z</time>
      </trkpt>
      <trkpt lat="46.78947" lon="6.52543">
        <ele>628</ele>
        <time>2016-07-16T07:47:32Z</time>
      </trkpt>
      <trkpt lat="46.78953" lon="6.52535">
        <ele>628</ele>
        <time>2016-07-16T07:47:36Z</time>
      </trkpt>
      <trkpt lat="46.78959" lon="6.52528">
        <ele>629</ele>
        <time>2016-07-16T07:47:41Z</time>
      </trkpt>
      <trkpt lat="46.78963" lon="6.52514">
        <ele>629</ele>
        <time>2016-07-16T07:47:46Z</time>
      </trkpt>
      <trkpt lat="46.7897" lon="6.52509">
        <ele>629</ele>
        <time>2016-07-16T07:47:58Z</time>
      </trkpt>
      <trkpt lat="46.7898" lon="6.52511">
        <ele>630</ele>
        <time>2016-07-16T07:48:02Z</time>
      </trkpt>
      <trkpt lat="46.78995" lon="6.52517">
        <ele>630</ele>
        <time>2016-07-16T07:48:06Z</time>
      </trkpt>
      <trkpt lat="46.79011" lon="6.52521">
        <ele>632</ele>
        <time>2016-07-16T07:48:10Z</time>
      </trkpt>
      <trkpt lat="46.79024" lon="6.52521">
        <ele>632</ele>
        <time>2016-07-16T07:48:15Z</time>
      </trkpt>
      <trkpt lat="46.79037" lon="6.52519">
        <ele>632</ele>
        <time>2016-07-16T07:48:19Z</time>
      </trkpt>
      <trkpt lat="46.79053" lon="6.52518">
        <ele>633</ele>
        <time>2016-07-16T07:48:24Z</time>
      </trkpt>
      <trkpt lat="46.79071" lon="6.52518">
        <ele>634</ele>
        <time>2016-07-16T07:48:28Z</time>
      </trkpt>
      <trkpt lat="46.79082" lon="6.52516">
        <ele>634</ele>
        <time>2016-07-16T07:48:31Z</time>
      </trkpt>
      <trkpt lat="46.79097" lon="6.52515">
        <ele>635</ele>
        <time>2016-07-16T07:48:36Z</time>
      </trkpt>
      <trkpt lat="46.79108" lon="6.52515">
        <ele>635</ele>
        <time>2016-07-16T07:48:41Z</time>
      </trkpt>
      <trkpt lat="46.79117" lon="6.52523">
        <ele>635</ele>
        <time>2016-07-16T07:48:45Z</time>
      </trkpt>
      <trkpt lat="46.79127" lon="6.52541">
        <ele>635</ele>
        <time>2016-07-16T07:48:50Z</time>
      </trkpt>
      <trkpt lat="46.79137" lon="6.52547">
        <ele>635</ele>
        <time>2016-07-16T07:48:54Z</time>
      </trkpt>
      <trkpt lat="46.79151" lon="6.52559">
        <ele>635</ele>
        <time>2016-07-16T07:48:58Z</time>
      </trkpt>
      <trkpt lat="46.79156" lon="6.52566">
        <ele>635</ele>
        <time>2016-07-16T07:49:00Z</time>
      </trkpt>
      <trkpt lat="46.7916" lon="6.52583">
        <ele>633</ele>
        <time>2016-07-16T07:49:04Z</time>
      </trkpt>
      <trkpt lat="46.79158" lon="6.52602">
        <ele>632</ele>
        <time>2016-07-16T07:49:08Z</time>
      </trkpt>
      <trkpt lat="46.79157" lon="6.52644">
        <ele>631</ele>
        <time>2016-07-16T07:49:13Z</time>
      </trkpt>
      <trkpt lat="46.79157" lon="6.52671">
        <ele>630</ele>
        <time>2016-07-16T07:49:17Z</time>
      </trkpt>
      <trkpt lat="46.79166" lon="6.52736">
        <ele>627</ele>
        <time>2016-07-16T07:49:22Z</time>
      </trkpt>
      <trkpt lat="46.79173" lon="6.52802">
        <ele>627</ele>
        <time>2016-07-16T07:49:27Z</time>
      </trkpt>
      <trkpt lat="46.79205" lon="6.52817">
        <ele>629</ele>
        <time>2016-07-16T07:49:31Z</time>
      </trkpt>
      <trkpt lat="46.79221" lon="6.5286">
        <ele>624</ele>
        <time>2016-07-16T07:49:35Z</time>
      </trkpt>
      <trkpt lat="46.79232" lon="6.52845">
        <ele>625</ele>
        <time>2016-07-16T07:49:39Z</time>
      </trkpt>
      <trkpt lat="46.79248" lon="6.5286">
        <ele>625</ele>
        <time>2016-07-16T07:49:43Z</time>
      </trkpt>
      <trkpt lat="46.79263" lon="6.52883">
        <ele>632</ele>
        <time>2016-07-16T07:49:47Z</time>
      </trkpt>
      <trkpt lat="46.79271" lon="6.52907">
        <ele>630</ele>
        <time>2016-07-16T07:49:51Z</time>
      </trkpt>
      <trkpt lat="46.79283" lon="6.52928">
        <ele>628</ele>
        <time>2016-07-16T07:49:55Z</time>
      </trkpt>
      <trkpt lat="46.79287" lon="6.5294">
        <ele>629</ele>
        <time>2016-07-16T07:49:59Z</time>
      </trkpt>
      <trkpt lat="46.793" lon="6.52963">
        <ele>630</ele>
        <time>2016-07-16T07:50:04Z</time>
      </trkpt>
      <trkpt lat="46.79305" lon="6.52989">
        <ele>630</ele>
        <time>2016-07-16T07:50:09Z</time>
      </trkpt>
      <trkpt lat="46.79316" lon="6.53018">
        <ele>630</ele>
        <time>2016-07-16T07:50:14Z</time>
      </trkpt>
      <trkpt lat="46.79322" lon="6.5304">
        <ele>630</ele>
        <time>2016-07-16T07:50:18Z</time>
      </trkpt>
      <trkpt lat="46.79347" lon="6.53066">
        <ele>636</ele>
        <time>2016-07-16T07:50:22Z</time>
      </trkpt>
      <trkpt lat="46.7934" lon="6.53083">
        <ele>634</ele>
        <time>2016-07-16T07:50:27Z</time>
      </trkpt>
      <trkpt lat="46.79345" lon="6.53102">
        <ele>633</ele>
        <time>2016-07-16T07:50:30Z</time>
      </trkpt>
      <trkpt lat="46.79345" lon="6.53115">
        <ele>633</ele>
        <time>2016-07-16T07:50:35Z</time>
      </trkpt>
      <trkpt lat="46.79354" lon="6.53123">
        <ele>633</ele>
        <time>2016-07-16T07:50:39Z</time>
      </trkpt>
      <trkpt lat="46.79369" lon="6.53124">
        <ele>634</ele>
        <time>2016-07-16T07:50:43Z</time>
      </trkpt>
      <trkpt lat="46.79376" lon="6.53131">
        <ele>634</ele>
        <time>2016-07-16T07:50:48Z</time>
      </trkpt>
      <trkpt lat="46.79384" lon="6.53139">
        <ele>634</ele>
        <time>2016-07-16T07:50:52Z</time>
      </trkpt>
      <trkpt lat="46.79396" lon="6.53137">
        <ele>634</ele>
        <time>2016-07-16T07:50:57Z</time>
      </trkpt>
      <trkpt lat="46.79404" lon="6.5315">
        <ele>634</ele>
        <time>2016-07-16T07:51:01Z</time>
      </trkpt>
      <trkpt lat="46.79418" lon="6.5316">
        <ele>635</ele>
        <time>2016-07-16T07:51:06Z</time>
      </trkpt>
      <trkpt lat="46.79435" lon="6.53165">
        <ele>638</ele>
        <time>2016-07-16T07:51:10Z</time>
      </trkpt>
      <trkpt lat="46.79449" lon="6.53165">
        <ele>639</ele>
        <time>2016-07-16T07:51:15Z</time>
      </trkpt>
      <trkpt lat="46.79463" lon="6.53168">
        <ele>635</ele>
        <time>2016-07-16T07:51:19Z</time>
      </trkpt>
      <trkpt lat="46.79482" lon="6.53176">
        <ele>636</ele>
        <time>2016-07-16T07:51:24Z</time>
      </trkpt>
      <trkpt lat="46.79494" lon="6.53192">
        <ele>636</ele>
        <time>2016-07-16T07:51:28Z</time>
      </trkpt>
      <trkpt lat="46.79506" lon="6.53213">
        <ele>642</ele>
        <time>2016-07-16T07:51:33Z</time>
      </trkpt>
      <trkpt lat="46.79527" lon="6.53244">
        <ele>641</ele>
        <time>2016-07-16T07:51:37Z</time>
      </trkpt>
      <trkpt lat="46.79543" lon="6.5328">
        <ele>636</ele>
        <time>2016-07-16T07:51:41Z</time>
      </trkpt>
      <trkpt lat="46.79558" lon="6.53296">
        <ele>636</ele>
        <time>2016-07-16T07:51:45Z</time>
      </trkpt>
      <trkpt lat="46.79585" lon="6.53334">
        <ele>635</ele>
        <time>2016-07-16T07:51:50Z</time>
      </trkpt>
      <trkpt lat="46.79605" lon="6.53366">
        <ele>638</ele>
        <time>2016-07-16T07:51:54Z</time>
      </trkpt>
      <trkpt lat="46.79631" lon="6.53406">
        <ele>637</ele>
        <time>2016-07-16T07:51:59Z</time>
      </trkpt>
      <trkpt lat="46.79634" lon="6.53422">
        <ele>630</ele>
        <time>2016-07-16T07:52:03Z</time>
      </trkpt>
      <trkpt lat="46.79707" lon="6.53584">
        <ele>615</ele>
        <time>2016-07-16T07:52:19Z</time>
      </trkpt>
      <trkpt lat="46.79716" lon="6.53591">
        <ele>616</ele>
        <time>2016-07-16T07:52:23Z</time>
      </trkpt>
      <trkpt lat="46.798" lon="6.53625">
        <ele>617</ele>
        <time>2016-07-16T07:52:28Z</time>
      </trkpt>
      <trkpt lat="46.79837" lon="6.53609">
        <ele>628</ele>
        <time>2016-07-16T07:52:32Z</time>
      </trkpt>
      <trkpt lat="46.79862" lon="6.53642">
        <ele>624</ele>
        <time>2016-07-16T07:52:36Z</time>
      </trkpt>
      <trkpt lat="46.79896" lon="6.53656">
        <ele>627</ele>
        <time>2016-07-16T07:52:39Z</time>
      </trkpt>
      <trkpt lat="46.79918" lon="6.53716">
        <ele>624</ele>
        <time>2016-07-16T07:52:43Z</time>
      </trkpt>
      <trkpt lat="46.79946" lon="6.53755">
        <ele>616</ele>
        <time>2016-07-16T07:52:48Z</time>
      </trkpt>
      <trkpt lat="46.79966" lon="6.53795">
        <ele>617</ele>
        <time>2016-07-16T07:52:52Z</time>
      </trkpt>
      <trkpt lat="46.79982" lon="6.53829">
        <ele>616</ele>
        <time>2016-07-16T07:52:56Z</time>
      </trkpt>
      <trkpt lat="46.79989" lon="6.53849">
        <ele>615</ele>
        <time>2016-07-16T07:53:00Z</time>
      </trkpt>
      <trkpt lat="46.80046" lon="6.53913">
        <ele>617</ele>
        <time>2016-07-16T07:53:05Z</time>
      </trkpt>
      <trkpt lat="46.8008" lon="6.53948">
        <ele>612</ele>
        <time>2016-07-16T07:53:09Z</time>
      </trkpt>
      <trkpt lat="46.80101" lon="6.53962">
        <ele>614</ele>
        <time>2016-07-16T07:53:14Z</time>
      </trkpt>
      <trkpt lat="46.80116" lon="6.53975">
        <ele>614</ele>
        <time>2016-07-16T07:53:19Z</time>
      </trkpt>
      <trkpt lat="46.80129" lon="6.53987">
        <ele>614</ele>
        <time>2016-07-16T07:53:24Z</time>
      </trkpt>
      <trkpt lat="46.80148" lon="6.54015">
        <ele>611</ele>
        <time>2016-07-16T07:53:28Z</time>
      </trkpt>
      <trkpt lat="46.80183" lon="6.54093">
        <ele>608</ele>
        <time>2016-07-16T07:53:33Z</time>
      </trkpt>
      <trkpt lat="46.80192" lon="6.54112">
        <ele>609</ele>
        <time>2016-07-16T07:53:37Z</time>
      </trkpt>
      <trkpt lat="46.80213" lon="6.54129">
        <ele>610</ele>
        <time>2016-07-16T07:53:42Z</time>
      </trkpt>
      <trkpt lat="46.80235" lon="6.54129">
        <ele>610</ele>
        <time>2016-07-16T07:53:46Z</time>
      </trkpt>
      <trkpt lat="46.80271" lon="6.54126">
        <ele>615</ele>
        <time>2016-07-16T07:53:51Z</time>
      </trkpt>
      <trkpt lat="46.80294" lon="6.54127">
        <ele>616</ele>
        <time>2016-07-16T07:53:55Z</time>
      </trkpt>
      <trkpt lat="46.80309" lon="6.54158">
        <ele>613</ele>
        <time>2016-07-16T07:54:00Z</time>
      </trkpt>
      <trkpt lat="46.80327" lon="6.54167">
        <ele>610</ele>
        <time>2016-07-16T07:54:04Z</time>
      </trkpt>
      <trkpt lat="46.80345" lon="6.54177">
        <ele>609</ele>
        <time>2016-07-16T07:54:08Z</time>
      </trkpt>
      <trkpt lat="46.80382" lon="6.542">
        <ele>608</ele>
        <time>2016-07-16T07:54:13Z</time>
      </trkpt>
      <trkpt lat="46.80414" lon="6.54217">
        <ele>607</ele>
        <time>2016-07-16T07:54:17Z</time>
      </trkpt>
      <trkpt lat="46.80437" lon="6.5423">
        <ele>617</ele>
        <time>2016-07-16T07:54:21Z</time>
      </trkpt>
      <trkpt lat="46.80455" lon="6.54239">
        <ele>620</ele>
        <time>2016-07-16T07:54:25Z</time>
      </trkpt>
      <trkpt lat="46.80464" lon="6.54261">
        <ele>617</ele>
        <time>2016-07-16T07:54:30Z</time>
      </trkpt>
      <trkpt lat="46.80457" lon="6.54271">
        <ele>616</ele>
        <time>2016-07-16T07:54:34Z</time>
      </trkpt>
      <trkpt lat="46.80455" lon="6.54288">
        <ele>616</ele>
        <time>2016-07-16T07:54:39Z</time>
      </trkpt>
      <trkpt lat="46.80463" lon="6.54294">
        <ele>616</ele>
        <time>2016-07-16T07:54:50Z</time>
      </trkpt>
      <trkpt lat="46.80471" lon="6.54297">
        <ele>617</ele>
        <time>2016-07-16T07:54:59Z</time>
      </trkpt>
      <trkpt lat="46.80479" lon="6.54303">
        <ele>618</ele>
        <time>2016-07-16T07:55:05Z</time>
      </trkpt>
      <trkpt lat="46.80494" lon="6.54306">
        <ele>618</ele>
        <time>2016-07-16T07:55:10Z</time>
      </trkpt>
      <trkpt lat="46.80516" lon="6.54307">
        <ele>638</ele>
        <time>2016-07-16T07:55:15Z</time>
      </trkpt>
      <trkpt lat="46.80514" lon="6.54321">
        <ele>634</ele>
        <time>2016-07-16T07:55:20Z</time>
      </trkpt>
      <trkpt lat="46.80517" lon="6.54332">
        <ele>633</ele>
        <time>2016-07-16T07:55:24Z</time>
      </trkpt>
      <trkpt lat="46.80517" lon="6.54345">
        <ele>626</ele>
        <time>2016-07-16T07:55:30Z</time>
      </trkpt>
      <trkpt lat="46.80521" lon="6.54355">
        <ele>628</ele>
        <time>2016-07-16T07:55:52Z</time>
      </trkpt>
      <trkpt lat="46.80538" lon="6.54362">
        <ele>631</ele>
        <time>2016-07-16T07:55:57Z</time>
      </trkpt>
      <trkpt lat="46.80545" lon="6.54365">
        <ele>632</ele>
        <time>2016-07-16T07:56:01Z</time>
      </trkpt>
      <trkpt lat="46.80552" lon="6.5437">
        <ele>632</ele>
        <time>2016-07-16T07:56:06Z</time>
      </trkpt>
      <trkpt lat="46.80559" lon="6.54379">
        <ele>632</ele>
        <time>2016-07-16T07:56:10Z</time>
      </trkpt>
      <trkpt lat="46.80566" lon="6.54402">
        <ele>630</ele>
        <time>2016-07-16T07:56:15Z</time>
      </trkpt>
      <trkpt lat="46.80568" lon="6.54422">
        <ele>623</ele>
        <time>2016-07-16T07:56:19Z</time>
      </trkpt>
      <trkpt lat="46.8056" lon="6.54444">
        <ele>620</ele>
        <time>2016-07-16T07:56:24Z</time>
      </trkpt>
      <trkpt lat="46.80566" lon="6.54437">
        <ele>622</ele>
        <time>2016-07-16T07:56:31Z</time>
      </trkpt>
      <trkpt lat="46.80575" lon="6.54435">
        <ele>622</ele>
        <time>2016-07-16T07:56:36Z</time>
      </trkpt>
      <trkpt lat="46.80587" lon="6.54438">
        <ele>630</ele>
        <time>2016-07-16T07:56:40Z</time>
      </trkpt>
      <trkpt lat="46.80602" lon="6.54435">
        <ele>632</ele>
        <time>2016-07-16T07:56:44Z</time>
      </trkpt>
      <trkpt lat="46.8061" lon="6.54442">
        <ele>632</ele>
        <time>2016-07-16T07:56:55Z</time>
      </trkpt>
      <trkpt lat="46.80619" lon="6.54449">
        <ele>633</ele>
        <time>2016-07-16T07:57:00Z</time>
      </trkpt>
      <trkpt lat="46.80626" lon="6.54447">
        <ele>635</ele>
        <time>2016-07-16T07:57:07Z</time>
      </trkpt>
      <trkpt lat="46.80639" lon="6.54449">
        <ele>637</ele>
        <time>2016-07-16T07:57:12Z</time>
      </trkpt>
      <trkpt lat="46.80645" lon="6.54459">
        <ele>636</ele>
        <time>2016-07-16T07:57:17Z</time>
      </trkpt>
      <trkpt lat="46.80648" lon="6.54466">
        <ele>635</ele>
        <time>2016-07-16T07:57:22Z</time>
      </trkpt>
      <trkpt lat="46.80646" lon="6.54473">
        <ele>633</ele>
        <time>2016-07-16T07:57:23Z</time>
      </trkpt>
      <trkpt lat="46.80672" lon="6.54481">
        <ele>646</ele>
        <time>2016-07-16T07:57:28Z</time>
      </trkpt>
      <trkpt lat="46.8067" lon="6.54489">
        <ele>641</ele>
        <time>2016-07-16T07:57:45Z</time>
      </trkpt>
      <trkpt lat="46.80679" lon="6.54494">
        <ele>642</ele>
        <time>2016-07-16T07:57:50Z</time>
      </trkpt>
      <trkpt lat="46.80685" lon="6.54499">
        <ele>645</ele>
        <time>2016-07-16T07:57:54Z</time>
      </trkpt>
      <trkpt lat="46.80693" lon="6.54507">
        <ele>628</ele>
        <time>2016-07-16T07:57:58Z</time>
      </trkpt>
      <trkpt lat="46.80702" lon="6.5451">
        <ele>629</ele>
        <time>2016-07-16T07:58:03Z</time>
      </trkpt>
      <trkpt lat="46.80709" lon="6.54517">
        <ele>629</ele>
        <time>2016-07-16T07:58:08Z</time>
      </trkpt>
      <trkpt lat="46.80713" lon="6.54528">
        <ele>628</ele>
        <time>2016-07-16T07:58:15Z</time>
      </trkpt>
      <trkpt lat="46.80719" lon="6.54536">
        <ele>626</ele>
        <time>2016-07-16T07:58:21Z</time>
      </trkpt>
      <trkpt lat="46.80726" lon="6.54542">
        <ele>626</ele>
        <time>2016-07-16T07:58:28Z</time>
      </trkpt>
      <trkpt lat="46.80733" lon="6.54538">
        <ele>628</ele>
        <time>2016-07-16T07:58:35Z</time>
      </trkpt>
      <trkpt lat="46.80742" lon="6.54535">
        <ele>629</ele>
        <time>2016-07-16T07:58:42Z</time>
      </trkpt>
      <trkpt lat="46.80747" lon="6.54535">
        <ele>630</ele>
        <time>2016-07-16T07:58:48Z</time>
      </trkpt>
      <trkpt lat="46.80755" lon="6.5453">
        <ele>637</ele>
        <time>2016-07-16T07:58:53Z</time>
      </trkpt>
      <trkpt lat="46.80767" lon="6.54534">
        <ele>635</ele>
        <time>2016-07-16T07:58:58Z</time>
      </trkpt>
      <trkpt lat="46.80773" lon="6.54527">
        <ele>636</ele>
        <time>2016-07-16T07:59:02Z</time>
      </trkpt>
      <trkpt lat="46.80779" lon="6.54518">
        <ele>637</ele>
        <time>2016-07-16T07:59:05Z</time>
      </trkpt>
      <trkpt lat="46.80783" lon="6.545">
        <ele>639</ele>
        <time>2016-07-16T07:59:09Z</time>
      </trkpt>
      <trkpt lat="46.80785" lon="6.54483">
        <ele>660</ele>
        <time>2016-07-16T07:59:14Z</time>
      </trkpt>
      <trkpt lat="46.80794" lon="6.54461">
        <ele>663</ele>
        <time>2016-07-16T07:59:19Z</time>
      </trkpt>
      <trkpt lat="46.80808" lon="6.54454">
        <ele>664</ele>
        <time>2016-07-16T07:59:23Z</time>
      </trkpt>
      <trkpt lat="46.80811" lon="6.54442">
        <ele>666</ele>
        <time>2016-07-16T07:59:30Z</time>
      </trkpt>
      <trkpt lat="46.80819" lon="6.5444">
        <ele>667</ele>
        <time>2016-07-16T07:59:37Z</time>
      </trkpt>
      <trkpt lat="46.80828" lon="6.54438">
        <ele>667</ele>
        <time>2016-07-16T07:59:46Z</time>
      </trkpt>
      <trkpt lat="46.80836" lon="6.54431">
        <ele>667</ele>
        <time>2016-07-16T07:59:51Z</time>
      </trkpt>
      <trkpt lat="46.80844" lon="6.54429">
        <ele>667</ele>
        <time>2016-07-16T07:59:56Z</time>
      </trkpt>
      <trkpt lat="46.80854" lon="6.54431">
        <ele>664</ele>
        <time>2016-07-16T08:00:00Z</time>
      </trkpt>
      <trkpt lat="46.80863" lon="6.54434">
        <ele>663</ele>
        <time>2016-07-16T08:00:05Z</time>
      </trkpt>
      <trkpt lat="46.80874" lon="6.54435">
        <ele>662</ele>
        <time>2016-07-16T08:00:09Z</time>
      </trkpt>
      <trkpt lat="46.80884" lon="6.54436">
        <ele>661</ele>
        <time>2016-07-16T08:00:13Z</time>
      </trkpt>
      <trkpt lat="46.80895" lon="6.54439">
        <ele>661</ele>
        <time>2016-07-16T08:00:17Z</time>
      </trkpt>
      <trkpt lat="46.80905" lon="6.54431">
        <ele>662</ele>
        <time>2016-07-16T08:00:22Z</time>
      </trkpt>
      <trkpt lat="46.80912" lon="6.54419">
        <ele>663</ele>
        <time>2016-07-16T08:00:26Z</time>
      </trkpt>
      <trkpt lat="46.80916" lon="6.54407">
        <ele>670</ele>
        <time>2016-07-16T08:00:30Z</time>
      </trkpt>
      <trkpt lat="46.80915" lon="6.54392">
        <ele>676</ele>
        <time>2016-07-16T08:00:35Z</time>
      </trkpt>
      <trkpt lat="46.80917" lon="6.54379">
        <ele>679</ele>
        <time>2016-07-16T08:00:39Z</time>
      </trkpt>
      <trkpt lat="46.80926" lon="6.54372">
        <ele>681</ele>
        <time>2016-07-16T08:00:43Z</time>
      </trkpt>
      <trkpt lat="46.80931" lon="6.54363">
        <ele>682</ele>
        <time>2016-07-16T08:00:48Z</time>
      </trkpt>
      <trkpt lat="46.8093" lon="6.5435">
        <ele>684</ele>
        <time>2016-07-16T08:00:53Z</time>
      </trkpt>
      <trkpt lat="46.80934" lon="6.54337">
        <ele>685</ele>
        <time>2016-07-16T08:00:57Z</time>
      </trkpt>
      <trkpt lat="46.80943" lon="6.54335">
        <ele>684</ele>
        <time>2016-07-16T08:01:02Z</time>
      </trkpt>
      <trkpt lat="46.80955" lon="6.54341">
        <ele>682</ele>
        <time>2016-07-16T08:01:07Z</time>
      </trkpt>
      <trkpt lat="46.8097" lon="6.54341">
        <ele>681</ele>
        <time>2016-07-16T08:01:12Z</time>
      </trkpt>
      <trkpt lat="46.80971" lon="6.5433">
        <ele>689</ele>
        <time>2016-07-16T08:01:18Z</time>
      </trkpt>
      <trkpt lat="46.80969" lon="6.54313">
        <ele>691</ele>
        <time>2016-07-16T08:01:23Z</time>
      </trkpt>
      <trkpt lat="46.8097" lon="6.54295">
        <ele>693</ele>
        <time>2016-07-16T08:01:28Z</time>
      </trkpt>
      <trkpt lat="46.80978" lon="6.54286">
        <ele>693</ele>
        <time>2016-07-16T08:01:33Z</time>
      </trkpt>
      <trkpt lat="46.80988" lon="6.54281">
        <ele>692</ele>
        <time>2016-07-16T08:01:38Z</time>
      </trkpt>
      <trkpt lat="46.80998" lon="6.54275">
        <ele>691</ele>
        <time>2016-07-16T08:01:42Z</time>
      </trkpt>
      <trkpt lat="46.81004" lon="6.54262">
        <ele>688</ele>
        <time>2016-07-16T08:01:46Z</time>
      </trkpt>
      <trkpt lat="46.81006" lon="6.54243">
        <ele>691</ele>
        <time>2016-07-16T08:01:51Z</time>
      </trkpt>
      <trkpt lat="46.81015" lon="6.54229">
        <ele>696</ele>
        <time>2016-07-16T08:01:55Z</time>
      </trkpt>
      <trkpt lat="46.81022" lon="6.54222">
        <ele>698</ele>
        <time>2016-07-16T08:01:58Z</time>
      </trkpt>
      <trkpt lat="46.81036" lon="6.54213">
        <ele>699</ele>
        <time>2016-07-16T08:02:05Z</time>
      </trkpt>
      <trkpt lat="46.81042" lon="6.54205">
        <ele>700</ele>
        <time>2016-07-16T08:02:10Z</time>
      </trkpt>
      <trkpt lat="46.81046" lon="6.5419">
        <ele>701</ele>
        <time>2016-07-16T08:02:14Z</time>
      </trkpt>
      <trkpt lat="46.81056" lon="6.54183">
        <ele>699</ele>
        <time>2016-07-16T08:02:17Z</time>
      </trkpt>
      <trkpt lat="46.81061" lon="6.54175">
        <ele>697</ele>
        <time>2016-07-16T08:02:22Z</time>
      </trkpt>
      <trkpt lat="46.8107" lon="6.54174">
        <ele>694</ele>
        <time>2016-07-16T08:02:26Z</time>
      </trkpt>
      <trkpt lat="46.81086" lon="6.54169">
        <ele>689</ele>
        <time>2016-07-16T08:02:30Z</time>
      </trkpt>
      <trkpt lat="46.81097" lon="6.54163">
        <ele>694</ele>
        <time>2016-07-16T08:02:35Z</time>
      </trkpt>
      <trkpt lat="46.81102" lon="6.54154">
        <ele>696</ele>
        <time>2016-07-16T08:02:39Z</time>
      </trkpt>
      <trkpt lat="46.81107" lon="6.54143">
        <ele>699</ele>
        <time>2016-07-16T08:02:43Z</time>
      </trkpt>
      <trkpt lat="46.81116" lon="6.54134">
        <ele>700</ele>
        <time>2016-07-16T08:02:48Z</time>
      </trkpt>
      <trkpt lat="46.81122" lon="6.54124">
        <ele>701</ele>
        <time>2016-07-16T08:02:53Z</time>
      </trkpt>
      <trkpt lat="46.81125" lon="6.54113">
        <ele>702</ele>
        <time>2016-07-16T08:02:57Z</time>
      </trkpt>
      <trkpt lat="46.81127" lon="6.541">
        <ele>702</ele>
        <time>2016-07-16T08:03:01Z</time>
      </trkpt>
      <trkpt lat="46.81126" lon="6.54089">
        <ele>702</ele>
        <time>2016-07-16T08:03:05Z</time>
      </trkpt>
      <trkpt lat="46.81123" lon="6.54071">
        <ele>711</ele>
        <time>2016-07-16T08:03:10Z</time>
      </trkpt>
      <trkpt lat="46.81119" lon="6.54054">
        <ele>713</ele>
        <time>2016-07-16T08:03:14Z</time>
      </trkpt>
      <trkpt lat="46.81126" lon="6.54051">
        <ele>712</ele>
        <time>2016-07-16T08:03:18Z</time>
      </trkpt>
      <trkpt lat="46.81136" lon="6.54049">
        <ele>711</ele>
        <time>2016-07-16T08:03:22Z</time>
      </trkpt>
      <trkpt lat="46.8114" lon="6.54039">
        <ele>711</ele>
        <time>2016-07-16T08:03:26Z</time>
      </trkpt>
      <trkpt lat="46.81144" lon="6.54028">
        <ele>711</ele>
        <time>2016-07-16T08:03:31Z</time>
      </trkpt>
      <trkpt lat="46.81148" lon="6.54017">
        <ele>709</ele>
        <time>2016-07-16T08:03:38Z</time>
      </trkpt>
      <trkpt lat="46.81156" lon="6.54014">
        <ele>707</ele>
        <time>2016-07-16T08:03:42Z</time>
      </trkpt>
      <trkpt lat="46.8116" lon="6.54004">
        <ele>704</ele>
        <time>2016-07-16T08:03:48Z</time>
      </trkpt>
      <trkpt lat="46.81164" lon="6.53993">
        <ele>709</ele>
        <time>2016-07-16T08:03:56Z</time>
      </trkpt>
      <trkpt lat="46.81172" lon="6.53987">
        <ele>704</ele>
        <time>2016-07-16T08:04:01Z</time>
      </trkpt>
      <trkpt lat="46.81177" lon="6.53979">
        <ele>705</ele>
        <time>2016-07-16T08:04:07Z</time>
      </trkpt>
      <trkpt lat="46.81178" lon="6.53966">
        <ele>707</ele>
        <time>2016-07-16T08:04:14Z</time>
      </trkpt>
      <trkpt lat="46.81179" lon="6.53955">
        <ele>708</ele>
        <time>2016-07-16T08:04:20Z</time>
      </trkpt>
      <trkpt lat="46.81181" lon="6.53947">
        <ele>709</ele>
        <time>2016-07-16T08:04:24Z</time>
      </trkpt>
      <trkpt lat="46.81181" lon="6.53933">
        <ele>711</ele>
        <time>2016-07-16T08:04:29Z</time>
      </trkpt>
      <trkpt lat="46.81184" lon="6.53923">
        <ele>712</ele>
        <time>2016-07-16T08:04:34Z</time>
      </trkpt>
      <trkpt lat="46.81192" lon="6.53916">
        <ele>716</ele>
        <time>2016-07-16T08:04:39Z</time>
      </trkpt>
      <trkpt lat="46.81193" lon="6.53904">
        <ele>717</ele>
        <time>2016-07-16T08:04:46Z</time>
      </trkpt>
      <trkpt lat="46.81194" lon="6.53892">
        <ele>717</ele>
        <time>2016-07-16T08:04:56Z</time>
      </trkpt>
      <trkpt lat="46.81204" lon="6.53892">
        <ele>716</ele>
        <time>2016-07-16T08:05:00Z</time>
      </trkpt>
      <trkpt lat="46.81214" lon="6.53892">
        <ele>714</ele>
        <time>2016-07-16T08:05:04Z</time>
      </trkpt>
      <trkpt lat="46.8122" lon="6.53884">
        <ele>714</ele>
        <time>2016-07-16T08:05:34Z</time>
      </trkpt>
      <trkpt lat="46.81225" lon="6.53877">
        <ele>714</ele>
        <time>2016-07-16T08:05:38Z</time>
      </trkpt>
      <trkpt lat="46.81231" lon="6.53868">
        <ele>714</ele>
        <time>2016-07-16T08:05:43Z</time>
      </trkpt>
      <trkpt lat="46.81233" lon="6.53855">
        <ele>714</ele>
        <time>2016-07-16T08:05:48Z</time>
      </trkpt>
      <trkpt lat="46.81237" lon="6.53842">
        <ele>713</ele>
        <time>2016-07-16T08:05:52Z</time>
      </trkpt>
      <trkpt lat="46.81248" lon="6.53834">
        <ele>709</ele>
        <time>2016-07-16T08:05:57Z</time>
      </trkpt>
      <trkpt lat="46.81256" lon="6.53825">
        <ele>712</ele>
        <time>2016-07-16T08:06:01Z</time>
      </trkpt>
      <trkpt lat="46.81263" lon="6.53811">
        <ele>716</ele>
        <time>2016-07-16T08:06:06Z</time>
      </trkpt>
      <trkpt lat="46.81269" lon="6.53797">
        <ele>719</ele>
        <time>2016-07-16T08:06:11Z</time>
      </trkpt>
      <trkpt lat="46.81272" lon="6.53786">
        <ele>720</ele>
        <time>2016-07-16T08:06:16Z</time>
      </trkpt>
      <trkpt lat="46.8128" lon="6.53782">
        <ele>720</ele>
        <time>2016-07-16T08:06:21Z</time>
      </trkpt>
      <trkpt lat="46.81286" lon="6.53774">
        <ele>721</ele>
        <time>2016-07-16T08:06:26Z</time>
      </trkpt>
      <trkpt lat="46.81289" lon="6.53765">
        <ele>722</ele>
        <time>2016-07-16T08:06:29Z</time>
      </trkpt>
      <trkpt lat="46.81296" lon="6.53746">
        <ele>731</ele>
        <time>2016-07-16T08:06:34Z</time>
      </trkpt>
      <trkpt lat="46.81344" lon="6.53733">
        <ele>731</ele>
        <time>2016-07-16T08:07:05Z</time>
      </trkpt>
      <trkpt lat="46.81375" lon="6.5373">
        <ele>736</ele>
        <time>2016-07-16T08:07:10Z</time>
      </trkpt>
      <trkpt lat="46.81369" lon="6.53721">
        <ele>735</ele>
        <time>2016-07-16T08:07:17Z</time>
      </trkpt>
      <trkpt lat="46.81376" lon="6.53713">
        <ele>735</ele>
        <time>2016-07-16T08:07:23Z</time>
      </trkpt>
      <trkpt lat="46.81376" lon="6.53701">
        <ele>735</ele>
        <time>2016-07-16T08:07:31Z</time>
      </trkpt>
      <trkpt lat="46.81379" lon="6.5369">
        <ele>735</ele>
        <time>2016-07-16T08:07:37Z</time>
      </trkpt>
      <trkpt lat="46.81384" lon="6.5368">
        <ele>735</ele>
        <time>2016-07-16T08:07:44Z</time>
      </trkpt>
      <trkpt lat="46.81386" lon="6.53669">
        <ele>735</ele>
        <time>2016-07-16T08:07:50Z</time>
      </trkpt>
      <trkpt lat="46.81384" lon="6.53656">
        <ele>737</ele>
        <time>2016-07-16T08:07:54Z</time>
      </trkpt>
      <trkpt lat="46.81383" lon="6.53645">
        <ele>738</ele>
        <time>2016-07-16T08:07:58Z</time>
      </trkpt>
      <trkpt lat="46.81383" lon="6.53632">
        <ele>739</ele>
        <time>2016-07-16T08:08:03Z</time>
      </trkpt>
      <trkpt lat="46.81377" lon="6.53617">
        <ele>740</ele>
        <time>2016-07-16T08:08:08Z</time>
      </trkpt>
      <trkpt lat="46.81382" lon="6.53608">
        <ele>740</ele>
        <time>2016-07-16T08:08:16Z</time>
      </trkpt>
      <trkpt lat="46.81385" lon="6.53602">
        <ele>740</ele>
        <time>2016-07-16T08:08:20Z</time>
      </trkpt>
      <trkpt lat="46.81397" lon="6.53588">
        <ele>740</ele>
        <time>2016-07-16T08:08:25Z</time>
      </trkpt>
      <trkpt lat="46.81403" lon="6.53582">
        <ele>746</ele>
        <time>2016-07-16T08:08:29Z</time>
      </trkpt>
      <trkpt lat="46.81407" lon="6.53567">
        <ele>748</ele>
        <time>2016-07-16T08:08:33Z</time>
      </trkpt>
      <trkpt lat="46.81408" lon="6.53555">
        <ele>750</ele>
        <time>2016-07-16T08:08:38Z</time>
      </trkpt>
      <trkpt lat="46.8141" lon="6.53543">
        <ele>752</ele>
        <time>2016-07-16T08:08:42Z</time>
      </trkpt>
      <trkpt lat="46.81406" lon="6.53554">
        <ele>750</ele>
        <time>2016-07-16T08:09:04Z</time>
      </trkpt>
      <trkpt lat="46.81404" lon="6.53569">
        <ele>748</ele>
        <time>2016-07-16T08:09:09Z</time>
      </trkpt>
      <trkpt lat="46.81396" lon="6.53582">
        <ele>748</ele>
        <time>2016-07-16T08:09:13Z</time>
      </trkpt>
      <trkpt lat="46.81402" lon="6.53584">
        <ele>740</ele>
        <time>2016-07-16T08:09:25Z</time>
      </trkpt>
      <trkpt lat="46.81411" lon="6.53575">
        <ele>745</ele>
        <time>2016-07-16T08:09:29Z</time>
      </trkpt>
      <trkpt lat="46.81418" lon="6.53563">
        <ele>751</ele>
        <time>2016-07-16T08:09:33Z</time>
      </trkpt>
      <trkpt lat="46.81417" lon="6.53546">
        <ele>755</ele>
        <time>2016-07-16T08:09:38Z</time>
      </trkpt>
      <trkpt lat="46.81423" lon="6.53536">
        <ele>756</ele>
        <time>2016-07-16T08:09:44Z</time>
      </trkpt>
      <trkpt lat="46.81424" lon="6.53526">
        <ele>756</ele>
        <time>2016-07-16T08:09:50Z</time>
      </trkpt>
      <trkpt lat="46.81424" lon="6.53513">
        <ele>756</ele>
        <time>2016-07-16T08:09:57Z</time>
      </trkpt>
      <trkpt lat="46.8142" lon="6.53503">
        <ele>756</ele>
        <time>2016-07-16T08:10:07Z</time>
      </trkpt>
      <trkpt lat="46.81422" lon="6.53493">
        <ele>759</ele>
        <time>2016-07-16T08:11:39Z</time>
      </trkpt>
      <trkpt lat="46.81441" lon="6.53481">
        <ele>765</ele>
        <time>2016-07-16T08:11:44Z</time>
      </trkpt>
      <trkpt lat="46.8145" lon="6.53466">
        <ele>768</ele>
        <time>2016-07-16T08:11:48Z</time>
      </trkpt>
      <trkpt lat="46.81455" lon="6.53446">
        <ele>771</ele>
        <time>2016-07-16T08:11:52Z</time>
      </trkpt>
      <trkpt lat="46.81462" lon="6.53433">
        <ele>773</ele>
        <time>2016-07-16T08:11:56Z</time>
      </trkpt>
      <trkpt lat="46.81468" lon="6.53417">
        <ele>775</ele>
        <time>2016-07-16T08:12:01Z</time>
      </trkpt>
      <trkpt lat="46.81478" lon="6.53408">
        <ele>787</ele>
        <time>2016-07-16T08:12:05Z</time>
      </trkpt>
      <trkpt lat="46.81483" lon="6.53397">
        <ele>787</ele>
        <time>2016-07-16T08:15:13Z</time>
      </trkpt>
      <trkpt lat="46.81485" lon="6.53376">
        <ele>789</ele>
        <time>2016-07-16T08:15:18Z</time>
      </trkpt>
      <trkpt lat="46.81488" lon="6.53364">
        <ele>790</ele>
        <time>2016-07-16T08:15:22Z</time>
      </trkpt>
      <trkpt lat="46.81485" lon="6.53355">
        <ele>791</ele>
        <time>2016-07-16T08:15:30Z</time>
      </trkpt>
      <trkpt lat="46.8148" lon="6.53347">
        <ele>791</ele>
        <time>2016-07-16T08:15:33Z</time>
      </trkpt>
      <trkpt lat="46.81473" lon="6.53341">
        <ele>791</ele>
        <time>2016-07-16T08:15:54Z</time>
      </trkpt>
      <trkpt lat="46.8147" lon="6.53331">
        <ele>805</ele>
        <time>2016-07-16T08:18:02Z</time>
      </trkpt>
      <trkpt lat="46.81503" lon="6.53297">
        <ele>821</ele>
        <time>2016-07-16T08:18:06Z</time>
      </trkpt>
      <trkpt lat="46.81508" lon="6.53287">
        <ele>823</ele>
        <time>2016-07-16T08:18:10Z</time>
      </trkpt>
      <trkpt lat="46.81519" lon="6.53283">
        <ele>825</ele>
        <time>2016-07-16T08:18:14Z</time>
      </trkpt>
      <trkpt lat="46.8152" lon="6.5327">
        <ele>824</ele>
        <time>2016-07-16T08:19:14Z</time>
      </trkpt>
      <trkpt lat="46.81523" lon="6.53261">
        <ele>824</ele>
        <time>2016-07-16T08:19:19Z</time>
      </trkpt>
      <trkpt lat="46.81531" lon="6.53254">
        <ele>828</ele>
        <time>2016-07-16T08:19:25Z</time>
      </trkpt>
      <trkpt lat="46.81534" lon="6.53243">
        <ele>832</ele>
        <time>2016-07-16T08:19:29Z</time>
      </trkpt>
      <trkpt lat="46.81537" lon="6.53231">
        <ele>834</ele>
        <time>2016-07-16T08:19:33Z</time>
      </trkpt>
      <trkpt lat="46.81544" lon="6.53225">
        <ele>837</ele>
        <time>2016-07-16T08:19:37Z</time>
      </trkpt>
      <trkpt lat="46.81551" lon="6.53233">
        <ele>838</ele>
        <time>2016-07-16T08:19:45Z</time>
      </trkpt>
      <trkpt lat="46.81555" lon="6.53226">
        <ele>840</ele>
        <time>2016-07-16T08:19:53Z</time>
      </trkpt>
      <trkpt lat="46.81561" lon="6.53223">
        <ele>841</ele>
        <time>2016-07-16T08:20:02Z</time>
      </trkpt>
      <trkpt lat="46.81599" lon="6.53183">
        <ele>872</ele>
        <time>2016-07-16T08:20:58Z</time>
      </trkpt>
      <trkpt lat="46.81586" lon="6.5316">
        <ele>857</ele>
        <time>2016-07-16T08:21:03Z</time>
      </trkpt>
      <trkpt lat="46.81579" lon="6.53153">
        <ele>851</ele>
        <time>2016-07-16T08:21:14Z</time>
      </trkpt>
      <trkpt lat="46.81572" lon="6.53147">
        <ele>851</ele>
        <time>2016-07-16T08:21:51Z</time>
      </trkpt>
      <trkpt lat="46.81567" lon="6.53141">
        <ele>852</ele>
        <time>2016-07-16T08:23:08Z</time>
      </trkpt>
      <trkpt lat="46.81552" lon="6.53091">
        <ele>856</ele>
        <time>2016-07-16T08:23:12Z</time>
      </trkpt>
      <trkpt lat="46.81548" lon="6.53075">
        <ele>866</ele>
        <time>2016-07-16T08:23:17Z</time>
      </trkpt>
      <trkpt lat="46.81551" lon="6.53065">
        <ele>866</ele>
        <time>2016-07-16T08:23:24Z</time>
      </trkpt>
      <trkpt lat="46.81551" lon="6.53053">
        <ele>867</ele>
        <time>2016-07-16T08:23:34Z</time>
      </trkpt>
      <trkpt lat="46.81548" lon="6.53041">
        <ele>868</ele>
        <time>2016-07-16T08:23:40Z</time>
      </trkpt>
      <trkpt lat="46.81548" lon="6.5303">
        <ele>868</ele>
        <time>2016-07-16T08:23:47Z</time>
      </trkpt>
      <trkpt lat="46.81551" lon="6.53018">
        <ele>868</ele>
        <time>2016-07-16T08:23:53Z</time>
      </trkpt>
      <trkpt lat="46.81556" lon="6.53005">
        <ele>866</ele>
        <time>2016-07-16T08:23:58Z</time>
      </trkpt>
      <trkpt lat="46.81564" lon="6.53">
        <ele>870</ele>
        <time>2016-07-16T08:24:02Z</time>
      </trkpt>
      <trkpt lat="46.8157" lon="6.5299">
        <ele>869</ele>
        <time>2016-07-16T08:24:08Z</time>
      </trkpt>
      <trkpt lat="46.81562" lon="6.52977">
        <ele>875</ele>
        <time>2016-07-16T08:24:13Z</time>
      </trkpt>
      <trkpt lat="46.81571" lon="6.52972">
        <ele>874</ele>
        <time>2016-07-16T08:24:17Z</time>
      </trkpt>
      <trkpt lat="46.8158" lon="6.52967">
        <ele>873</ele>
        <time>2016-07-16T08:24:22Z</time>
      </trkpt>
      <trkpt lat="46.81587" lon="6.52959">
        <ele>872</ele>
        <time>2016-07-16T08:24:30Z</time>
      </trkpt>
      <trkpt lat="46.81595" lon="6.52956">
        <ele>873</ele>
        <time>2016-07-16T08:24:35Z</time>
      </trkpt>
      <trkpt lat="46.816" lon="6.52946">
        <ele>873</ele>
        <time>2016-07-16T08:24:40Z</time>
      </trkpt>
      <trkpt lat="46.81599" lon="6.52935">
        <ele>873</ele>
        <time>2016-07-16T08:24:46Z</time>
      </trkpt>
      <trkpt lat="46.81603" lon="6.52926">
        <ele>873</ele>
        <time>2016-07-16T08:24:51Z</time>
      </trkpt>
      <trkpt lat="46.81608" lon="6.52919">
        <ele>874</ele>
        <time>2016-07-16T08:24:55Z</time>
      </trkpt>
      <trkpt lat="46.81615" lon="6.52911">
        <ele>876</ele>
        <time>2016-07-16T08:25:01Z</time>
      </trkpt>
      <trkpt lat="46.81614" lon="6.52899">
        <ele>877</ele>
        <time>2016-07-16T08:25:07Z</time>
      </trkpt>
      <trkpt lat="46.81612" lon="6.52887">
        <ele>878</ele>
        <time>2016-07-16T08:25:13Z</time>
      </trkpt>
      <trkpt lat="46.81609" lon="6.52876">
        <ele>879</ele>
        <time>2016-07-16T08:25:17Z</time>
      </trkpt>
      <trkpt lat="46.81615" lon="6.52869">
        <ele>879</ele>
        <time>2016-07-16T08:25:22Z</time>
      </trkpt>
      <trkpt lat="46.81623" lon="6.52864">
        <ele>880</ele>
        <time>2016-07-16T08:25:27Z</time>
      </trkpt>
      <trkpt lat="46.81624" lon="6.52852">
        <ele>880</ele>
        <time>2016-07-16T08:25:32Z</time>
      </trkpt>
      <trkpt lat="46.81625" lon="6.5284">
        <ele>880</ele>
        <time>2016-07-16T08:25:40Z</time>
      </trkpt>
      <trkpt lat="46.81617" lon="6.52821">
        <ele>886</ele>
        <time>2016-07-16T08:25:45Z</time>
      </trkpt>
      <trkpt lat="46.8162" lon="6.52804">
        <ele>886</ele>
        <time>2016-07-16T08:25:49Z</time>
      </trkpt>
      <trkpt lat="46.81625" lon="6.52796">
        <ele>886</ele>
        <time>2016-07-16T08:25:54Z</time>
      </trkpt>
      <trkpt lat="46.81631" lon="6.5279">
        <ele>885</ele>
        <time>2016-07-16T08:25:58Z</time>
      </trkpt>
      <trkpt lat="46.81638" lon="6.52783">
        <ele>885</ele>
        <time>2016-07-16T08:26:02Z</time>
      </trkpt>
      <trkpt lat="46.81649" lon="6.5277">
        <ele>883</ele>
        <time>2016-07-16T08:26:07Z</time>
      </trkpt>
      <trkpt lat="46.81653" lon="6.52759">
        <ele>881</ele>
        <time>2016-07-16T08:26:11Z</time>
      </trkpt>
      <trkpt lat="46.81662" lon="6.52757">
        <ele>879</ele>
        <time>2016-07-16T08:26:15Z</time>
      </trkpt>
      <trkpt lat="46.81649" lon="6.52735">
        <ele>888</ele>
        <time>2016-07-16T08:26:20Z</time>
      </trkpt>
      <trkpt lat="46.81654" lon="6.52724">
        <ele>889</ele>
        <time>2016-07-16T08:26:30Z</time>
      </trkpt>
      <trkpt lat="46.8166" lon="6.52721">
        <ele>889</ele>
        <time>2016-07-16T08:26:35Z</time>
      </trkpt>
      <trkpt lat="46.81666" lon="6.52714">
        <ele>889</ele>
        <time>2016-07-16T08:26:39Z</time>
      </trkpt>
      <trkpt lat="46.81673" lon="6.52704">
        <ele>883</ele>
        <time>2016-07-16T08:26:44Z</time>
      </trkpt>
      <trkpt lat="46.81681" lon="6.52699">
        <ele>883</ele>
        <time>2016-07-16T08:26:49Z</time>
      </trkpt>
      <trkpt lat="46.81689" lon="6.52693">
        <ele>883</ele>
        <time>2016-07-16T08:26:55Z</time>
      </trkpt>
      <trkpt lat="46.81694" lon="6.52684">
        <ele>884</ele>
        <time>2016-07-16T08:27:00Z</time>
      </trkpt>
      <trkpt lat="46.817" lon="6.52674">
        <ele>884</ele>
        <time>2016-07-16T08:27:06Z</time>
      </trkpt>
      <trkpt lat="46.81704" lon="6.52663">
        <ele>885</ele>
        <time>2016-07-16T08:27:13Z</time>
      </trkpt>
      <trkpt lat="46.81712" lon="6.52657">
        <ele>885</ele>
        <time>2016-07-16T08:27:19Z</time>
      </trkpt>
      <trkpt lat="46.81719" lon="6.52647">
        <ele>885</ele>
        <time>2016-07-16T08:27:23Z</time>
      </trkpt>
      <trkpt lat="46.81724" lon="6.52637">
        <ele>885</ele>
        <time>2016-07-16T08:27:33Z</time>
      </trkpt>
      <trkpt lat="46.8173" lon="6.52635">
        <ele>885</ele>
        <time>2016-07-16T08:27:37Z</time>
      </trkpt>
      <trkpt lat="46.81736" lon="6.5263">
        <ele>885</ele>
        <time>2016-07-16T08:27:42Z</time>
      </trkpt>
      <trkpt lat="46.81741" lon="6.52622">
        <ele>885</ele>
        <time>2016-07-16T08:27:46Z</time>
      </trkpt>
      <trkpt lat="46.81743" lon="6.52611">
        <ele>885</ele>
        <time>2016-07-16T08:27:51Z</time>
      </trkpt>
      <trkpt lat="46.81745" lon="6.52599">
        <ele>884</ele>
        <time>2016-07-16T08:27:56Z</time>
      </trkpt>
      <trkpt lat="46.81749" lon="6.52588">
        <ele>884</ele>
        <time>2016-07-16T08:28:03Z</time>
      </trkpt>
      <trkpt lat="46.81747" lon="6.52576">
        <ele>885</ele>
        <time>2016-07-16T08:28:08Z</time>
      </trkpt>
      <trkpt lat="46.81743" lon="6.52565">
        <ele>887</ele>
        <time>2016-07-16T08:28:14Z</time>
      </trkpt>
      <trkpt lat="46.8175" lon="6.52557">
        <ele>888</ele>
        <time>2016-07-16T08:28:20Z</time>
      </trkpt>
      <trkpt lat="46.81748" lon="6.52545">
        <ele>889</ele>
        <time>2016-07-16T08:28:25Z</time>
      </trkpt>
      <trkpt lat="46.81745" lon="6.52533">
        <ele>890</ele>
        <time>2016-07-16T08:28:31Z</time>
      </trkpt>
      <trkpt lat="46.81742" lon="6.52525">
        <ele>890</ele>
        <time>2016-07-16T08:28:35Z</time>
      </trkpt>
      <trkpt lat="46.81734" lon="6.52513">
        <ele>891</ele>
        <time>2016-07-16T08:28:40Z</time>
      </trkpt>
      <trkpt lat="46.81733" lon="6.52501">
        <ele>891</ele>
        <time>2016-07-16T08:28:44Z</time>
      </trkpt>
      <trkpt lat="46.81735" lon="6.52489">
        <ele>895</ele>
        <time>2016-07-16T08:28:51Z</time>
      </trkpt>
      <trkpt lat="46.81735" lon="6.52482">
        <ele>895</ele>
        <time>2016-07-16T08:28:56Z</time>
      </trkpt>
      <trkpt lat="46.81737" lon="6.5247">
        <ele>897</ele>
        <time>2016-07-16T08:29:14Z</time>
      </trkpt>
      <trkpt lat="46.8174" lon="6.52481">
        <ele>895</ele>
        <time>2016-07-16T08:29:29Z</time>
      </trkpt>
      <trkpt lat="46.81744" lon="6.52474">
        <ele>896</ele>
        <time>2016-07-16T08:30:34Z</time>
      </trkpt>
      <trkpt lat="46.81741" lon="6.52462">
        <ele>897</ele>
        <time>2016-07-16T08:30:38Z</time>
      </trkpt>
      <trkpt lat="46.81738" lon="6.52452">
        <ele>898</ele>
        <time>2016-07-16T08:30:42Z</time>
      </trkpt>
      <trkpt lat="46.81734" lon="6.52441">
        <ele>899</ele>
        <time>2016-07-16T08:30:47Z</time>
      </trkpt>
      <trkpt lat="46.81729" lon="6.52429">
        <ele>900</ele>
        <time>2016-07-16T08:30:51Z</time>
      </trkpt>
      <trkpt lat="46.81727" lon="6.52417">
        <ele>900</ele>
        <time>2016-07-16T08:30:55Z</time>
      </trkpt>
      <trkpt lat="46.81725" lon="6.52398">
        <ele>905</ele>
        <time>2016-07-16T08:31:00Z</time>
      </trkpt>
      <trkpt lat="46.81723" lon="6.52386">
        <ele>906</ele>
        <time>2016-07-16T08:31:05Z</time>
      </trkpt>
      <trkpt lat="46.81724" lon="6.52374">
        <ele>906</ele>
        <time>2016-07-16T08:31:11Z</time>
      </trkpt>
      <trkpt lat="46.81723" lon="6.52362">
        <ele>906</ele>
        <time>2016-07-16T08:31:18Z</time>
      </trkpt>
      <trkpt lat="46.81723" lon="6.52351">
        <ele>907</ele>
        <time>2016-07-16T08:31:24Z</time>
      </trkpt>
      <trkpt lat="46.8172" lon="6.52339">
        <ele>907</ele>
        <time>2016-07-16T08:31:30Z</time>
      </trkpt>
      <trkpt lat="46.81723" lon="6.52327">
        <ele>909</ele>
        <time>2016-07-16T08:31:36Z</time>
      </trkpt>
      <trkpt lat="46.81721" lon="6.52314">
        <ele>909</ele>
        <time>2016-07-16T08:31:40Z</time>
      </trkpt>
      <trkpt lat="46.81722" lon="6.52302">
        <ele>909</ele>
        <time>2016-07-16T08:31:46Z</time>
      </trkpt>
      <trkpt lat="46.81726" lon="6.52295">
        <ele>909</ele>
        <time>2016-07-16T08:31:51Z</time>
      </trkpt>
      <trkpt lat="46.81736" lon="6.52288">
        <ele>909</ele>
        <time>2016-07-16T08:31:55Z</time>
      </trkpt>
      <trkpt lat="46.81739" lon="6.52279">
        <ele>909</ele>
        <time>2016-07-16T08:31:59Z</time>
      </trkpt>
      <trkpt lat="46.81744" lon="6.52269">
        <ele>908</ele>
        <time>2016-07-16T08:32:03Z</time>
      </trkpt>
      <trkpt lat="46.81746" lon="6.52257">
        <ele>907</ele>
        <time>2016-07-16T08:32:08Z</time>
      </trkpt>
      <trkpt lat="46.81748" lon="6.52246">
        <ele>907</ele>
        <time>2016-07-16T08:32:13Z</time>
      </trkpt>
      <trkpt lat="46.81751" lon="6.52234">
        <ele>912</ele>
        <time>2016-07-16T08:32:19Z</time>
      </trkpt>
      <trkpt lat="46.81754" lon="6.52226">
        <ele>914</ele>
        <time>2016-07-16T08:32:23Z</time>
      </trkpt>
      <trkpt lat="46.81762" lon="6.52222">
        <ele>915</ele>
        <time>2016-07-16T08:32:30Z</time>
      </trkpt>
      <trkpt lat="46.81767" lon="6.52229">
        <ele>915</ele>
        <time>2016-07-16T08:32:34Z</time>
      </trkpt>
      <trkpt lat="46.81771" lon="6.52237">
        <ele>915</ele>
        <time>2016-07-16T08:32:38Z</time>
      </trkpt>
      <trkpt lat="46.81775" lon="6.52248">
        <ele>915</ele>
        <time>2016-07-16T08:32:43Z</time>
      </trkpt>
      <trkpt lat="46.81779" lon="6.52258">
        <ele>913</ele>
        <time>2016-07-16T08:32:48Z</time>
      </trkpt>
      <trkpt lat="46.81783" lon="6.5227">
        <ele>914</ele>
        <time>2016-07-16T08:32:54Z</time>
      </trkpt>
      <trkpt lat="46.81786" lon="6.5228">
        <ele>915</ele>
        <time>2016-07-16T08:32:59Z</time>
      </trkpt>
      <trkpt lat="46.81791" lon="6.52289">
        <ele>915</ele>
        <time>2016-07-16T08:33:04Z</time>
      </trkpt>
      <trkpt lat="46.81797" lon="6.52298">
        <ele>916</ele>
        <time>2016-07-16T08:33:09Z</time>
      </trkpt>
      <trkpt lat="46.81806" lon="6.52307">
        <ele>917</ele>
        <time>2016-07-16T08:33:14Z</time>
      </trkpt>
      <trkpt lat="46.81813" lon="6.52313">
        <ele>918</ele>
        <time>2016-07-16T08:33:18Z</time>
      </trkpt>
      <trkpt lat="46.81819" lon="6.5232">
        <ele>919</ele>
        <time>2016-07-16T08:33:23Z</time>
      </trkpt>
      <trkpt lat="46.81824" lon="6.52329">
        <ele>920</ele>
        <time>2016-07-16T08:33:28Z</time>
      </trkpt>
      <trkpt lat="46.81831" lon="6.52338">
        <ele>921</ele>
        <time>2016-07-16T08:33:33Z</time>
      </trkpt>
      <trkpt lat="46.81836" lon="6.52348">
        <ele>926</ele>
        <time>2016-07-16T08:33:39Z</time>
      </trkpt>
      <trkpt lat="46.81842" lon="6.52356">
        <ele>928</ele>
        <time>2016-07-16T08:33:45Z</time>
      </trkpt>
      <trkpt lat="46.81847" lon="6.52367">
        <ele>928</ele>
        <time>2016-07-16T08:33:52Z</time>
      </trkpt>
      <trkpt lat="46.81852" lon="6.52377">
        <ele>929</ele>
        <time>2016-07-16T08:33:58Z</time>
      </trkpt>
      <trkpt lat="46.81857" lon="6.52387">
        <ele>928</ele>
        <time>2016-07-16T08:34:04Z</time>
      </trkpt>
      <trkpt lat="46.81862" lon="6.52397">
        <ele>929</ele>
        <time>2016-07-16T08:34:10Z</time>
      </trkpt>
      <trkpt lat="46.81868" lon="6.52404">
        <ele>929</ele>
        <time>2016-07-16T08:34:15Z</time>
      </trkpt>
      <trkpt lat="46.81875" lon="6.52411">
        <ele>930</ele>
        <time>2016-07-16T08:34:20Z</time>
      </trkpt>
      <trkpt lat="46.8188" lon="6.52416">
        <ele>931</ele>
        <time>2016-07-16T08:34:23Z</time>
      </trkpt>
      <trkpt lat="46.81886" lon="6.52426">
        <ele>927</ele>
        <time>2016-07-16T08:34:27Z</time>
      </trkpt>
      <trkpt lat="46.8189" lon="6.52437">
        <ele>928</ele>
        <time>2016-07-16T08:34:34Z</time>
      </trkpt>
      <trkpt lat="46.81897" lon="6.52429">
        <ele>929</ele>
        <time>2016-07-16T08:34:40Z</time>
      </trkpt>
      <trkpt lat="46.81894" lon="6.52417">
        <ele>929</ele>
        <time>2016-07-16T08:34:45Z</time>
      </trkpt>
      <trkpt lat="46.81892" lon="6.52406">
        <ele>933</ele>
        <time>2016-07-16T08:34:50Z</time>
      </trkpt>
      <trkpt lat="46.81888" lon="6.52392">
        <ele>932</ele>
        <time>2016-07-16T08:34:55Z</time>
      </trkpt>
      <trkpt lat="46.81885" lon="6.52381">
        <ele>932</ele>
        <time>2016-07-16T08:34:59Z</time>
      </trkpt>
      <trkpt lat="46.81882" lon="6.52369">
        <ele>932</ele>
        <time>2016-07-16T08:35:03Z</time>
      </trkpt>
      <trkpt lat="46.81881" lon="6.52357">
        <ele>933</ele>
        <time>2016-07-16T08:35:07Z</time>
      </trkpt>
      <trkpt lat="46.81881" lon="6.52341">
        <ele>934</ele>
        <time>2016-07-16T08:35:12Z</time>
      </trkpt>
      <trkpt lat="46.81885" lon="6.5233">
        <ele>940</ele>
        <time>2016-07-16T08:35:16Z</time>
      </trkpt>
      <trkpt lat="46.81881" lon="6.52318">
        <ele>939</ele>
        <time>2016-07-16T08:35:20Z</time>
      </trkpt>
      <trkpt lat="46.81869" lon="6.52299">
        <ele>938</ele>
        <time>2016-07-16T08:35:25Z</time>
      </trkpt>
      <trkpt lat="46.81861" lon="6.5228">
        <ele>937</ele>
        <time>2016-07-16T08:35:30Z</time>
      </trkpt>
      <trkpt lat="46.8186" lon="6.5227">
        <ele>937</ele>
        <time>2016-07-16T08:35:33Z</time>
      </trkpt>
      <trkpt lat="46.81858" lon="6.52252">
        <ele>936</ele>
        <time>2016-07-16T08:35:38Z</time>
      </trkpt>
      <trkpt lat="46.81857" lon="6.52241">
        <ele>941</ele>
        <time>2016-07-16T08:35:42Z</time>
      </trkpt>
      <trkpt lat="46.81854" lon="6.52229">
        <ele>942</ele>
        <time>2016-07-16T08:35:46Z</time>
      </trkpt>
      <trkpt lat="46.8185" lon="6.52214">
        <ele>944</ele>
        <time>2016-07-16T08:35:51Z</time>
      </trkpt>
      <trkpt lat="46.81845" lon="6.52199">
        <ele>944</ele>
        <time>2016-07-16T08:35:56Z</time>
      </trkpt>
      <trkpt lat="46.81841" lon="6.52183">
        <ele>942</ele>
        <time>2016-07-16T08:36:00Z</time>
      </trkpt>
      <trkpt lat="46.8184" lon="6.52172">
        <ele>939</ele>
        <time>2016-07-16T08:36:04Z</time>
      </trkpt>
      <trkpt lat="46.81839" lon="6.52153">
        <ele>944</ele>
        <time>2016-07-16T08:36:09Z</time>
      </trkpt>
      <trkpt lat="46.81838" lon="6.52138">
        <ele>949</ele>
        <time>2016-07-16T08:36:13Z</time>
      </trkpt>
      <trkpt lat="46.81838" lon="6.52124">
        <ele>950</ele>
        <time>2016-07-16T08:36:17Z</time>
      </trkpt>
      <trkpt lat="46.81837" lon="6.52107">
        <ele>949</ele>
        <time>2016-07-16T08:36:22Z</time>
      </trkpt>
      <trkpt lat="46.81836" lon="6.52093">
        <ele>946</ele>
        <time>2016-07-16T08:36:27Z</time>
      </trkpt>
      <trkpt lat="46.81839" lon="6.5208">
        <ele>946</ele>
        <time>2016-07-16T08:36:32Z</time>
      </trkpt>
      <trkpt lat="46.81837" lon="6.5207">
        <ele>950</ele>
        <time>2016-07-16T08:36:38Z</time>
      </trkpt>
      <trkpt lat="46.81837" lon="6.52059">
        <ele>954</ele>
        <time>2016-07-16T08:36:45Z</time>
      </trkpt>
      <trkpt lat="46.81841" lon="6.52048">
        <ele>956</ele>
        <time>2016-07-16T08:36:49Z</time>
      </trkpt>
      <trkpt lat="46.81839" lon="6.52037">
        <ele>957</ele>
        <time>2016-07-16T08:36:53Z</time>
      </trkpt>
      <trkpt lat="46.81829" lon="6.52002">
        <ele>948</ele>
        <time>2016-07-16T08:36:58Z</time>
      </trkpt>
      <trkpt lat="46.81813" lon="6.51971">
        <ele>949</ele>
        <time>2016-07-16T08:37:03Z</time>
      </trkpt>
      <trkpt lat="46.81802" lon="6.51974">
        <ele>948</ele>
        <time>2016-07-16T08:37:07Z</time>
      </trkpt>
      <trkpt lat="46.81794" lon="6.51978">
        <ele>947</ele>
        <time>2016-07-16T08:37:13Z</time>
      </trkpt>
      <trkpt lat="46.81786" lon="6.51979">
        <ele>946</ele>
        <time>2016-07-16T08:37:17Z</time>
      </trkpt>
      <trkpt lat="46.81781" lon="6.51969">
        <ele>947</ele>
        <time>2016-07-16T08:37:35Z</time>
      </trkpt>
      <trkpt lat="46.81773" lon="6.51967">
        <ele>946</ele>
        <time>2016-07-16T08:37:39Z</time>
      </trkpt>
      <trkpt lat="46.81765" lon="6.51966">
        <ele>946</ele>
        <time>2016-07-16T08:37:43Z</time>
      </trkpt>
      <trkpt lat="46.81755" lon="6.51963">
        <ele>946</ele>
        <time>2016-07-16T08:37:48Z</time>
      </trkpt>
      <trkpt lat="46.81747" lon="6.51967">
        <ele>938</ele>
        <time>2016-07-16T08:37:53Z</time>
      </trkpt>
      <trkpt lat="46.81738" lon="6.51973">
        <ele>938</ele>
        <time>2016-07-16T08:37:57Z</time>
      </trkpt>
      <trkpt lat="46.81729" lon="6.51975">
        <ele>937</ele>
        <time>2016-07-16T08:38:02Z</time>
      </trkpt>
      <trkpt lat="46.81722" lon="6.51969">
        <ele>937</ele>
        <time>2016-07-16T08:38:08Z</time>
      </trkpt>
      <trkpt lat="46.81717" lon="6.51956">
        <ele>938</ele>
        <time>2016-07-16T08:38:13Z</time>
      </trkpt>
      <trkpt lat="46.81712" lon="6.51943">
        <ele>939</ele>
        <time>2016-07-16T08:38:18Z</time>
      </trkpt>
      <trkpt lat="46.81709" lon="6.51931">
        <ele>939</ele>
        <time>2016-07-16T08:38:23Z</time>
      </trkpt>
      <trkpt lat="46.81705" lon="6.5192">
        <ele>939</ele>
        <time>2016-07-16T08:38:28Z</time>
      </trkpt>
      <trkpt lat="46.81701" lon="6.5191">
        <ele>948</ele>
        <time>2016-07-16T08:38:33Z</time>
      </trkpt>
      <trkpt lat="46.81697" lon="6.51899">
        <ele>948</ele>
        <time>2016-07-16T08:38:38Z</time>
      </trkpt>
      <trkpt lat="46.81693" lon="6.51894">
        <ele>948</ele>
        <time>2016-07-16T08:38:41Z</time>
      </trkpt>
      <trkpt lat="46.81686" lon="6.51882">
        <ele>949</ele>
        <time>2016-07-16T08:38:46Z</time>
      </trkpt>
      <trkpt lat="46.81681" lon="6.51874">
        <ele>950</ele>
        <time>2016-07-16T08:38:50Z</time>
      </trkpt>
      <trkpt lat="46.81676" lon="6.51864">
        <ele>950</ele>
        <time>2016-07-16T08:38:55Z</time>
      </trkpt>
      <trkpt lat="46.81673" lon="6.51854">
        <ele>951</ele>
        <time>2016-07-16T08:39:00Z</time>
      </trkpt>
      <trkpt lat="46.8167" lon="6.51844">
        <ele>952</ele>
        <time>2016-07-16T08:39:04Z</time>
      </trkpt>
      <trkpt lat="46.81665" lon="6.51834">
        <ele>952</ele>
        <time>2016-07-16T08:39:08Z</time>
      </trkpt>
      <trkpt lat="46.81663" lon="6.51824">
        <ele>954</ele>
        <time>2016-07-16T08:39:12Z</time>
      </trkpt>
      <trkpt lat="46.81659" lon="6.51812">
        <ele>955</ele>
        <time>2016-07-16T08:39:17Z</time>
      </trkpt>
      <trkpt lat="46.81659" lon="6.51804">
        <ele>955</ele>
        <time>2016-07-16T08:39:21Z</time>
      </trkpt>
      <trkpt lat="46.81655" lon="6.51794">
        <ele>956</ele>
        <time>2016-07-16T08:39:26Z</time>
      </trkpt>
      <trkpt lat="46.81651" lon="6.51784">
        <ele>957</ele>
        <time>2016-07-16T08:39:31Z</time>
      </trkpt>
      <trkpt lat="46.81647" lon="6.51773">
        <ele>958</ele>
        <time>2016-07-16T08:39:36Z</time>
      </trkpt>
      <trkpt lat="46.81644" lon="6.51761">
        <ele>959</ele>
        <time>2016-07-16T08:39:41Z</time>
      </trkpt>
      <trkpt lat="46.81641" lon="6.51749">
        <ele>964</ele>
        <time>2016-07-16T08:39:46Z</time>
      </trkpt>
      <trkpt lat="46.81637" lon="6.51736">
        <ele>964</ele>
        <time>2016-07-16T08:39:51Z</time>
      </trkpt>
      <trkpt lat="46.81634" lon="6.51725">
        <ele>964</ele>
        <time>2016-07-16T08:39:55Z</time>
      </trkpt>
      <trkpt lat="46.81632" lon="6.51715">
        <ele>965</ele>
        <time>2016-07-16T08:39:59Z</time>
      </trkpt>
      <trkpt lat="46.8163" lon="6.51704">
        <ele>965</ele>
        <time>2016-07-16T08:40:03Z</time>
      </trkpt>
      <trkpt lat="46.81626" lon="6.51694">
        <ele>965</ele>
        <time>2016-07-16T08:40:07Z</time>
      </trkpt>
      <trkpt lat="46.81622" lon="6.51682">
        <ele>965</ele>
        <time>2016-07-16T08:40:12Z</time>
      </trkpt>
      <trkpt lat="46.81618" lon="6.51669">
        <ele>965</ele>
        <time>2016-07-16T08:40:17Z</time>
      </trkpt>
      <trkpt lat="46.81615" lon="6.51656">
        <ele>970</ele>
        <time>2016-07-16T08:40:22Z</time>
      </trkpt>
      <trkpt lat="46.81612" lon="6.51646">
        <ele>970</ele>
        <time>2016-07-16T08:40:26Z</time>
      </trkpt>
      <trkpt lat="46.81608" lon="6.51633">
        <ele>971</ele>
        <time>2016-07-16T08:40:30Z</time>
      </trkpt>
      <trkpt lat="46.81605" lon="6.51621">
        <ele>971</ele>
        <time>2016-07-16T08:40:35Z</time>
      </trkpt>
      <trkpt lat="46.81602" lon="6.51609">
        <ele>972</ele>
        <time>2016-07-16T08:40:41Z</time>
      </trkpt>
      <trkpt lat="46.81599" lon="6.51598">
        <ele>972</ele>
        <time>2016-07-16T08:40:46Z</time>
      </trkpt>
      <trkpt lat="46.81595" lon="6.51586">
        <ele>972</ele>
        <time>2016-07-16T08:40:51Z</time>
      </trkpt>
      <trkpt lat="46.81591" lon="6.51574">
        <ele>975</ele>
        <time>2016-07-16T08:40:56Z</time>
      </trkpt>
      <trkpt lat="46.81586" lon="6.51563">
        <ele>977</ele>
        <time>2016-07-16T08:41:01Z</time>
      </trkpt>
      <trkpt lat="46.8158" lon="6.51554">
        <ele>975</ele>
        <time>2016-07-16T08:41:06Z</time>
      </trkpt>
      <trkpt lat="46.81573" lon="6.51545">
        <ele>976</ele>
        <time>2016-07-16T08:41:10Z</time>
      </trkpt>
      <trkpt lat="46.81567" lon="6.51536">
        <ele>977</ele>
        <time>2016-07-16T08:41:16Z</time>
      </trkpt>
      <trkpt lat="46.81562" lon="6.51527">
        <ele>978</ele>
        <time>2016-07-16T08:41:21Z</time>
      </trkpt>
      <trkpt lat="46.81556" lon="6.51516">
        <ele>978</ele>
        <time>2016-07-16T08:41:25Z</time>
      </trkpt>
      <trkpt lat="46.81549" lon="6.51506">
        <ele>978</ele>
        <time>2016-07-16T08:41:30Z</time>
      </trkpt>
      <trkpt lat="46.81544" lon="6.515">
        <ele>986</ele>
        <time>2016-07-16T08:41:34Z</time>
      </trkpt>
      <trkpt lat="46.81538" lon="6.51492">
        <ele>986</ele>
        <time>2016-07-16T08:41:38Z</time>
      </trkpt>
      <trkpt lat="46.81532" lon="6.51483">
        <ele>986</ele>
        <time>2016-07-16T08:41:43Z</time>
      </trkpt>
      <trkpt lat="46.81525" lon="6.51476">
        <ele>987</ele>
        <time>2016-07-16T08:41:48Z</time>
      </trkpt>
      <trkpt lat="46.8152" lon="6.51468">
        <ele>987</ele>
        <time>2016-07-16T08:41:53Z</time>
      </trkpt>
      <trkpt lat="46.81514" lon="6.51459">
        <ele>988</ele>
        <time>2016-07-16T08:41:59Z</time>
      </trkpt>
      <trkpt lat="46.81507" lon="6.51452">
        <ele>989</ele>
        <time>2016-07-16T08:42:04Z</time>
      </trkpt>
      <trkpt lat="46.81502" lon="6.51443">
        <ele>990</ele>
        <time>2016-07-16T08:42:09Z</time>
      </trkpt>
      <trkpt lat="46.81495" lon="6.51436">
        <ele>991</ele>
        <time>2016-07-16T08:42:14Z</time>
      </trkpt>
      <trkpt lat="46.81488" lon="6.5143">
        <ele>992</ele>
        <time>2016-07-16T08:42:20Z</time>
      </trkpt>
      <trkpt lat="46.81482" lon="6.51421">
        <ele>992</ele>
        <time>2016-07-16T08:42:26Z</time>
      </trkpt>
      <trkpt lat="46.81481" lon="6.51409">
        <ele>998</ele>
        <time>2016-07-16T08:42:33Z</time>
      </trkpt>
      <trkpt lat="46.81475" lon="6.51402">
        <ele>999</ele>
        <time>2016-07-16T08:42:39Z</time>
      </trkpt>
      <trkpt lat="46.8147" lon="6.51393">
        <ele>1000</ele>
        <time>2016-07-16T08:42:46Z</time>
      </trkpt>
      <trkpt lat="46.81465" lon="6.51382">
        <ele>1001</ele>
        <time>2016-07-16T08:42:53Z</time>
      </trkpt>
      <trkpt lat="46.81462" lon="6.51372">
        <ele>1002</ele>
        <time>2016-07-16T08:42:59Z</time>
      </trkpt>
      <trkpt lat="46.81457" lon="6.51363">
        <ele>1002</ele>
        <time>2016-07-16T08:43:04Z</time>
      </trkpt>
      <trkpt lat="46.81451" lon="6.5135">
        <ele>1003</ele>
        <time>2016-07-16T08:43:08Z</time>
      </trkpt>
      <trkpt lat="46.81449" lon="6.51339">
        <ele>1004</ele>
        <time>2016-07-16T08:43:13Z</time>
      </trkpt>
      <trkpt lat="46.81445" lon="6.51327">
        <ele>1010</ele>
        <time>2016-07-16T08:43:19Z</time>
      </trkpt>
      <trkpt lat="46.81443" lon="6.51316">
        <ele>1010</ele>
        <time>2016-07-16T08:43:24Z</time>
      </trkpt>
      <trkpt lat="46.8144" lon="6.51307">
        <ele>1010</ele>
        <time>2016-07-16T08:43:30Z</time>
      </trkpt>
      <trkpt lat="46.81437" lon="6.51295">
        <ele>1011</ele>
        <time>2016-07-16T08:43:36Z</time>
      </trkpt>
      <trkpt lat="46.81435" lon="6.51284">
        <ele>1011</ele>
        <time>2016-07-16T08:43:42Z</time>
      </trkpt>
      <trkpt lat="46.81432" lon="6.51272">
        <ele>1012</ele>
        <time>2016-07-16T08:43:47Z</time>
      </trkpt>
      <trkpt lat="46.81428" lon="6.51262">
        <ele>1013</ele>
        <time>2016-07-16T08:43:52Z</time>
      </trkpt>
      <trkpt lat="46.81425" lon="6.51252">
        <ele>1013</ele>
        <time>2016-07-16T08:43:57Z</time>
      </trkpt>
      <trkpt lat="46.8142" lon="6.51243">
        <ele>1015</ele>
        <time>2016-07-16T08:44:02Z</time>
      </trkpt>
      <trkpt lat="46.81416" lon="6.51233">
        <ele>1016</ele>
        <time>2016-07-16T08:44:07Z</time>
      </trkpt>
      <trkpt lat="46.81413" lon="6.51223">
        <ele>1017</ele>
        <time>2016-07-16T08:44:12Z</time>
      </trkpt>
      <trkpt lat="46.81412" lon="6.5121">
        <ele>1017</ele>
        <time>2016-07-16T08:44:18Z</time>
      </trkpt>
      <trkpt lat="46.81418" lon="6.512">
        <ele>1016</ele>
        <time>2016-07-16T08:44:23Z</time>
      </trkpt>
      <trkpt lat="46.81425" lon="6.51191">
        <ele>1017</ele>
        <time>2016-07-16T08:44:27Z</time>
      </trkpt>
      <trkpt lat="46.81432" lon="6.51184">
        <ele>1017</ele>
        <time>2016-07-16T08:44:31Z</time>
      </trkpt>
      <trkpt lat="46.81434" lon="6.51174">
        <ele>1017</ele>
        <time>2016-07-16T08:44:35Z</time>
      </trkpt>
      <trkpt lat="46.8143" lon="6.51161">
        <ele>1019</ele>
        <time>2016-07-16T08:44:40Z</time>
      </trkpt>
      <trkpt lat="46.81427" lon="6.5115">
        <ele>1020</ele>
        <time>2016-07-16T08:44:44Z</time>
      </trkpt>
      <trkpt lat="46.81425" lon="6.51139">
        <ele>1020</ele>
        <time>2016-07-16T08:44:48Z</time>
      </trkpt>
      <trkpt lat="46.81422" lon="6.51126">
        <ele>1021</ele>
        <time>2016-07-16T08:44:53Z</time>
      </trkpt>
      <trkpt lat="46.81421" lon="6.51113">
        <ele>1021</ele>
        <time>2016-07-16T08:44:58Z</time>
      </trkpt>
      <trkpt lat="46.81419" lon="6.51103">
        <ele>1021</ele>
        <time>2016-07-16T08:45:02Z</time>
      </trkpt>
      <trkpt lat="46.81417" lon="6.51095">
        <ele>1021</ele>
        <time>2016-07-16T08:45:05Z</time>
      </trkpt>
      <trkpt lat="46.81413" lon="6.51081">
        <ele>1022</ele>
        <time>2016-07-16T08:45:10Z</time>
      </trkpt>
      <trkpt lat="46.81411" lon="6.5107">
        <ele>1023</ele>
        <time>2016-07-16T08:45:14Z</time>
      </trkpt>
      <trkpt lat="46.81407" lon="6.51055">
        <ele>1025</ele>
        <time>2016-07-16T08:45:19Z</time>
      </trkpt>
      <trkpt lat="46.81406" lon="6.51046">
        <ele>1026</ele>
        <time>2016-07-16T08:45:22Z</time>
      </trkpt>
      <trkpt lat="46.81402" lon="6.51033">
        <ele>1026</ele>
        <time>2016-07-16T08:45:27Z</time>
      </trkpt>
      <trkpt lat="46.81399" lon="6.51021">
        <ele>1027</ele>
        <time>2016-07-16T08:45:31Z</time>
      </trkpt>
      <trkpt lat="46.81396" lon="6.51007">
        <ele>1028</ele>
        <time>2016-07-16T08:45:36Z</time>
      </trkpt>
      <trkpt lat="46.81394" lon="6.50995">
        <ele>1031</ele>
        <time>2016-07-16T08:45:40Z</time>
      </trkpt>
      <trkpt lat="46.81391" lon="6.50979">
        <ele>1031</ele>
        <time>2016-07-16T08:45:45Z</time>
      </trkpt>
      <trkpt lat="46.81388" lon="6.50963">
        <ele>1032</ele>
        <time>2016-07-16T08:45:49Z</time>
      </trkpt>
      <trkpt lat="46.81386" lon="6.5095">
        <ele>1032</ele>
        <time>2016-07-16T08:45:54Z</time>
      </trkpt>
      <trkpt lat="46.81383" lon="6.50938">
        <ele>1033</ele>
        <time>2016-07-16T08:45:58Z</time>
      </trkpt>
      <trkpt lat="46.81381" lon="6.50926">
        <ele>1033</ele>
        <time>2016-07-16T08:46:03Z</time>
      </trkpt>
      <trkpt lat="46.81378" lon="6.50912">
        <ele>1036</ele>
        <time>2016-07-16T08:46:07Z</time>
      </trkpt>
      <trkpt lat="46.81374" lon="6.50897">
        <ele>1036</ele>
        <time>2016-07-16T08:46:12Z</time>
      </trkpt>
      <trkpt lat="46.81373" lon="6.50881">
        <ele>1036</ele>
        <time>2016-07-16T08:46:17Z</time>
      </trkpt>
      <trkpt lat="46.8137" lon="6.5087">
        <ele>1036</ele>
        <time>2016-07-16T08:46:21Z</time>
      </trkpt>
      <trkpt lat="46.81367" lon="6.50855">
        <ele>1037</ele>
        <time>2016-07-16T08:46:26Z</time>
      </trkpt>
      <trkpt lat="46.81365" lon="6.50842">
        <ele>1037</ele>
        <time>2016-07-16T08:46:30Z</time>
      </trkpt>
      <trkpt lat="46.81367" lon="6.50829">
        <ele>1037</ele>
        <time>2016-07-16T08:46:35Z</time>
      </trkpt>
      <trkpt lat="46.81373" lon="6.50821">
        <ele>1037</ele>
        <time>2016-07-16T08:46:41Z</time>
      </trkpt>
      <trkpt lat="46.81381" lon="6.50816">
        <ele>1037</ele>
        <time>2016-07-16T08:46:46Z</time>
      </trkpt>
      <trkpt lat="46.81391" lon="6.5081">
        <ele>1037</ele>
        <time>2016-07-16T08:46:50Z</time>
      </trkpt>
      <trkpt lat="46.81405" lon="6.50801">
        <ele>1036</ele>
        <time>2016-07-16T08:46:55Z</time>
      </trkpt>
      <trkpt lat="46.81421" lon="6.50795">
        <ele>1040</ele>
        <time>2016-07-16T08:47:00Z</time>
      </trkpt>
      <trkpt lat="46.81434" lon="6.50789">
        <ele>1040</ele>
        <time>2016-07-16T08:47:04Z</time>
      </trkpt>
      <trkpt lat="46.81446" lon="6.50783">
        <ele>1041</ele>
        <time>2016-07-16T08:47:08Z</time>
      </trkpt>
      <trkpt lat="46.81458" lon="6.50777">
        <ele>1042</ele>
        <time>2016-07-16T08:47:13Z</time>
      </trkpt>
      <trkpt lat="46.81462" lon="6.50766">
        <ele>1042</ele>
        <time>2016-07-16T08:47:17Z</time>
      </trkpt>
      <trkpt lat="46.81465" lon="6.50754">
        <ele>1042</ele>
        <time>2016-07-16T08:47:21Z</time>
      </trkpt>
      <trkpt lat="46.81473" lon="6.50737">
        <ele>1040</ele>
        <time>2016-07-16T08:47:26Z</time>
      </trkpt>
      <trkpt lat="46.81482" lon="6.50723">
        <ele>1039</ele>
        <time>2016-07-16T08:47:30Z</time>
      </trkpt>
      <trkpt lat="46.81495" lon="6.50712">
        <ele>1039</ele>
        <time>2016-07-16T08:47:34Z</time>
      </trkpt>
      <trkpt lat="46.81507" lon="6.50705">
        <ele>1046</ele>
        <time>2016-07-16T08:47:38Z</time>
      </trkpt>
      <trkpt lat="46.81499" lon="6.50701">
        <ele>1038</ele>
        <time>2016-07-16T08:50:25Z</time>
      </trkpt>
      <trkpt lat="46.81503" lon="6.50701">
        <ele>1045</ele>
        <time>2016-07-16T08:52:40Z</time>
      </trkpt>
      <trkpt lat="46.81517" lon="6.50687">
        <ele>1045</ele>
        <time>2016-07-16T08:52:44Z</time>
      </trkpt>
      <trkpt lat="46.81525" lon="6.50671">
        <ele>1045</ele>
        <time>2016-07-16T08:52:48Z</time>
      </trkpt>
      <trkpt lat="46.81534" lon="6.50653">
        <ele>1041</ele>
        <time>2016-07-16T08:52:52Z</time>
      </trkpt>
      <trkpt lat="46.81548" lon="6.50634">
        <ele>1041</ele>
        <time>2016-07-16T08:52:56Z</time>
      </trkpt>
      <trkpt lat="46.8156" lon="6.50618">
        <ele>1041</ele>
        <time>2016-07-16T08:53:00Z</time>
      </trkpt>
      <trkpt lat="46.81568" lon="6.50603">
        <ele>1041</ele>
        <time>2016-07-16T08:53:04Z</time>
      </trkpt>
      <trkpt lat="46.81579" lon="6.50584">
        <ele>1042</ele>
        <time>2016-07-16T08:53:09Z</time>
      </trkpt>
      <trkpt lat="46.81589" lon="6.50564">
        <ele>1044</ele>
        <time>2016-07-16T08:53:14Z</time>
      </trkpt>
      <trkpt lat="46.81599" lon="6.50547">
        <ele>1045</ele>
        <time>2016-07-16T08:53:19Z</time>
      </trkpt>
      <trkpt lat="46.81608" lon="6.5053">
        <ele>1045</ele>
        <time>2016-07-16T08:53:24Z</time>
      </trkpt>
      <trkpt lat="46.81614" lon="6.50512">
        <ele>1045</ele>
        <time>2016-07-16T08:53:29Z</time>
      </trkpt>
      <trkpt lat="46.8162" lon="6.50492">
        <ele>1043</ele>
        <time>2016-07-16T08:53:34Z</time>
      </trkpt>
      <trkpt lat="46.81624" lon="6.50477">
        <ele>1044</ele>
        <time>2016-07-16T08:53:38Z</time>
      </trkpt>
      <trkpt lat="46.81626" lon="6.50462">
        <ele>1044</ele>
        <time>2016-07-16T08:53:42Z</time>
      </trkpt>
      <trkpt lat="46.8163" lon="6.50442">
        <ele>1044</ele>
        <time>2016-07-16T08:53:46Z</time>
      </trkpt>
      <trkpt lat="46.81634" lon="6.50417">
        <ele>1044</ele>
        <time>2016-07-16T08:53:51Z</time>
      </trkpt>
      <trkpt lat="46.81637" lon="6.50394">
        <ele>1044</ele>
        <time>2016-07-16T08:53:56Z</time>
      </trkpt>
      <trkpt lat="46.8164" lon="6.50367">
        <ele>1044</ele>
        <time>2016-07-16T08:54:01Z</time>
      </trkpt>
      <trkpt lat="46.8164" lon="6.50338">
        <ele>1044</ele>
        <time>2016-07-16T08:54:05Z</time>
      </trkpt>
      <trkpt lat="46.8164" lon="6.50303">
        <ele>1043</ele>
        <time>2016-07-16T08:54:10Z</time>
      </trkpt>
      <trkpt lat="46.81636" lon="6.50276">
        <ele>1042</ele>
        <time>2016-07-16T08:54:13Z</time>
      </trkpt>
      <trkpt lat="46.81629" lon="6.50235">
        <ele>1041</ele>
        <time>2016-07-16T08:54:17Z</time>
      </trkpt>
      <trkpt lat="46.81623" lon="6.50187">
        <ele>1041</ele>
        <time>2016-07-16T08:54:22Z</time>
      </trkpt>
      <trkpt lat="46.81617" lon="6.50154">
        <ele>1042</ele>
        <time>2016-07-16T08:54:26Z</time>
      </trkpt>
      <trkpt lat="46.81615" lon="6.50124">
        <ele>1042</ele>
        <time>2016-07-16T08:54:31Z</time>
      </trkpt>
      <trkpt lat="46.81615" lon="6.50111">
        <ele>1042</ele>
        <time>2016-07-16T08:54:34Z</time>
      </trkpt>
      <trkpt lat="46.81612" lon="6.50088">
        <ele>1042</ele>
        <time>2016-07-16T08:54:39Z</time>
      </trkpt>
      <trkpt lat="46.81611" lon="6.5007">
        <ele>1043</ele>
        <time>2016-07-16T08:54:43Z</time>
      </trkpt>
      <trkpt lat="46.81608" lon="6.50045">
        <ele>1044</ele>
        <time>2016-07-16T08:54:48Z</time>
      </trkpt>
      <trkpt lat="46.81605" lon="6.50026">
        <ele>1044</ele>
        <time>2016-07-16T08:54:52Z</time>
      </trkpt>
      <trkpt lat="46.81604" lon="6.50003">
        <ele>1044</ele>
        <time>2016-07-16T08:54:57Z</time>
      </trkpt>
      <trkpt lat="46.81604" lon="6.49987">
        <ele>1045</ele>
        <time>2016-07-16T08:55:01Z</time>
      </trkpt>
      <trkpt lat="46.81602" lon="6.49971">
        <ele>1045</ele>
        <time>2016-07-16T08:55:05Z</time>
      </trkpt>
      <trkpt lat="46.81598" lon="6.49947">
        <ele>1046</ele>
        <time>2016-07-16T08:55:10Z</time>
      </trkpt>
      <trkpt lat="46.8159" lon="6.49922">
        <ele>1045</ele>
        <time>2016-07-16T08:55:14Z</time>
      </trkpt>
      <trkpt lat="46.81583" lon="6.49906">
        <ele>1043</ele>
        <time>2016-07-16T08:55:19Z</time>
      </trkpt>
      <trkpt lat="46.81576" lon="6.49887">
        <ele>1042</ele>
        <time>2016-07-16T08:55:23Z</time>
      </trkpt>
      <trkpt lat="46.81569" lon="6.49869">
        <ele>1042</ele>
        <time>2016-07-16T08:55:27Z</time>
      </trkpt>
      <trkpt lat="46.81561" lon="6.49853">
        <ele>1042</ele>
        <time>2016-07-16T08:55:31Z</time>
      </trkpt>
      <trkpt lat="46.81553" lon="6.49836">
        <ele>1042</ele>
        <time>2016-07-16T08:55:36Z</time>
      </trkpt>
      <trkpt lat="46.81542" lon="6.49821">
        <ele>1041</ele>
        <time>2016-07-16T08:55:40Z</time>
      </trkpt>
      <trkpt lat="46.81525" lon="6.49795">
        <ele>1040</ele>
        <time>2016-07-16T08:55:44Z</time>
      </trkpt>
      <trkpt lat="46.81515" lon="6.49758">
        <ele>1039</ele>
        <time>2016-07-16T08:55:48Z</time>
      </trkpt>
      <trkpt lat="46.81506" lon="6.49707">
        <ele>1041</ele>
        <time>2016-07-16T08:55:52Z</time>
      </trkpt>
      <trkpt lat="46.81515" lon="6.49671">
        <ele>1041</ele>
        <time>2016-07-16T08:55:57Z</time>
      </trkpt>
      <trkpt lat="46.81512" lon="6.49653">
        <ele>1042</ele>
        <time>2016-07-16T08:56:01Z</time>
      </trkpt>
      <trkpt lat="46.81513" lon="6.49637">
        <ele>1042</ele>
        <time>2016-07-16T08:56:05Z</time>
      </trkpt>
      <trkpt lat="46.81508" lon="6.49622">
        <ele>1042</ele>
        <time>2016-07-16T08:56:10Z</time>
      </trkpt>
      <trkpt lat="46.81499" lon="6.49612">
        <ele>1044</ele>
        <time>2016-07-16T08:56:15Z</time>
      </trkpt>
      <trkpt lat="46.81491" lon="6.49602">
        <ele>1044</ele>
        <time>2016-07-16T08:56:20Z</time>
      </trkpt>
      <trkpt lat="46.81485" lon="6.49593">
        <ele>1044</ele>
        <time>2016-07-16T08:56:24Z</time>
      </trkpt>
      <trkpt lat="46.81476" lon="6.49587">
        <ele>1045</ele>
        <time>2016-07-16T08:56:28Z</time>
      </trkpt>
      <trkpt lat="46.81466" lon="6.49577">
        <ele>1045</ele>
        <time>2016-07-16T08:56:33Z</time>
      </trkpt>
      <trkpt lat="46.81458" lon="6.49565">
        <ele>1046</ele>
        <time>2016-07-16T08:56:38Z</time>
      </trkpt>
      <trkpt lat="46.81448" lon="6.49558">
        <ele>1046</ele>
        <time>2016-07-16T08:56:43Z</time>
      </trkpt>
      <trkpt lat="46.81441" lon="6.49551">
        <ele>1046</ele>
        <time>2016-07-16T08:56:48Z</time>
      </trkpt>
      <trkpt lat="46.81433" lon="6.4955">
        <ele>1047</ele>
        <time>2016-07-16T08:56:54Z</time>
      </trkpt>
      <trkpt lat="46.81425" lon="6.49553">
        <ele>1047</ele>
        <time>2016-07-16T08:56:59Z</time>
      </trkpt>
      <trkpt lat="46.81418" lon="6.49558">
        <ele>1047</ele>
        <time>2016-07-16T08:57:05Z</time>
      </trkpt>
      <trkpt lat="46.8141" lon="6.49558">
        <ele>1052</ele>
        <time>2016-07-16T08:57:09Z</time>
      </trkpt>
      <trkpt lat="46.814" lon="6.49559">
        <ele>1052</ele>
        <time>2016-07-16T08:57:14Z</time>
      </trkpt>
      <trkpt lat="46.81392" lon="6.49558">
        <ele>1052</ele>
        <time>2016-07-16T08:57:18Z</time>
      </trkpt>
      <trkpt lat="46.81383" lon="6.49556">
        <ele>1052</ele>
        <time>2016-07-16T08:57:22Z</time>
      </trkpt>
      <trkpt lat="46.81375" lon="6.49554">
        <ele>1053</ele>
        <time>2016-07-16T08:57:26Z</time>
      </trkpt>
      <trkpt lat="46.81368" lon="6.49551">
        <ele>1053</ele>
        <time>2016-07-16T08:57:30Z</time>
      </trkpt>
      <trkpt lat="46.81362" lon="6.49547">
        <ele>1053</ele>
        <time>2016-07-16T08:57:34Z</time>
      </trkpt>
      <trkpt lat="46.81359" lon="6.49545">
        <ele>1054</ele>
        <time>2016-07-16T08:57:39Z</time>
      </trkpt>
      <trkpt lat="46.81348" lon="6.4954">
        <ele>1054</ele>
        <time>2016-07-16T08:57:43Z</time>
      </trkpt>
      <trkpt lat="46.8134" lon="6.49536">
        <ele>1055</ele>
        <time>2016-07-16T08:57:48Z</time>
      </trkpt>
      <trkpt lat="46.81332" lon="6.49531">
        <ele>1058</ele>
        <time>2016-07-16T08:57:55Z</time>
      </trkpt>
      <trkpt lat="46.81327" lon="6.49526">
        <ele>1058</ele>
        <time>2016-07-16T08:58:00Z</time>
      </trkpt>
      <trkpt lat="46.8132" lon="6.49522">
        <ele>1058</ele>
        <time>2016-07-16T08:58:04Z</time>
      </trkpt>
      <trkpt lat="46.81309" lon="6.49515">
        <ele>1059</ele>
        <time>2016-07-16T08:58:08Z</time>
      </trkpt>
      <trkpt lat="46.81304" lon="6.49506">
        <ele>1059</ele>
        <time>2016-07-16T08:58:14Z</time>
      </trkpt>
      <trkpt lat="46.81299" lon="6.49497">
        <ele>1064</ele>
        <time>2016-07-16T08:58:19Z</time>
      </trkpt>
      <trkpt lat="46.81291" lon="6.49491">
        <ele>1064</ele>
        <time>2016-07-16T08:58:24Z</time>
      </trkpt>
      <trkpt lat="46.81283" lon="6.4949">
        <ele>1064</ele>
        <time>2016-07-16T08:58:30Z</time>
      </trkpt>
      <trkpt lat="46.81275" lon="6.49487">
        <ele>1065</ele>
        <time>2016-07-16T08:58:34Z</time>
      </trkpt>
      <trkpt lat="46.81268" lon="6.49481">
        <ele>1065</ele>
        <time>2016-07-16T08:58:39Z</time>
      </trkpt>
      <trkpt lat="46.8126" lon="6.49475">
        <ele>1066</ele>
        <time>2016-07-16T08:58:45Z</time>
      </trkpt>
      <trkpt lat="46.81253" lon="6.4947">
        <ele>1066</ele>
        <time>2016-07-16T08:58:50Z</time>
      </trkpt>
      <trkpt lat="46.81247" lon="6.49463">
        <ele>1071</ele>
        <time>2016-07-16T08:58:55Z</time>
      </trkpt>
      <trkpt lat="46.8124" lon="6.49456">
        <ele>1072</ele>
        <time>2016-07-16T08:59:00Z</time>
      </trkpt>
      <trkpt lat="46.81236" lon="6.49445">
        <ele>1074</ele>
        <time>2016-07-16T08:59:05Z</time>
      </trkpt>
      <trkpt lat="46.81229" lon="6.49438">
        <ele>1074</ele>
        <time>2016-07-16T08:59:12Z</time>
      </trkpt>
      <trkpt lat="46.81223" lon="6.49432">
        <ele>1075</ele>
        <time>2016-07-16T08:59:18Z</time>
      </trkpt>
      <trkpt lat="46.81216" lon="6.49425">
        <ele>1076</ele>
        <time>2016-07-16T08:59:23Z</time>
      </trkpt>
      <trkpt lat="46.81208" lon="6.49421">
        <ele>1076</ele>
        <time>2016-07-16T08:59:28Z</time>
      </trkpt>
      <trkpt lat="46.812" lon="6.49418">
        <ele>1077</ele>
        <time>2016-07-16T08:59:35Z</time>
      </trkpt>
      <trkpt lat="46.81194" lon="6.49413">
        <ele>1087</ele>
        <time>2016-07-16T08:59:40Z</time>
      </trkpt>
      <trkpt lat="46.81187" lon="6.49408">
        <ele>1087</ele>
        <time>2016-07-16T08:59:44Z</time>
      </trkpt>
      <trkpt lat="46.81179" lon="6.49402">
        <ele>1087</ele>
        <time>2016-07-16T08:59:49Z</time>
      </trkpt>
      <trkpt lat="46.81174" lon="6.49392">
        <ele>1088</ele>
        <time>2016-07-16T08:59:56Z</time>
      </trkpt>
      <trkpt lat="46.81167" lon="6.4939">
        <ele>1088</ele>
        <time>2016-07-16T08:59:59Z</time>
      </trkpt>
      <trkpt lat="46.8116" lon="6.4939">
        <ele>1092</ele>
        <time>2016-07-16T09:00:04Z</time>
      </trkpt>
      <trkpt lat="46.81152" lon="6.49388">
        <ele>1092</ele>
        <time>2016-07-16T09:00:10Z</time>
      </trkpt>
      <trkpt lat="46.81144" lon="6.49383">
        <ele>1092</ele>
        <time>2016-07-16T09:00:15Z</time>
      </trkpt>
      <trkpt lat="46.81137" lon="6.49375">
        <ele>1093</ele>
        <time>2016-07-16T09:00:23Z</time>
      </trkpt>
      <trkpt lat="46.81133" lon="6.49368">
        <ele>1094</ele>
        <time>2016-07-16T09:00:28Z</time>
      </trkpt>
      <trkpt lat="46.81128" lon="6.49358">
        <ele>1094</ele>
        <time>2016-07-16T09:00:33Z</time>
      </trkpt>
      <trkpt lat="46.8112" lon="6.49352">
        <ele>1095</ele>
        <time>2016-07-16T09:00:38Z</time>
      </trkpt>
      <trkpt lat="46.8111" lon="6.49348">
        <ele>1095</ele>
        <time>2016-07-16T09:00:42Z</time>
      </trkpt>
      <trkpt lat="46.81104" lon="6.49341">
        <ele>1096</ele>
        <time>2016-07-16T09:00:48Z</time>
      </trkpt>
      <trkpt lat="46.81097" lon="6.49334">
        <ele>1097</ele>
        <time>2016-07-16T09:00:53Z</time>
      </trkpt>
      <trkpt lat="46.8109" lon="6.49329">
        <ele>1102</ele>
        <time>2016-07-16T09:01:00Z</time>
      </trkpt>
      <trkpt lat="46.81082" lon="6.49326">
        <ele>1101</ele>
        <time>2016-07-16T09:01:05Z</time>
      </trkpt>
      <trkpt lat="46.81075" lon="6.49323">
        <ele>1103</ele>
        <time>2016-07-16T09:01:09Z</time>
      </trkpt>
      <trkpt lat="46.8107" lon="6.49321">
        <ele>1104</ele>
        <time>2016-07-16T09:01:13Z</time>
      </trkpt>
      <trkpt lat="46.81063" lon="6.49307">
        <ele>1106</ele>
        <time>2016-07-16T09:01:21Z</time>
      </trkpt>
      <trkpt lat="46.81056" lon="6.49302">
        <ele>1107</ele>
        <time>2016-07-16T09:01:25Z</time>
      </trkpt>
      <trkpt lat="46.81051" lon="6.49293">
        <ele>1108</ele>
        <time>2016-07-16T09:01:30Z</time>
      </trkpt>
      <trkpt lat="46.81046" lon="6.49284">
        <ele>1109</ele>
        <time>2016-07-16T09:01:36Z</time>
      </trkpt>
      <trkpt lat="46.81039" lon="6.49279">
        <ele>1110</ele>
        <time>2016-07-16T09:01:40Z</time>
      </trkpt>
      <trkpt lat="46.81031" lon="6.49273">
        <ele>1110</ele>
        <time>2016-07-16T09:01:45Z</time>
      </trkpt>
      <trkpt lat="46.81024" lon="6.49265">
        <ele>1111</ele>
        <time>2016-07-16T09:01:52Z</time>
      </trkpt>
      <trkpt lat="46.8102" lon="6.49254">
        <ele>1112</ele>
        <time>2016-07-16T09:01:58Z</time>
      </trkpt>
      <trkpt lat="46.81016" lon="6.49247">
        <ele>1121</ele>
        <time>2016-07-16T09:02:02Z</time>
      </trkpt>
      <trkpt lat="46.81011" lon="6.49233">
        <ele>1123</ele>
        <time>2016-07-16T09:02:07Z</time>
      </trkpt>
      <trkpt lat="46.81008" lon="6.49223">
        <ele>1125</ele>
        <time>2016-07-16T09:02:14Z</time>
      </trkpt>
      <trkpt lat="46.81" lon="6.49212">
        <ele>1127</ele>
        <time>2016-07-16T09:02:19Z</time>
      </trkpt>
      <trkpt lat="46.80992" lon="6.49201">
        <ele>1125</ele>
        <time>2016-07-16T09:02:23Z</time>
      </trkpt>
      <trkpt lat="46.80987" lon="6.49194">
        <ele>1126</ele>
        <time>2016-07-16T09:02:28Z</time>
      </trkpt>
      <trkpt lat="46.8098" lon="6.49186">
        <ele>1127</ele>
        <time>2016-07-16T09:02:33Z</time>
      </trkpt>
      <trkpt lat="46.80975" lon="6.49175">
        <ele>1128</ele>
        <time>2016-07-16T09:02:39Z</time>
      </trkpt>
      <trkpt lat="46.80967" lon="6.49175">
        <ele>1126</ele>
        <time>2016-07-16T09:02:43Z</time>
      </trkpt>
      <trkpt lat="46.80957" lon="6.49173">
        <ele>1125</ele>
        <time>2016-07-16T09:02:47Z</time>
      </trkpt>
      <trkpt lat="46.80947" lon="6.4917">
        <ele>1125</ele>
        <time>2016-07-16T09:02:51Z</time>
      </trkpt>
      <trkpt lat="46.80942" lon="6.49159">
        <ele>1138</ele>
        <time>2016-07-16T09:02:58Z</time>
      </trkpt>
      <trkpt lat="46.80934" lon="6.49155">
        <ele>1137</ele>
        <time>2016-07-16T09:03:03Z</time>
      </trkpt>
      <trkpt lat="46.80929" lon="6.49152">
        <ele>1136</ele>
        <time>2016-07-16T09:03:07Z</time>
      </trkpt>
      <trkpt lat="46.80921" lon="6.49147">
        <ele>1137</ele>
        <time>2016-07-16T09:03:12Z</time>
      </trkpt>
      <trkpt lat="46.80912" lon="6.49141">
        <ele>1132</ele>
        <time>2016-07-16T09:03:17Z</time>
      </trkpt>
      <trkpt lat="46.80906" lon="6.49133">
        <ele>1133</ele>
        <time>2016-07-16T09:03:21Z</time>
      </trkpt>
      <trkpt lat="46.80902" lon="6.49123">
        <ele>1135</ele>
        <time>2016-07-16T09:03:26Z</time>
      </trkpt>
      <trkpt lat="46.809" lon="6.49111">
        <ele>1138</ele>
        <time>2016-07-16T09:03:31Z</time>
      </trkpt>
      <trkpt lat="46.80894" lon="6.49102">
        <ele>1139</ele>
        <time>2016-07-16T09:03:36Z</time>
      </trkpt>
      <trkpt lat="46.80888" lon="6.49093">
        <ele>1139</ele>
        <time>2016-07-16T09:03:43Z</time>
      </trkpt>
      <trkpt lat="46.8088" lon="6.49094">
        <ele>1138</ele>
        <time>2016-07-16T09:03:47Z</time>
      </trkpt>
      <trkpt lat="46.8087" lon="6.49091">
        <ele>1137</ele>
        <time>2016-07-16T09:03:52Z</time>
      </trkpt>
      <trkpt lat="46.80866" lon="6.49083">
        <ele>1151</ele>
        <time>2016-07-16T09:03:55Z</time>
      </trkpt>
      <trkpt lat="46.80866" lon="6.49068">
        <ele>1152</ele>
        <time>2016-07-16T09:04:00Z</time>
      </trkpt>
      <trkpt lat="46.8086" lon="6.49061">
        <ele>1152</ele>
        <time>2016-07-16T09:04:05Z</time>
      </trkpt>
      <trkpt lat="46.80856" lon="6.49049">
        <ele>1154</ele>
        <time>2016-07-16T09:04:11Z</time>
      </trkpt>
      <trkpt lat="46.80851" lon="6.4904">
        <ele>1155</ele>
        <time>2016-07-16T09:04:17Z</time>
      </trkpt>
      <trkpt lat="46.80842" lon="6.4903">
        <ele>1156</ele>
        <time>2016-07-16T09:04:22Z</time>
      </trkpt>
      <trkpt lat="46.80836" lon="6.49019">
        <ele>1157</ele>
        <time>2016-07-16T09:04:26Z</time>
      </trkpt>
      <trkpt lat="46.80829" lon="6.49006">
        <ele>1152</ele>
        <time>2016-07-16T09:04:31Z</time>
      </trkpt>
      <trkpt lat="46.80825" lon="6.48999">
        <ele>1157</ele>
        <time>2016-07-16T09:04:35Z</time>
      </trkpt>
      <trkpt lat="46.80815" lon="6.48988">
        <ele>1156</ele>
        <time>2016-07-16T09:04:40Z</time>
      </trkpt>
      <trkpt lat="46.80813" lon="6.48984">
        <ele>1156</ele>
        <time>2016-07-16T09:04:42Z</time>
      </trkpt>
      <trkpt lat="46.80804" lon="6.48972">
        <ele>1155</ele>
        <time>2016-07-16T09:04:47Z</time>
      </trkpt>
      <trkpt lat="46.808" lon="6.48962">
        <ele>1156</ele>
        <time>2016-07-16T09:04:51Z</time>
      </trkpt>
      <trkpt lat="46.80796" lon="6.48953">
        <ele>1156</ele>
        <time>2016-07-16T09:04:56Z</time>
      </trkpt>
      <trkpt lat="46.80789" lon="6.48947">
        <ele>1156</ele>
        <time>2016-07-16T09:05:00Z</time>
      </trkpt>
      <trkpt lat="46.80781" lon="6.4894">
        <ele>1155</ele>
        <time>2016-07-16T09:05:04Z</time>
      </trkpt>
      <trkpt lat="46.80778" lon="6.48926">
        <ele>1156</ele>
        <time>2016-07-16T09:05:09Z</time>
      </trkpt>
      <trkpt lat="46.80774" lon="6.48913">
        <ele>1167</ele>
        <time>2016-07-16T09:05:14Z</time>
      </trkpt>
      <trkpt lat="46.80769" lon="6.48904">
        <ele>1166</ele>
        <time>2016-07-16T09:05:18Z</time>
      </trkpt>
      <trkpt lat="46.80759" lon="6.4889">
        <ele>1168</ele>
        <time>2016-07-16T09:05:23Z</time>
      </trkpt>
      <trkpt lat="46.80755" lon="6.48882">
        <ele>1170</ele>
        <time>2016-07-16T09:05:27Z</time>
      </trkpt>
      <trkpt lat="46.80748" lon="6.48875">
        <ele>1159</ele>
        <time>2016-07-16T09:05:31Z</time>
      </trkpt>
      <trkpt lat="46.80738" lon="6.4887">
        <ele>1160</ele>
        <time>2016-07-16T09:05:36Z</time>
      </trkpt>
      <trkpt lat="46.80732" lon="6.48864">
        <ele>1161</ele>
        <time>2016-07-16T09:05:40Z</time>
      </trkpt>
      <trkpt lat="46.80721" lon="6.48859">
        <ele>1160</ele>
        <time>2016-07-16T09:05:45Z</time>
      </trkpt>
      <trkpt lat="46.80713" lon="6.48855">
        <ele>1160</ele>
        <time>2016-07-16T09:05:49Z</time>
      </trkpt>
      <trkpt lat="46.80703" lon="6.48848">
        <ele>1159</ele>
        <time>2016-07-16T09:05:54Z</time>
      </trkpt>
      <trkpt lat="46.80698" lon="6.48839">
        <ele>1160</ele>
        <time>2016-07-16T09:05:59Z</time>
      </trkpt>
      <trkpt lat="46.80692" lon="6.48834">
        <ele>1160</ele>
        <time>2016-07-16T09:06:04Z</time>
      </trkpt>
      <trkpt lat="46.80683" lon="6.48827">
        <ele>1170</ele>
        <time>2016-07-16T09:06:08Z</time>
      </trkpt>
      <trkpt lat="46.80672" lon="6.48822">
        <ele>1168</ele>
        <time>2016-07-16T09:06:13Z</time>
      </trkpt>
      <trkpt lat="46.80664" lon="6.48816">
        <ele>1165</ele>
        <time>2016-07-16T09:06:18Z</time>
      </trkpt>
      <trkpt lat="46.80656" lon="6.48812">
        <ele>1166</ele>
        <time>2016-07-16T09:06:22Z</time>
      </trkpt>
      <trkpt lat="46.80651" lon="6.48802">
        <ele>1168</ele>
        <time>2016-07-16T09:06:27Z</time>
      </trkpt>
      <trkpt lat="46.80643" lon="6.48794">
        <ele>1169</ele>
        <time>2016-07-16T09:06:32Z</time>
      </trkpt>
      <trkpt lat="46.80633" lon="6.48788">
        <ele>1169</ele>
        <time>2016-07-16T09:06:36Z</time>
      </trkpt>
      <trkpt lat="46.80625" lon="6.48783">
        <ele>1169</ele>
        <time>2016-07-16T09:06:40Z</time>
      </trkpt>
      <trkpt lat="46.80616" lon="6.48781">
        <ele>1169</ele>
        <time>2016-07-16T09:06:44Z</time>
      </trkpt>
      <trkpt lat="46.80608" lon="6.48777">
        <ele>1170</ele>
        <time>2016-07-16T09:06:48Z</time>
      </trkpt>
      <trkpt lat="46.80597" lon="6.48774">
        <ele>1170</ele>
        <time>2016-07-16T09:06:53Z</time>
      </trkpt>
      <trkpt lat="46.80594" lon="6.48767">
        <ele>1171</ele>
        <time>2016-07-16T09:06:56Z</time>
      </trkpt>
      <trkpt lat="46.80589" lon="6.48756">
        <ele>1172</ele>
        <time>2016-07-16T09:07:01Z</time>
      </trkpt>
      <trkpt lat="46.80579" lon="6.48749">
        <ele>1175</ele>
        <time>2016-07-16T09:07:05Z</time>
      </trkpt>
      <trkpt lat="46.80575" lon="6.48739">
        <ele>1176</ele>
        <time>2016-07-16T09:07:11Z</time>
      </trkpt>
      <trkpt lat="46.80568" lon="6.48734">
        <ele>1177</ele>
        <time>2016-07-16T09:07:15Z</time>
      </trkpt>
      <trkpt lat="46.80562" lon="6.48727">
        <ele>1177</ele>
        <time>2016-07-16T09:07:19Z</time>
      </trkpt>
      <trkpt lat="46.80552" lon="6.48719">
        <ele>1178</ele>
        <time>2016-07-16T09:07:23Z</time>
      </trkpt>
      <trkpt lat="46.80547" lon="6.48709">
        <ele>1178</ele>
        <time>2016-07-16T09:07:28Z</time>
      </trkpt>
      <trkpt lat="46.80539" lon="6.48701">
        <ele>1179</ele>
        <time>2016-07-16T09:07:33Z</time>
      </trkpt>
      <trkpt lat="46.80529" lon="6.4869">
        <ele>1180</ele>
        <time>2016-07-16T09:07:37Z</time>
      </trkpt>
      <trkpt lat="46.80519" lon="6.48682">
        <ele>1180</ele>
        <time>2016-07-16T09:07:42Z</time>
      </trkpt>
      <trkpt lat="46.80513" lon="6.48671">
        <ele>1181</ele>
        <time>2016-07-16T09:07:46Z</time>
      </trkpt>
      <trkpt lat="46.80507" lon="6.4866">
        <ele>1187</ele>
        <time>2016-07-16T09:07:50Z</time>
      </trkpt>
      <trkpt lat="46.80502" lon="6.48646">
        <ele>1189</ele>
        <time>2016-07-16T09:07:55Z</time>
      </trkpt>
      <trkpt lat="46.80496" lon="6.48639">
        <ele>1189</ele>
        <time>2016-07-16T09:07:59Z</time>
      </trkpt>
      <trkpt lat="46.80488" lon="6.48633">
        <ele>1190</ele>
        <time>2016-07-16T09:08:03Z</time>
      </trkpt>
      <trkpt lat="46.80483" lon="6.48622">
        <ele>1191</ele>
        <time>2016-07-16T09:08:07Z</time>
      </trkpt>
      <trkpt lat="46.80478" lon="6.48611">
        <ele>1192</ele>
        <time>2016-07-16T09:08:11Z</time>
      </trkpt>
      <trkpt lat="46.80471" lon="6.48605">
        <ele>1193</ele>
        <time>2016-07-16T09:08:15Z</time>
      </trkpt>
      <trkpt lat="46.80464" lon="6.48594">
        <ele>1193</ele>
        <time>2016-07-16T09:08:19Z</time>
      </trkpt>
      <trkpt lat="46.80459" lon="6.48587">
        <ele>1193</ele>
        <time>2016-07-16T09:08:22Z</time>
      </trkpt>
      <trkpt lat="46.80451" lon="6.48581">
        <ele>1201</ele>
        <time>2016-07-16T09:08:26Z</time>
      </trkpt>
      <trkpt lat="46.80443" lon="6.48571">
        <ele>1201</ele>
        <time>2016-07-16T09:08:31Z</time>
      </trkpt>
      <trkpt lat="46.80439" lon="6.48565">
        <ele>1201</ele>
        <time>2016-07-16T09:08:34Z</time>
      </trkpt>
      <trkpt lat="46.80433" lon="6.48555">
        <ele>1201</ele>
        <time>2016-07-16T09:08:39Z</time>
      </trkpt>
      <trkpt lat="46.80428" lon="6.48548">
        <ele>1202</ele>
        <time>2016-07-16T09:08:44Z</time>
      </trkpt>
      <trkpt lat="46.80424" lon="6.48539">
        <ele>1203</ele>
        <time>2016-07-16T09:08:47Z</time>
      </trkpt>
      <trkpt lat="46.80415" lon="6.48536">
        <ele>1200</ele>
        <time>2016-07-16T09:08:51Z</time>
      </trkpt>
      <trkpt lat="46.8041" lon="6.48534">
        <ele>1200</ele>
        <time>2016-07-16T09:08:55Z</time>
      </trkpt>
      <trkpt lat="46.80398" lon="6.48528">
        <ele>1201</ele>
        <time>2016-07-16T09:08:59Z</time>
      </trkpt>
      <trkpt lat="46.80392" lon="6.48521">
        <ele>1201</ele>
        <time>2016-07-16T09:09:03Z</time>
      </trkpt>
      <trkpt lat="46.80386" lon="6.48511">
        <ele>1201</ele>
        <time>2016-07-16T09:09:08Z</time>
      </trkpt>
      <trkpt lat="46.80381" lon="6.485">
        <ele>1207</ele>
        <time>2016-07-16T09:09:13Z</time>
      </trkpt>
      <trkpt lat="46.80379" lon="6.48488">
        <ele>1208</ele>
        <time>2016-07-16T09:09:17Z</time>
      </trkpt>
      <trkpt lat="46.80375" lon="6.48482">
        <ele>1208</ele>
        <time>2016-07-16T09:09:21Z</time>
      </trkpt>
      <trkpt lat="46.80366" lon="6.48474">
        <ele>1208</ele>
        <time>2016-07-16T09:09:26Z</time>
      </trkpt>
      <trkpt lat="46.80362" lon="6.48464">
        <ele>1209</ele>
        <time>2016-07-16T09:09:30Z</time>
      </trkpt>
      <trkpt lat="46.80359" lon="6.48451">
        <ele>1209</ele>
        <time>2016-07-16T09:09:35Z</time>
      </trkpt>
      <trkpt lat="46.80353" lon="6.48443">
        <ele>1210</ele>
        <time>2016-07-16T09:18:20Z</time>
      </trkpt>
      <trkpt lat="46.80349" lon="6.4843">
        <ele>1211</ele>
        <time>2016-07-16T09:18:24Z</time>
      </trkpt>
      <trkpt lat="46.80346" lon="6.48417">
        <ele>1212</ele>
        <time>2016-07-16T09:18:28Z</time>
      </trkpt>
      <trkpt lat="46.80343" lon="6.48394">
        <ele>1216</ele>
        <time>2016-07-16T09:18:33Z</time>
      </trkpt>
      <trkpt lat="46.80333" lon="6.48362">
        <ele>1215</ele>
        <time>2016-07-16T09:18:37Z</time>
      </trkpt>
      <trkpt lat="46.80328" lon="6.48338">
        <ele>1217</ele>
        <time>2016-07-16T09:18:42Z</time>
      </trkpt>
      <trkpt lat="46.80334" lon="6.48329">
        <ele>1220</ele>
        <time>2016-07-16T09:18:53Z</time>
      </trkpt>
      <trkpt lat="46.80341" lon="6.48325">
        <ele>1221</ele>
        <time>2016-07-16T09:19:00Z</time>
      </trkpt>
      <trkpt lat="46.80348" lon="6.48323">
        <ele>1221</ele>
        <time>2016-07-16T09:19:04Z</time>
      </trkpt>
      <trkpt lat="46.80309" lon="6.48337">
        <ele>1215</ele>
        <time>2016-07-16T09:19:09Z</time>
      </trkpt>
      <trkpt lat="46.80304" lon="6.48339">
        <ele>1215</ele>
        <time>2016-07-16T09:19:12Z</time>
      </trkpt>
      <trkpt lat="46.80264" lon="6.48283">
        <ele>1221</ele>
        <time>2016-07-16T09:19:46Z</time>
      </trkpt>
      <trkpt lat="46.80252" lon="6.48303">
        <ele>1219</ele>
        <time>2016-07-16T09:19:51Z</time>
      </trkpt>
      <trkpt lat="46.80255" lon="6.48287">
        <ele>1221</ele>
        <time>2016-07-16T09:19:56Z</time>
      </trkpt>
      <trkpt lat="46.80254" lon="6.48275">
        <ele>1222</ele>
        <time>2016-07-16T09:20:02Z</time>
      </trkpt>
      <trkpt lat="46.80247" lon="6.48267">
        <ele>1223</ele>
        <time>2016-07-16T09:20:09Z</time>
      </trkpt>
      <trkpt lat="46.8024" lon="6.48263">
        <ele>1223</ele>
        <time>2016-07-16T09:20:16Z</time>
      </trkpt>
      <trkpt lat="46.80235" lon="6.48252">
        <ele>1224</ele>
        <time>2016-07-16T09:20:22Z</time>
      </trkpt>
      <trkpt lat="46.80235" lon="6.48241">
        <ele>1228</ele>
        <time>2016-07-16T09:20:28Z</time>
      </trkpt>
      <trkpt lat="46.80229" lon="6.48232">
        <ele>1229</ele>
        <time>2016-07-16T09:20:34Z</time>
      </trkpt>
      <trkpt lat="46.80217" lon="6.48231">
        <ele>1230</ele>
        <time>2016-07-16T09:20:39Z</time>
      </trkpt>
      <trkpt lat="46.80208" lon="6.48221">
        <ele>1231</ele>
        <time>2016-07-16T09:20:44Z</time>
      </trkpt>
      <trkpt lat="46.80202" lon="6.48211">
        <ele>1231</ele>
        <time>2016-07-16T09:20:50Z</time>
      </trkpt>
      <trkpt lat="46.80197" lon="6.48202">
        <ele>1232</ele>
        <time>2016-07-16T09:20:56Z</time>
      </trkpt>
      <trkpt lat="46.80194" lon="6.48191">
        <ele>1232</ele>
        <time>2016-07-16T09:21:01Z</time>
      </trkpt>
      <trkpt lat="46.80194" lon="6.48179">
        <ele>1233</ele>
        <time>2016-07-16T09:21:06Z</time>
      </trkpt>
      <trkpt lat="46.80186" lon="6.48167">
        <ele>1233</ele>
        <time>2016-07-16T09:21:11Z</time>
      </trkpt>
      <trkpt lat="46.80178" lon="6.48161">
        <ele>1237</ele>
        <time>2016-07-16T09:21:15Z</time>
      </trkpt>
      <trkpt lat="46.80171" lon="6.48154">
        <ele>1237</ele>
        <time>2016-07-16T09:21:23Z</time>
      </trkpt>
      <trkpt lat="46.80164" lon="6.48146">
        <ele>1239</ele>
        <time>2016-07-16T09:21:33Z</time>
      </trkpt>
      <trkpt lat="46.80155" lon="6.48144">
        <ele>1240</ele>
        <time>2016-07-16T09:21:37Z</time>
      </trkpt>
      <trkpt lat="46.80148" lon="6.48145">
        <ele>1240</ele>
        <time>2016-07-16T09:21:42Z</time>
      </trkpt>
      <trkpt lat="46.80142" lon="6.48139">
        <ele>1241</ele>
        <time>2016-07-16T09:21:47Z</time>
      </trkpt>
      <trkpt lat="46.80135" lon="6.48139">
        <ele>1241</ele>
        <time>2016-07-16T09:21:57Z</time>
      </trkpt>
      <trkpt lat="46.80128" lon="6.4813">
        <ele>1242</ele>
        <time>2016-07-16T09:22:02Z</time>
      </trkpt>
      <trkpt lat="46.8012" lon="6.48128">
        <ele>1243</ele>
        <time>2016-07-16T09:22:06Z</time>
      </trkpt>
      <trkpt lat="46.80116" lon="6.48119">
        <ele>1243</ele>
        <time>2016-07-16T09:22:10Z</time>
      </trkpt>
      <trkpt lat="46.80108" lon="6.48104">
        <ele>1244</ele>
        <time>2016-07-16T09:22:14Z</time>
      </trkpt>
      <trkpt lat="46.80113" lon="6.48072">
        <ele>1250</ele>
        <time>2016-07-16T09:22:19Z</time>
      </trkpt>
      <trkpt lat="46.80106" lon="6.4807">
        <ele>1250</ele>
        <time>2016-07-16T09:22:26Z</time>
      </trkpt>
      <trkpt lat="46.80092" lon="6.48071">
        <ele>1249</ele>
        <time>2016-07-16T09:22:30Z</time>
      </trkpt>
      <trkpt lat="46.8009" lon="6.4806">
        <ele>1250</ele>
        <time>2016-07-16T09:22:36Z</time>
      </trkpt>
      <trkpt lat="46.80097" lon="6.48046">
        <ele>1251</ele>
        <time>2016-07-16T09:22:41Z</time>
      </trkpt>
      <trkpt lat="46.80105" lon="6.48042">
        <ele>1251</ele>
        <time>2016-07-16T09:23:17Z</time>
      </trkpt>
      <trkpt lat="46.80098" lon="6.48039">
        <ele>1252</ele>
        <time>2016-07-16T09:26:55Z</time>
      </trkpt>
      <trkpt lat="46.80091" lon="6.48035">
        <ele>1252</ele>
        <time>2016-07-16T09:26:59Z</time>
      </trkpt>
      <trkpt lat="46.80078" lon="6.48034">
        <ele>1254</ele>
        <time>2016-07-16T09:27:04Z</time>
      </trkpt>
      <trkpt lat="46.80068" lon="6.48032">
        <ele>1255</ele>
        <time>2016-07-16T09:27:08Z</time>
      </trkpt>
      <trkpt lat="46.8006" lon="6.48026">
        <ele>1255</ele>
        <time>2016-07-16T09:27:14Z</time>
      </trkpt>
      <trkpt lat="46.80055" lon="6.48016">
        <ele>1256</ele>
        <time>2016-07-16T09:27:21Z</time>
      </trkpt>
      <trkpt lat="46.80048" lon="6.4801">
        <ele>1256</ele>
        <time>2016-07-16T09:27:27Z</time>
      </trkpt>
      <trkpt lat="46.80043" lon="6.48">
        <ele>1263</ele>
        <time>2016-07-16T09:27:32Z</time>
      </trkpt>
      <trkpt lat="46.80039" lon="6.47989">
        <ele>1264</ele>
        <time>2016-07-16T09:27:37Z</time>
      </trkpt>
      <trkpt lat="46.80032" lon="6.47982">
        <ele>1265</ele>
        <time>2016-07-16T09:27:44Z</time>
      </trkpt>
      <trkpt lat="46.80025" lon="6.47975">
        <ele>1265</ele>
        <time>2016-07-16T09:27:51Z</time>
      </trkpt>
      <trkpt lat="46.80017" lon="6.47975">
        <ele>1265</ele>
        <time>2016-07-16T09:27:55Z</time>
      </trkpt>
      <trkpt lat="46.80011" lon="6.47967">
        <ele>1266</ele>
        <time>2016-07-16T09:28:01Z</time>
      </trkpt>
      <trkpt lat="46.80011" lon="6.47957">
        <ele>1267</ele>
        <time>2016-07-16T09:28:07Z</time>
      </trkpt>
      <trkpt lat="46.80008" lon="6.47945">
        <ele>1268</ele>
        <time>2016-07-16T09:28:13Z</time>
      </trkpt>
      <trkpt lat="46.80002" lon="6.47935">
        <ele>1270</ele>
        <time>2016-07-16T09:28:23Z</time>
      </trkpt>
      <trkpt lat="46.79996" lon="6.47926">
        <ele>1274</ele>
        <time>2016-07-16T09:28:44Z</time>
      </trkpt>
      <trkpt lat="46.79988" lon="6.4792">
        <ele>1274</ele>
        <time>2016-07-16T09:28:49Z</time>
      </trkpt>
      <trkpt lat="46.79985" lon="6.47909">
        <ele>1278</ele>
        <time>2016-07-16T09:28:54Z</time>
      </trkpt>
      <trkpt lat="46.79981" lon="6.47898">
        <ele>1279</ele>
        <time>2016-07-16T09:29:00Z</time>
      </trkpt>
      <trkpt lat="46.79977" lon="6.47888">
        <ele>1281</ele>
        <time>2016-07-16T09:29:08Z</time>
      </trkpt>
      <trkpt lat="46.79971" lon="6.47878">
        <ele>1281</ele>
        <time>2016-07-16T09:29:13Z</time>
      </trkpt>
      <trkpt lat="46.79965" lon="6.47869">
        <ele>1282</ele>
        <time>2016-07-16T09:29:17Z</time>
      </trkpt>
      <trkpt lat="46.79962" lon="6.47858">
        <ele>1283</ele>
        <time>2016-07-16T09:29:23Z</time>
      </trkpt>
      <trkpt lat="46.79958" lon="6.47841">
        <ele>1284</ele>
        <time>2016-07-16T09:29:28Z</time>
      </trkpt>
      <trkpt lat="46.79951" lon="6.4783">
        <ele>1288</ele>
        <time>2016-07-16T09:29:32Z</time>
      </trkpt>
      <trkpt lat="46.79947" lon="6.47816">
        <ele>1288</ele>
        <time>2016-07-16T09:29:37Z</time>
      </trkpt>
      <trkpt lat="46.79937" lon="6.47807">
        <ele>1289</ele>
        <time>2016-07-16T09:29:42Z</time>
      </trkpt>
      <trkpt lat="46.7993" lon="6.47801">
        <ele>1289</ele>
        <time>2016-07-16T09:29:47Z</time>
      </trkpt>
      <trkpt lat="46.79925" lon="6.47792">
        <ele>1289</ele>
        <time>2016-07-16T09:29:52Z</time>
      </trkpt>
      <trkpt lat="46.79919" lon="6.47784">
        <ele>1290</ele>
        <time>2016-07-16T09:30:00Z</time>
      </trkpt>
      <trkpt lat="46.79912" lon="6.47777">
        <ele>1296</ele>
        <time>2016-07-16T09:30:04Z</time>
      </trkpt>
      <trkpt lat="46.7991" lon="6.47766">
        <ele>1296</ele>
        <time>2016-07-16T09:30:12Z</time>
      </trkpt>
      <trkpt lat="46.79905" lon="6.47757">
        <ele>1296</ele>
        <time>2016-07-16T09:30:17Z</time>
      </trkpt>
      <trkpt lat="46.79901" lon="6.47747">
        <ele>1296</ele>
        <time>2016-07-16T09:30:25Z</time>
      </trkpt>
      <trkpt lat="46.79893" lon="6.47741">
        <ele>1296</ele>
        <time>2016-07-16T09:30:33Z</time>
      </trkpt>
      <trkpt lat="46.79886" lon="6.47731">
        <ele>1297</ele>
        <time>2016-07-16T09:30:37Z</time>
      </trkpt>
      <trkpt lat="46.79878" lon="6.4773">
        <ele>1297</ele>
        <time>2016-07-16T09:30:44Z</time>
      </trkpt>
      <trkpt lat="46.79883" lon="6.47722">
        <ele>1297</ele>
        <time>2016-07-16T09:31:05Z</time>
      </trkpt>
      <trkpt lat="46.79878" lon="6.47712">
        <ele>1297</ele>
        <time>2016-07-16T09:31:09Z</time>
      </trkpt>
      <trkpt lat="46.79876" lon="6.47701">
        <ele>1297</ele>
        <time>2016-07-16T09:31:14Z</time>
      </trkpt>
      <trkpt lat="46.79869" lon="6.47696">
        <ele>1297</ele>
        <time>2016-07-16T09:31:20Z</time>
      </trkpt>
      <trkpt lat="46.79865" lon="6.47685">
        <ele>1297</ele>
        <time>2016-07-16T09:31:25Z</time>
      </trkpt>
      <trkpt lat="46.79861" lon="6.47676">
        <ele>1297</ele>
        <time>2016-07-16T09:31:29Z</time>
      </trkpt>
      <trkpt lat="46.79851" lon="6.47667">
        <ele>1297</ele>
        <time>2016-07-16T09:31:34Z</time>
      </trkpt>
      <trkpt lat="46.79842" lon="6.47656">
        <ele>1297</ele>
        <time>2016-07-16T09:31:38Z</time>
      </trkpt>
      <trkpt lat="46.79835" lon="6.47648">
        <ele>1297</ele>
        <time>2016-07-16T09:31:42Z</time>
      </trkpt>
      <trkpt lat="46.79824" lon="6.47643">
        <ele>1301</ele>
        <time>2016-07-16T09:31:47Z</time>
      </trkpt>
      <trkpt lat="46.79817" lon="6.4764">
        <ele>1302</ele>
        <time>2016-07-16T09:31:53Z</time>
      </trkpt>
      <trkpt lat="46.79804" lon="6.47634">
        <ele>1303</ele>
        <time>2016-07-16T09:31:57Z</time>
      </trkpt>
      <trkpt lat="46.79795" lon="6.47628">
        <ele>1304</ele>
        <time>2016-07-16T09:32:01Z</time>
      </trkpt>
      <trkpt lat="46.79793" lon="6.47616">
        <ele>1304</ele>
        <time>2016-07-16T09:32:11Z</time>
      </trkpt>
      <trkpt lat="46.79785" lon="6.47605">
        <ele>1304</ele>
        <time>2016-07-16T09:32:16Z</time>
      </trkpt>
      <trkpt lat="46.7978" lon="6.47593">
        <ele>1305</ele>
        <time>2016-07-16T09:32:20Z</time>
      </trkpt>
      <trkpt lat="46.79773" lon="6.47586">
        <ele>1305</ele>
        <time>2016-07-16T09:32:26Z</time>
      </trkpt>
      <trkpt lat="46.79768" lon="6.47575">
        <ele>1305</ele>
        <time>2016-07-16T09:32:32Z</time>
      </trkpt>
      <trkpt lat="46.79764" lon="6.47564">
        <ele>1305</ele>
        <time>2016-07-16T09:32:38Z</time>
      </trkpt>
      <trkpt lat="46.79759" lon="6.47555">
        <ele>1305</ele>
        <time>2016-07-16T09:32:43Z</time>
      </trkpt>
      <trkpt lat="46.79754" lon="6.47545">
        <ele>1305</ele>
        <time>2016-07-16T09:32:48Z</time>
      </trkpt>
      <trkpt lat="46.79747" lon="6.47544">
        <ele>1316</ele>
        <time>2016-07-16T09:32:51Z</time>
      </trkpt>
      <trkpt lat="46.79738" lon="6.4754">
        <ele>1317</ele>
        <time>2016-07-16T09:32:57Z</time>
      </trkpt>
      <trkpt lat="46.79735" lon="6.47529">
        <ele>1316</ele>
        <time>2016-07-16T09:33:04Z</time>
      </trkpt>
      <trkpt lat="46.79726" lon="6.47521">
        <ele>1317</ele>
        <time>2016-07-16T09:33:08Z</time>
      </trkpt>
      <trkpt lat="46.79718" lon="6.47518">
        <ele>1319</ele>
        <time>2016-07-16T09:33:12Z</time>
      </trkpt>
      <trkpt lat="46.7971" lon="6.47513">
        <ele>1320</ele>
        <time>2016-07-16T09:33:17Z</time>
      </trkpt>
      <trkpt lat="46.79706" lon="6.47501">
        <ele>1320</ele>
        <time>2016-07-16T09:33:26Z</time>
      </trkpt>
      <trkpt lat="46.79702" lon="6.47491">
        <ele>1317</ele>
        <time>2016-07-16T09:33:32Z</time>
      </trkpt>
      <trkpt lat="46.79697" lon="6.4748">
        <ele>1317</ele>
        <time>2016-07-16T09:33:35Z</time>
      </trkpt>
      <trkpt lat="46.79692" lon="6.4747">
        <ele>1317</ele>
        <time>2016-07-16T09:33:40Z</time>
      </trkpt>
      <trkpt lat="46.79688" lon="6.47459">
        <ele>1317</ele>
        <time>2016-07-16T09:33:47Z</time>
      </trkpt>
      <trkpt lat="46.79682" lon="6.47441">
        <ele>1316</ele>
        <time>2016-07-16T09:33:52Z</time>
      </trkpt>
      <trkpt lat="46.79676" lon="6.47432">
        <ele>1316</ele>
        <time>2016-07-16T09:33:57Z</time>
      </trkpt>
      <trkpt lat="46.79671" lon="6.47425">
        <ele>1316</ele>
        <time>2016-07-16T09:34:01Z</time>
      </trkpt>
      <trkpt lat="46.79666" lon="6.47413">
        <ele>1318</ele>
        <time>2016-07-16T09:34:05Z</time>
      </trkpt>
      <trkpt lat="46.79659" lon="6.47402">
        <ele>1323</ele>
        <time>2016-07-16T09:34:09Z</time>
      </trkpt>
      <trkpt lat="46.79654" lon="6.47389">
        <ele>1326</ele>
        <time>2016-07-16T09:34:14Z</time>
      </trkpt>
      <trkpt lat="46.79648" lon="6.47375">
        <ele>1327</ele>
        <time>2016-07-16T09:34:19Z</time>
      </trkpt>
      <trkpt lat="46.79645" lon="6.47364">
        <ele>1327</ele>
        <time>2016-07-16T09:34:23Z</time>
      </trkpt>
      <trkpt lat="46.79639" lon="6.47357">
        <ele>1327</ele>
        <time>2016-07-16T09:34:28Z</time>
      </trkpt>
      <trkpt lat="46.79641" lon="6.47345">
        <ele>1326</ele>
        <time>2016-07-16T09:34:34Z</time>
      </trkpt>
      <trkpt lat="46.7964" lon="6.47334">
        <ele>1325</ele>
        <time>2016-07-16T09:34:40Z</time>
      </trkpt>
      <trkpt lat="46.79633" lon="6.47327">
        <ele>1323</ele>
        <time>2016-07-16T09:34:45Z</time>
      </trkpt>
      <trkpt lat="46.79631" lon="6.47317">
        <ele>1324</ele>
        <time>2016-07-16T09:34:49Z</time>
      </trkpt>
      <trkpt lat="46.79638" lon="6.47308">
        <ele>1323</ele>
        <time>2016-07-16T09:34:53Z</time>
      </trkpt>
      <trkpt lat="46.79646" lon="6.47301">
        <ele>1321</ele>
        <time>2016-07-16T09:34:57Z</time>
      </trkpt>
      <trkpt lat="46.79653" lon="6.47294">
        <ele>1321</ele>
        <time>2016-07-16T09:35:14Z</time>
      </trkpt>
      <trkpt lat="46.7965" lon="6.47285">
        <ele>1321</ele>
        <time>2016-07-16T09:35:26Z</time>
      </trkpt>
      <trkpt lat="46.79647" lon="6.4729">
        <ele>1321</ele>
        <time>2016-07-16T09:37:21Z</time>
      </trkpt>
      <trkpt lat="46.79643" lon="6.47301">
        <ele>1322</ele>
        <time>2016-07-16T09:37:26Z</time>
      </trkpt>
      <trkpt lat="46.79633" lon="6.47292">
        <ele>1323</ele>
        <time>2016-07-16T09:37:30Z</time>
      </trkpt>
      <trkpt lat="46.79622" lon="6.47287">
        <ele>1324</ele>
        <time>2016-07-16T09:37:35Z</time>
      </trkpt>
      <trkpt lat="46.79617" lon="6.47278">
        <ele>1325</ele>
        <time>2016-07-16T09:37:48Z</time>
      </trkpt>
      <trkpt lat="46.79611" lon="6.47268">
        <ele>1325</ele>
        <time>2016-07-16T09:37:52Z</time>
      </trkpt>
      <trkpt lat="46.79605" lon="6.47252">
        <ele>1326</ele>
        <time>2016-07-16T09:37:56Z</time>
      </trkpt>
      <trkpt lat="46.79601" lon="6.47242">
        <ele>1323</ele>
        <time>2016-07-16T09:38:02Z</time>
      </trkpt>
      <trkpt lat="46.79598" lon="6.4723">
        <ele>1322</ele>
        <time>2016-07-16T09:38:09Z</time>
      </trkpt>
      <trkpt lat="46.79597" lon="6.47216">
        <ele>1320</ele>
        <time>2016-07-16T09:38:14Z</time>
      </trkpt>
      <trkpt lat="46.79593" lon="6.47206">
        <ele>1320</ele>
        <time>2016-07-16T09:38:19Z</time>
      </trkpt>
      <trkpt lat="46.79591" lon="6.47194">
        <ele>1319</ele>
        <time>2016-07-16T09:38:24Z</time>
      </trkpt>
      <trkpt lat="46.79585" lon="6.47185">
        <ele>1318</ele>
        <time>2016-07-16T09:38:33Z</time>
      </trkpt>
      <trkpt lat="46.7958" lon="6.47173">
        <ele>1323</ele>
        <time>2016-07-16T09:38:38Z</time>
      </trkpt>
      <trkpt lat="46.79575" lon="6.47164">
        <ele>1321</ele>
        <time>2016-07-16T09:38:42Z</time>
      </trkpt>
      <trkpt lat="46.79572" lon="6.47154">
        <ele>1323</ele>
        <time>2016-07-16T09:38:49Z</time>
      </trkpt>
      <trkpt lat="46.79562" lon="6.47145">
        <ele>1325</ele>
        <time>2016-07-16T09:38:53Z</time>
      </trkpt>
      <trkpt lat="46.79555" lon="6.47136">
        <ele>1326</ele>
        <time>2016-07-16T09:38:58Z</time>
      </trkpt>
      <trkpt lat="46.79545" lon="6.47123">
        <ele>1326</ele>
        <time>2016-07-16T09:39:02Z</time>
      </trkpt>
      <trkpt lat="46.79533" lon="6.47103">
        <ele>1327</ele>
        <time>2016-07-16T09:39:07Z</time>
      </trkpt>
      <trkpt lat="46.79528" lon="6.47084">
        <ele>1327</ele>
        <time>2016-07-16T09:39:11Z</time>
      </trkpt>
      <trkpt lat="46.79529" lon="6.47057">
        <ele>1318</ele>
        <time>2016-07-16T09:39:16Z</time>
      </trkpt>
      <trkpt lat="46.79526" lon="6.47041">
        <ele>1317</ele>
        <time>2016-07-16T09:39:20Z</time>
      </trkpt>
      <trkpt lat="46.79512" lon="6.47014">
        <ele>1315</ele>
        <time>2016-07-16T09:39:25Z</time>
      </trkpt>
      <trkpt lat="46.79498" lon="6.47002">
        <ele>1317</ele>
        <time>2016-07-16T09:39:30Z</time>
      </trkpt>
      <trkpt lat="46.79475" lon="6.46992">
        <ele>1321</ele>
        <time>2016-07-16T09:39:35Z</time>
      </trkpt>
      <trkpt lat="46.79471" lon="6.46982">
        <ele>1322</ele>
        <time>2016-07-16T09:39:38Z</time>
      </trkpt>
      <trkpt lat="46.79454" lon="6.46968">
        <ele>1324</ele>
        <time>2016-07-16T09:39:42Z</time>
      </trkpt>
      <trkpt lat="46.79435" lon="6.4695">
        <ele>1325</ele>
        <time>2016-07-16T09:39:47Z</time>
      </trkpt>
      <trkpt lat="46.79427" lon="6.46939">
        <ele>1325</ele>
        <time>2016-07-16T09:39:51Z</time>
      </trkpt>
      <trkpt lat="46.79413" lon="6.46922">
        <ele>1332</ele>
        <time>2016-07-16T09:39:55Z</time>
      </trkpt>
      <trkpt lat="46.79399" lon="6.46912">
        <ele>1329</ele>
        <time>2016-07-16T09:39:59Z</time>
      </trkpt>
      <trkpt lat="46.79387" lon="6.46901">
        <ele>1331</ele>
        <time>2016-07-16T09:40:04Z</time>
      </trkpt>
      <trkpt lat="46.79381" lon="6.46893">
        <ele>1331</ele>
        <time>2016-07-16T09:40:09Z</time>
      </trkpt>
      <trkpt lat="46.79373" lon="6.46889">
        <ele>1332</ele>
        <time>2016-07-16T09:40:14Z</time>
      </trkpt>
      <trkpt lat="46.79361" lon="6.46884">
        <ele>1333</ele>
        <time>2016-07-16T09:40:19Z</time>
      </trkpt>
      <trkpt lat="46.79357" lon="6.46877">
        <ele>1332</ele>
        <time>2016-07-16T09:40:25Z</time>
      </trkpt>
      <trkpt lat="46.79344" lon="6.46866">
        <ele>1332</ele>
        <time>2016-07-16T09:40:29Z</time>
      </trkpt>
      <trkpt lat="46.79335" lon="6.46853">
        <ele>1330</ele>
        <time>2016-07-16T09:40:34Z</time>
      </trkpt>
      <trkpt lat="46.7933" lon="6.46846">
        <ele>1340</ele>
        <time>2016-07-16T09:40:38Z</time>
      </trkpt>
      <trkpt lat="46.79321" lon="6.4684">
        <ele>1340</ele>
        <time>2016-07-16T09:40:43Z</time>
      </trkpt>
      <trkpt lat="46.79316" lon="6.46831">
        <ele>1332</ele>
        <time>2016-07-16T09:40:48Z</time>
      </trkpt>
      <trkpt lat="46.79308" lon="6.46824">
        <ele>1334</ele>
        <time>2016-07-16T09:40:53Z</time>
      </trkpt>
      <trkpt lat="46.793" lon="6.46818">
        <ele>1335</ele>
        <time>2016-07-16T09:40:58Z</time>
      </trkpt>
      <trkpt lat="46.79287" lon="6.46809">
        <ele>1337</ele>
        <time>2016-07-16T09:41:02Z</time>
      </trkpt>
      <trkpt lat="46.79269" lon="6.46799">
        <ele>1339</ele>
        <time>2016-07-16T09:41:07Z</time>
      </trkpt>
      <trkpt lat="46.79258" lon="6.46788">
        <ele>1338</ele>
        <time>2016-07-16T09:41:11Z</time>
      </trkpt>
      <trkpt lat="46.79237" lon="6.46771">
        <ele>1355</ele>
        <time>2016-07-16T09:41:16Z</time>
      </trkpt>
      <trkpt lat="46.79228" lon="6.46761">
        <ele>1355</ele>
        <time>2016-07-16T09:41:20Z</time>
      </trkpt>
      <trkpt lat="46.79221" lon="6.46754">
        <ele>1357</ele>
        <time>2016-07-16T09:41:27Z</time>
      </trkpt>
      <trkpt lat="46.79216" lon="6.46747">
        <ele>1343</ele>
        <time>2016-07-16T09:41:31Z</time>
      </trkpt>
      <trkpt lat="46.79208" lon="6.46739">
        <ele>1344</ele>
        <time>2016-07-16T09:41:35Z</time>
      </trkpt>
      <trkpt lat="46.79197" lon="6.46732">
        <ele>1346</ele>
        <time>2016-07-16T09:41:39Z</time>
      </trkpt>
      <trkpt lat="46.79187" lon="6.46724">
        <ele>1347</ele>
        <time>2016-07-16T09:41:44Z</time>
      </trkpt>
      <trkpt lat="46.7919" lon="6.46734">
        <ele>1349</ele>
        <time>2016-07-16T09:41:55Z</time>
      </trkpt>
      <trkpt lat="46.79199" lon="6.46745">
        <ele>1348</ele>
        <time>2016-07-16T09:42:00Z</time>
      </trkpt>
      <trkpt lat="46.79205" lon="6.46753">
        <ele>1363</ele>
        <time>2016-07-16T09:42:04Z</time>
      </trkpt>
      <trkpt lat="46.79214" lon="6.46758">
        <ele>1360</ele>
        <time>2016-07-16T09:42:08Z</time>
      </trkpt>
      <trkpt lat="46.79222" lon="6.4677">
        <ele>1360</ele>
        <time>2016-07-16T09:42:12Z</time>
      </trkpt>
      <trkpt lat="46.79222" lon="6.46783">
        <ele>1362</ele>
        <time>2016-07-16T09:42:19Z</time>
      </trkpt>
      <trkpt lat="46.79229" lon="6.4679">
        <ele>1362</ele>
        <time>2016-07-16T09:42:24Z</time>
      </trkpt>
      <trkpt lat="46.79234" lon="6.468">
        <ele>1363</ele>
        <time>2016-07-16T09:42:31Z</time>
      </trkpt>
      <trkpt lat="46.79242" lon="6.46805">
        <ele>1362</ele>
        <time>2016-07-16T09:42:43Z</time>
      </trkpt>
      <trkpt lat="46.79243" lon="6.46817">
        <ele>1363</ele>
        <time>2016-07-16T09:42:53Z</time>
      </trkpt>
      <trkpt lat="46.7925" lon="6.46852">
        <ele>1379</ele>
        <time>2016-07-16T09:42:57Z</time>
      </trkpt>
      <trkpt lat="46.79266" lon="6.46867">
        <ele>1361</ele>
        <time>2016-07-16T09:43:02Z</time>
      </trkpt>
      <trkpt lat="46.79274" lon="6.46871">
        <ele>1361</ele>
        <time>2016-07-16T09:43:06Z</time>
      </trkpt>
      <trkpt lat="46.79281" lon="6.46876">
        <ele>1360</ele>
        <time>2016-07-16T09:43:11Z</time>
      </trkpt>
      <trkpt lat="46.79287" lon="6.46884">
        <ele>1360</ele>
        <time>2016-07-16T09:43:16Z</time>
      </trkpt>
      <trkpt lat="46.79295" lon="6.46891">
        <ele>1359</ele>
        <time>2016-07-16T09:43:21Z</time>
      </trkpt>
      <trkpt lat="46.79299" lon="6.46902">
        <ele>1360</ele>
        <time>2016-07-16T09:43:34Z</time>
      </trkpt>
      <trkpt lat="46.79303" lon="6.46913">
        <ele>1359</ele>
        <time>2016-07-16T09:43:42Z</time>
      </trkpt>
      <trkpt lat="46.79311" lon="6.46917">
        <ele>1371</ele>
        <time>2016-07-16T09:43:47Z</time>
      </trkpt>
      <trkpt lat="46.7932" lon="6.46922">
        <ele>1367</ele>
        <time>2016-07-16T09:43:51Z</time>
      </trkpt>
      <trkpt lat="46.79325" lon="6.46933">
        <ele>1369</ele>
        <time>2016-07-16T09:43:57Z</time>
      </trkpt>
      <trkpt lat="46.79323" lon="6.46945">
        <ele>1375</ele>
        <time>2016-07-16T09:44:04Z</time>
      </trkpt>
      <trkpt lat="46.79325" lon="6.46955">
        <ele>1378</ele>
        <time>2016-07-16T09:44:09Z</time>
      </trkpt>
      <trkpt lat="46.79326" lon="6.46967">
        <ele>1380</ele>
        <time>2016-07-16T09:44:15Z</time>
      </trkpt>
      <trkpt lat="46.79331" lon="6.46975">
        <ele>1380</ele>
        <time>2016-07-16T09:44:20Z</time>
      </trkpt>
      <trkpt lat="46.79338" lon="6.46982">
        <ele>1364</ele>
        <time>2016-07-16T09:44:26Z</time>
      </trkpt>
      <trkpt lat="46.79342" lon="6.46993">
        <ele>1368</ele>
        <time>2016-07-16T09:44:32Z</time>
      </trkpt>
      <trkpt lat="46.79346" lon="6.47003">
        <ele>1376</ele>
        <time>2016-07-16T09:44:37Z</time>
      </trkpt>
      <trkpt lat="46.79356" lon="6.47011">
        <ele>1374</ele>
        <time>2016-07-16T09:44:41Z</time>
      </trkpt>
      <trkpt lat="46.7936" lon="6.47023">
        <ele>1374</ele>
        <time>2016-07-16T09:44:46Z</time>
      </trkpt>
      <trkpt lat="46.79366" lon="6.47031">
        <ele>1374</ele>
        <time>2016-07-16T09:45:37Z</time>
      </trkpt>
      <trkpt lat="46.79369" lon="6.47042">
        <ele>1375</ele>
        <time>2016-07-16T09:45:42Z</time>
      </trkpt>
      <trkpt lat="46.79379" lon="6.47058">
        <ele>1375</ele>
        <time>2016-07-16T09:45:47Z</time>
      </trkpt>
      <trkpt lat="46.79384" lon="6.47066">
        <ele>1374</ele>
        <time>2016-07-16T09:45:50Z</time>
      </trkpt>
      <trkpt lat="46.79392" lon="6.47081">
        <ele>1373</ele>
        <time>2016-07-16T09:45:55Z</time>
      </trkpt>
      <trkpt lat="46.79398" lon="6.47096">
        <ele>1386</ele>
        <time>2016-07-16T09:45:59Z</time>
      </trkpt>
      <trkpt lat="46.79405" lon="6.4711">
        <ele>1389</ele>
        <time>2016-07-16T09:46:04Z</time>
      </trkpt>
      <trkpt lat="46.79411" lon="6.47118">
        <ele>1390</ele>
        <time>2016-07-16T09:46:08Z</time>
      </trkpt>
      <trkpt lat="46.79413" lon="6.4713">
        <ele>1393</ele>
        <time>2016-07-16T09:46:12Z</time>
      </trkpt>
      <trkpt lat="46.79416" lon="6.47142">
        <ele>1394</ele>
        <time>2016-07-16T09:46:16Z</time>
      </trkpt>
      <trkpt lat="46.79426" lon="6.4716">
        <ele>1380</ele>
        <time>2016-07-16T09:46:21Z</time>
      </trkpt>
      <trkpt lat="46.79443" lon="6.47171">
        <ele>1383</ele>
        <time>2016-07-16T09:46:26Z</time>
      </trkpt>
      <trkpt lat="46.79444" lon="6.47183">
        <ele>1383</ele>
        <time>2016-07-16T09:46:35Z</time>
      </trkpt>
      <trkpt lat="46.79437" lon="6.47191">
        <ele>1385</ele>
        <time>2016-07-16T09:46:40Z</time>
      </trkpt>
      <trkpt lat="46.79429" lon="6.4721">
        <ele>1388</ele>
        <time>2016-07-16T09:46:45Z</time>
      </trkpt>
      <trkpt lat="46.79459" lon="6.47203">
        <ele>1380</ele>
        <time>2016-07-16T09:46:49Z</time>
      </trkpt>
      <trkpt lat="46.79428" lon="6.47223">
        <ele>1392</ele>
        <time>2016-07-16T09:46:54Z</time>
      </trkpt>
      <trkpt lat="46.79436" lon="6.47228">
        <ele>1391</ele>
        <time>2016-07-16T09:46:58Z</time>
      </trkpt>
      <trkpt lat="46.79432" lon="6.47242">
        <ele>1398</ele>
        <time>2016-07-16T09:47:03Z</time>
      </trkpt>
      <trkpt lat="46.79427" lon="6.47254">
        <ele>1411</ele>
        <time>2016-07-16T09:47:07Z</time>
      </trkpt>
      <trkpt lat="46.79429" lon="6.47267">
        <ele>1409</ele>
        <time>2016-07-16T09:47:16Z</time>
      </trkpt>
      <trkpt lat="46.79431" lon="6.4728">
        <ele>1409</ele>
        <time>2016-07-16T09:47:20Z</time>
      </trkpt>
      <trkpt lat="46.79437" lon="6.47296">
        <ele>1410</ele>
        <time>2016-07-16T09:47:23Z</time>
      </trkpt>
      <trkpt lat="46.79446" lon="6.47295">
        <ele>1408</ele>
        <time>2016-07-16T09:47:32Z</time>
      </trkpt>
      <trkpt lat="46.79452" lon="6.47295">
        <ele>1406</ele>
        <time>2016-07-16T09:47:35Z</time>
      </trkpt>
      <trkpt lat="46.79459" lon="6.47305">
        <ele>1405</ele>
        <time>2016-07-16T09:47:40Z</time>
      </trkpt>
      <trkpt lat="46.7947" lon="6.47306">
        <ele>1402</ele>
        <time>2016-07-16T09:47:45Z</time>
      </trkpt>
      <trkpt lat="46.79465" lon="6.47316">
        <ele>1405</ele>
        <time>2016-07-16T09:47:55Z</time>
      </trkpt>
      <trkpt lat="46.79468" lon="6.47327">
        <ele>1404</ele>
        <time>2016-07-16T09:48:05Z</time>
      </trkpt>
      <trkpt lat="46.79464" lon="6.47343">
        <ele>1420</ele>
        <time>2016-07-16T09:48:10Z</time>
      </trkpt>
      <trkpt lat="46.79466" lon="6.47362">
        <ele>1422</ele>
        <time>2016-07-16T09:48:15Z</time>
      </trkpt>
      <trkpt lat="46.79469" lon="6.47374">
        <ele>1423</ele>
        <time>2016-07-16T09:48:22Z</time>
      </trkpt>
      <trkpt lat="46.79466" lon="6.47384">
        <ele>1425</ele>
        <time>2016-07-16T09:48:28Z</time>
      </trkpt>
      <trkpt lat="46.79463" lon="6.47393">
        <ele>1427</ele>
        <time>2016-07-16T09:48:31Z</time>
      </trkpt>
      <trkpt lat="46.79464" lon="6.47405">
        <ele>1427</ele>
        <time>2016-07-16T09:48:35Z</time>
      </trkpt>
      <trkpt lat="46.79462" lon="6.47416">
        <ele>1429</ele>
        <time>2016-07-16T09:48:53Z</time>
      </trkpt>
      <trkpt lat="46.79461" lon="6.47433">
        <ele>1440</ele>
        <time>2016-07-16T09:48:57Z</time>
      </trkpt>
      <trkpt lat="46.79461" lon="6.47445">
        <ele>1441</ele>
        <time>2016-07-16T09:49:02Z</time>
      </trkpt>
      <trkpt lat="46.79465" lon="6.47472">
        <ele>1443</ele>
        <time>2016-07-16T09:49:07Z</time>
      </trkpt>
      <trkpt lat="46.79464" lon="6.47485">
        <ele>1444</ele>
        <time>2016-07-16T09:49:11Z</time>
      </trkpt>
      <trkpt lat="46.79458" lon="6.47495">
        <ele>1446</ele>
        <time>2016-07-16T09:49:16Z</time>
      </trkpt>
      <trkpt lat="46.79453" lon="6.47508">
        <ele>1456</ele>
        <time>2016-07-16T09:49:21Z</time>
      </trkpt>
      <trkpt lat="46.79455" lon="6.47512">
        <ele>1455</ele>
        <time>2016-07-16T09:49:25Z</time>
      </trkpt>
      <trkpt lat="46.79465" lon="6.47492">
        <ele>1443</ele>
        <time>2016-07-16T09:49:30Z</time>
      </trkpt>
      <trkpt lat="46.79471" lon="6.475">
        <ele>1448</ele>
        <time>2016-07-16T09:49:34Z</time>
      </trkpt>
      <trkpt lat="46.79473" lon="6.47512">
        <ele>1448</ele>
        <time>2016-07-16T09:49:39Z</time>
      </trkpt>
      <trkpt lat="46.79468" lon="6.47521">
        <ele>1451</ele>
        <time>2016-07-16T09:49:47Z</time>
      </trkpt>
      <trkpt lat="46.79473" lon="6.47529">
        <ele>1451</ele>
        <time>2016-07-16T09:49:53Z</time>
      </trkpt>
      <trkpt lat="46.79479" lon="6.4754">
        <ele>1451</ele>
        <time>2016-07-16T09:49:58Z</time>
      </trkpt>
      <trkpt lat="46.79486" lon="6.47548">
        <ele>1450</ele>
        <time>2016-07-16T09:50:04Z</time>
      </trkpt>
      <trkpt lat="46.79488" lon="6.47561">
        <ele>1450</ele>
        <time>2016-07-16T09:50:11Z</time>
      </trkpt>
      <trkpt lat="46.7949" lon="6.47572">
        <ele>1448</ele>
        <time>2016-07-16T09:50:16Z</time>
      </trkpt>
      <trkpt lat="46.79494" lon="6.47584">
        <ele>1448</ele>
        <time>2016-07-16T09:50:24Z</time>
      </trkpt>
      <trkpt lat="46.79495" lon="6.47597">
        <ele>1452</ele>
        <time>2016-07-16T09:50:34Z</time>
      </trkpt>
      <trkpt lat="46.79495" lon="6.47609">
        <ele>1455</ele>
        <time>2016-07-16T09:50:40Z</time>
      </trkpt>
      <trkpt lat="46.79493" lon="6.47619">
        <ele>1457</ele>
        <time>2016-07-16T09:50:44Z</time>
      </trkpt>
      <trkpt lat="46.79491" lon="6.47631">
        <ele>1458</ele>
        <time>2016-07-16T09:50:51Z</time>
      </trkpt>
      <trkpt lat="46.7949" lon="6.47644">
        <ele>1458</ele>
        <time>2016-07-16T09:51:02Z</time>
      </trkpt>
      <trkpt lat="46.79487" lon="6.47655">
        <ele>1458</ele>
        <time>2016-07-16T09:51:07Z</time>
      </trkpt>
      <trkpt lat="46.79489" lon="6.47668">
        <ele>1458</ele>
        <time>2016-07-16T09:51:12Z</time>
      </trkpt>
      <trkpt lat="46.79491" lon="6.47681">
        <ele>1460</ele>
        <time>2016-07-16T09:51:17Z</time>
      </trkpt>
      <trkpt lat="46.7949" lon="6.47693">
        <ele>1462</ele>
        <time>2016-07-16T09:51:23Z</time>
      </trkpt>
      <trkpt lat="46.79486" lon="6.47704">
        <ele>1464</ele>
        <time>2016-07-16T09:51:31Z</time>
      </trkpt>
      <trkpt lat="46.79487" lon="6.47717">
        <ele>1464</ele>
        <time>2016-07-16T09:51:36Z</time>
      </trkpt>
      <trkpt lat="46.79486" lon="6.47728">
        <ele>1464</ele>
        <time>2016-07-16T09:51:41Z</time>
      </trkpt>
      <trkpt lat="46.79486" lon="6.4774">
        <ele>1463</ele>
        <time>2016-07-16T09:51:47Z</time>
      </trkpt>
      <trkpt lat="46.79485" lon="6.47752">
        <ele>1465</ele>
        <time>2016-07-16T09:51:57Z</time>
      </trkpt>
      <trkpt lat="46.79483" lon="6.47766">
        <ele>1468</ele>
        <time>2016-07-16T09:52:02Z</time>
      </trkpt>
      <trkpt lat="46.79483" lon="6.47779">
        <ele>1470</ele>
        <time>2016-07-16T09:52:08Z</time>
      </trkpt>
      <trkpt lat="46.79487" lon="6.47791">
        <ele>1470</ele>
        <time>2016-07-16T09:52:13Z</time>
      </trkpt>
      <trkpt lat="46.79479" lon="6.47804">
        <ele>1472</ele>
        <time>2016-07-16T09:52:17Z</time>
      </trkpt>
      <trkpt lat="46.79486" lon="6.47812">
        <ele>1471</ele>
        <time>2016-07-16T09:52:22Z</time>
      </trkpt>
      <trkpt lat="46.79492" lon="6.47819">
        <ele>1469</ele>
        <time>2016-07-16T09:52:27Z</time>
      </trkpt>
      <trkpt lat="46.79498" lon="6.47829">
        <ele>1467</ele>
        <time>2016-07-16T09:52:34Z</time>
      </trkpt>
      <trkpt lat="46.79498" lon="6.47842">
        <ele>1470</ele>
        <time>2016-07-16T09:52:40Z</time>
      </trkpt>
      <trkpt lat="46.79502" lon="6.47852">
        <ele>1463</ele>
        <time>2016-07-16T09:52:46Z</time>
      </trkpt>
      <trkpt lat="46.79505" lon="6.47863">
        <ele>1463</ele>
        <time>2016-07-16T09:52:52Z</time>
      </trkpt>
      <trkpt lat="46.79506" lon="6.47875">
        <ele>1464</ele>
        <time>2016-07-16T09:53:00Z</time>
      </trkpt>
      <trkpt lat="46.79506" lon="6.47888">
        <ele>1466</ele>
        <time>2016-07-16T09:53:11Z</time>
      </trkpt>
      <trkpt lat="46.79502" lon="6.47898">
        <ele>1469</ele>
        <time>2016-07-16T09:53:17Z</time>
      </trkpt>
      <trkpt lat="46.79504" lon="6.47909">
        <ele>1473</ele>
        <time>2016-07-16T09:53:22Z</time>
      </trkpt>
      <trkpt lat="46.79511" lon="6.47916">
        <ele>1472</ele>
        <time>2016-07-16T09:53:31Z</time>
      </trkpt>
      <trkpt lat="46.79518" lon="6.47924">
        <ele>1475</ele>
        <time>2016-07-16T09:53:38Z</time>
      </trkpt>
      <trkpt lat="46.79513" lon="6.47934">
        <ele>1475</ele>
        <time>2016-07-16T09:53:43Z</time>
      </trkpt>
      <trkpt lat="46.79509" lon="6.47946">
        <ele>1476</ele>
        <time>2016-07-16T09:53:48Z</time>
      </trkpt>
      <trkpt lat="46.79503" lon="6.47955">
        <ele>1476</ele>
        <time>2016-07-16T09:53:55Z</time>
      </trkpt>
      <trkpt lat="46.79499" lon="6.47967">
        <ele>1489</ele>
        <time>2016-07-16T09:54:04Z</time>
      </trkpt>
      <trkpt lat="46.79498" lon="6.47976">
        <ele>1490</ele>
        <time>2016-07-16T09:57:02Z</time>
      </trkpt>
      <trkpt lat="46.79494" lon="6.47987">
        <ele>1490</ele>
        <time>2016-07-16T09:57:06Z</time>
      </trkpt>
      <trkpt lat="46.79492" lon="6.47999">
        <ele>1490</ele>
        <time>2016-07-16T09:57:10Z</time>
      </trkpt>
      <trkpt lat="46.79494" lon="6.48011">
        <ele>1493</ele>
        <time>2016-07-16T09:57:14Z</time>
      </trkpt>
      <trkpt lat="46.79501" lon="6.48027">
        <ele>1487</ele>
        <time>2016-07-16T09:57:19Z</time>
      </trkpt>
      <trkpt lat="46.79509" lon="6.48041">
        <ele>1488</ele>
        <time>2016-07-16T09:57:23Z</time>
      </trkpt>
      <trkpt lat="46.79512" lon="6.48054">
        <ele>1489</ele>
        <time>2016-07-16T09:57:28Z</time>
      </trkpt>
      <trkpt lat="46.79513" lon="6.48064">
        <ele>1490</ele>
        <time>2016-07-16T09:57:32Z</time>
      </trkpt>
      <trkpt lat="46.7952" lon="6.48075">
        <ele>1490</ele>
        <time>2016-07-16T09:57:37Z</time>
      </trkpt>
      <trkpt lat="46.79525" lon="6.48082">
        <ele>1490</ele>
        <time>2016-07-16T09:57:40Z</time>
      </trkpt>
      <trkpt lat="46.79533" lon="6.48093">
        <ele>1495</ele>
        <time>2016-07-16T09:57:44Z</time>
      </trkpt>
      <trkpt lat="46.79543" lon="6.48099">
        <ele>1493</ele>
        <time>2016-07-16T09:57:48Z</time>
      </trkpt>
      <trkpt lat="46.79549" lon="6.48101">
        <ele>1493</ele>
        <time>2016-07-16T09:57:54Z</time>
      </trkpt>
      <trkpt lat="46.79558" lon="6.48118">
        <ele>1493</ele>
        <time>2016-07-16T09:57:58Z</time>
      </trkpt>
      <trkpt lat="46.7956" lon="6.48133">
        <ele>1494</ele>
        <time>2016-07-16T09:58:03Z</time>
      </trkpt>
      <trkpt lat="46.79561" lon="6.48145">
        <ele>1494</ele>
        <time>2016-07-16T09:58:08Z</time>
      </trkpt>
      <trkpt lat="46.79563" lon="6.48157">
        <ele>1494</ele>
        <time>2016-07-16T09:58:13Z</time>
      </trkpt>
      <trkpt lat="46.79567" lon="6.48172">
        <ele>1496</ele>
        <time>2016-07-16T09:58:17Z</time>
      </trkpt>
      <trkpt lat="46.79571" lon="6.48185">
        <ele>1497</ele>
        <time>2016-07-16T09:58:22Z</time>
      </trkpt>
      <trkpt lat="46.79576" lon="6.48201">
        <ele>1498</ele>
        <time>2016-07-16T09:58:27Z</time>
      </trkpt>
      <trkpt lat="46.79579" lon="6.48214">
        <ele>1498</ele>
        <time>2016-07-16T09:58:31Z</time>
      </trkpt>
      <trkpt lat="46.7958" lon="6.48227">
        <ele>1498</ele>
        <time>2016-07-16T09:58:35Z</time>
      </trkpt>
      <trkpt lat="46.79584" lon="6.48241">
        <ele>1489</ele>
        <time>2016-07-16T09:58:39Z</time>
      </trkpt>
      <trkpt lat="46.79587" lon="6.48252">
        <ele>1493</ele>
        <time>2016-07-16T09:58:43Z</time>
      </trkpt>
      <trkpt lat="46.79588" lon="6.48264">
        <ele>1490</ele>
        <time>2016-07-16T09:58:48Z</time>
      </trkpt>
      <trkpt lat="46.7959" lon="6.48278">
        <ele>1488</ele>
        <time>2016-07-16T09:58:52Z</time>
      </trkpt>
      <trkpt lat="46.79587" lon="6.48292">
        <ele>1488</ele>
        <time>2016-07-16T09:58:57Z</time>
      </trkpt>
      <trkpt lat="46.79587" lon="6.48305">
        <ele>1489</ele>
        <time>2016-07-16T09:59:01Z</time>
      </trkpt>
      <trkpt lat="46.7959" lon="6.48318">
        <ele>1492</ele>
        <time>2016-07-16T09:59:05Z</time>
      </trkpt>
      <trkpt lat="46.79594" lon="6.48334">
        <ele>1496</ele>
        <time>2016-07-16T09:59:09Z</time>
      </trkpt>
      <trkpt lat="46.79596" lon="6.48352">
        <ele>1493</ele>
        <time>2016-07-16T09:59:14Z</time>
      </trkpt>
      <trkpt lat="46.79599" lon="6.48371">
        <ele>1492</ele>
        <time>2016-07-16T09:59:19Z</time>
      </trkpt>
      <trkpt lat="46.79599" lon="6.48389">
        <ele>1492</ele>
        <time>2016-07-16T09:59:23Z</time>
      </trkpt>
      <trkpt lat="46.79597" lon="6.48411">
        <ele>1495</ele>
        <time>2016-07-16T09:59:28Z</time>
      </trkpt>
      <trkpt lat="46.79593" lon="6.48424">
        <ele>1496</ele>
        <time>2016-07-16T09:59:32Z</time>
      </trkpt>
      <trkpt lat="46.7959" lon="6.48436">
        <ele>1495</ele>
        <time>2016-07-16T09:59:36Z</time>
      </trkpt>
      <trkpt lat="46.79594" lon="6.48447">
        <ele>1494</ele>
        <time>2016-07-16T09:59:40Z</time>
      </trkpt>
      <trkpt lat="46.79598" lon="6.4846">
        <ele>1493</ele>
        <time>2016-07-16T09:59:44Z</time>
      </trkpt>
      <trkpt lat="46.796" lon="6.48471">
        <ele>1493</ele>
        <time>2016-07-16T09:59:48Z</time>
      </trkpt>
      <trkpt lat="46.79607" lon="6.48487">
        <ele>1493</ele>
        <time>2016-07-16T09:59:53Z</time>
      </trkpt>
      <trkpt lat="46.79603" lon="6.48499">
        <ele>1493</ele>
        <time>2016-07-16T09:59:58Z</time>
      </trkpt>
      <trkpt lat="46.79602" lon="6.48506">
        <ele>1493</ele>
        <time>2016-07-16T10:00:02Z</time>
      </trkpt>
      <trkpt lat="46.79611" lon="6.48531">
        <ele>1491</ele>
        <time>2016-07-16T10:00:07Z</time>
      </trkpt>
      <trkpt lat="46.79617" lon="6.48547">
        <ele>1490</ele>
        <time>2016-07-16T10:00:11Z</time>
      </trkpt>
      <trkpt lat="46.79623" lon="6.48558">
        <ele>1490</ele>
        <time>2016-07-16T10:00:15Z</time>
      </trkpt>
      <trkpt lat="46.79626" lon="6.4857">
        <ele>1490</ele>
        <time>2016-07-16T10:00:20Z</time>
      </trkpt>
      <trkpt lat="46.79627" lon="6.48581">
        <ele>1490</ele>
        <time>2016-07-16T10:00:25Z</time>
      </trkpt>
      <trkpt lat="46.79628" lon="6.48593">
        <ele>1487</ele>
        <time>2016-07-16T10:00:30Z</time>
      </trkpt>
      <trkpt lat="46.79627" lon="6.48606">
        <ele>1486</ele>
        <time>2016-07-16T10:02:16Z</time>
      </trkpt>
      <trkpt lat="46.79626" lon="6.48618">
        <ele>1485</ele>
        <time>2016-07-16T10:02:23Z</time>
      </trkpt>
      <trkpt lat="46.79625" lon="6.48631">
        <ele>1485</ele>
        <time>2016-07-16T10:02:32Z</time>
      </trkpt>
      <trkpt lat="46.79627" lon="6.48643">
        <ele>1485</ele>
        <time>2016-07-16T10:02:52Z</time>
      </trkpt>
      <trkpt lat="46.79629" lon="6.48655">
        <ele>1484</ele>
        <time>2016-07-16T10:03:04Z</time>
      </trkpt>
      <trkpt lat="46.7962" lon="6.4865">
        <ele>1483</ele>
        <time>2016-07-16T10:13:16Z</time>
      </trkpt>
      <trkpt lat="46.79627" lon="6.48644">
        <ele>1484</ele>
        <time>2016-07-16T10:16:29Z</time>
      </trkpt>
      <trkpt lat="46.79625" lon="6.48622">
        <ele>1485</ele>
        <time>2016-07-16T10:16:33Z</time>
      </trkpt>
      <trkpt lat="46.79625" lon="6.48602">
        <ele>1486</ele>
        <time>2016-07-16T10:16:38Z</time>
      </trkpt>
      <trkpt lat="46.7963" lon="6.48611">
        <ele>1486</ele>
        <time>2016-07-16T10:17:26Z</time>
      </trkpt>
      <trkpt lat="46.79636" lon="6.48626">
        <ele>1486</ele>
        <time>2016-07-16T10:17:30Z</time>
      </trkpt>
      <trkpt lat="46.79642" lon="6.4864">
        <ele>1487</ele>
        <time>2016-07-16T10:17:34Z</time>
      </trkpt>
      <trkpt lat="46.79647" lon="6.48654">
        <ele>1488</ele>
        <time>2016-07-16T10:17:38Z</time>
      </trkpt>
      <trkpt lat="46.79651" lon="6.48669">
        <ele>1485</ele>
        <time>2016-07-16T10:17:43Z</time>
      </trkpt>
      <trkpt lat="46.79655" lon="6.4868">
        <ele>1485</ele>
        <time>2016-07-16T10:17:48Z</time>
      </trkpt>
      <trkpt lat="46.79659" lon="6.48691">
        <ele>1482</ele>
        <time>2016-07-16T10:17:53Z</time>
      </trkpt>
      <trkpt lat="46.79662" lon="6.48702">
        <ele>1481</ele>
        <time>2016-07-16T10:17:58Z</time>
      </trkpt>
      <trkpt lat="46.79666" lon="6.48712">
        <ele>1480</ele>
        <time>2016-07-16T10:18:03Z</time>
      </trkpt>
      <trkpt lat="46.79672" lon="6.48721">
        <ele>1490</ele>
        <time>2016-07-16T10:18:12Z</time>
      </trkpt>
      <trkpt lat="46.79676" lon="6.48733">
        <ele>1490</ele>
        <time>2016-07-16T10:18:20Z</time>
      </trkpt>
      <trkpt lat="46.7968" lon="6.48744">
        <ele>1489</ele>
        <time>2016-07-16T10:18:27Z</time>
      </trkpt>
      <trkpt lat="46.79681" lon="6.48756">
        <ele>1487</ele>
        <time>2016-07-16T10:18:33Z</time>
      </trkpt>
      <trkpt lat="46.79682" lon="6.48767">
        <ele>1486</ele>
        <time>2016-07-16T10:18:39Z</time>
      </trkpt>
      <trkpt lat="46.79684" lon="6.48779">
        <ele>1484</ele>
        <time>2016-07-16T10:18:45Z</time>
      </trkpt>
      <trkpt lat="46.79687" lon="6.48791">
        <ele>1483</ele>
        <time>2016-07-16T10:18:52Z</time>
      </trkpt>
      <trkpt lat="46.79691" lon="6.48801">
        <ele>1482</ele>
        <time>2016-07-16T10:18:57Z</time>
      </trkpt>
      <trkpt lat="46.79695" lon="6.48812">
        <ele>1481</ele>
        <time>2016-07-16T10:19:01Z</time>
      </trkpt>
      <trkpt lat="46.79698" lon="6.4882">
        <ele>1481</ele>
        <time>2016-07-16T10:19:04Z</time>
      </trkpt>
      <trkpt lat="46.79706" lon="6.48829">
        <ele>1482</ele>
        <time>2016-07-16T10:19:09Z</time>
      </trkpt>
      <trkpt lat="46.79717" lon="6.48828">
        <ele>1485</ele>
        <time>2016-07-16T10:19:14Z</time>
      </trkpt>
      <trkpt lat="46.79736" lon="6.48833">
        <ele>1489</ele>
        <time>2016-07-16T10:19:19Z</time>
      </trkpt>
      <trkpt lat="46.79749" lon="6.48849">
        <ele>1483</ele>
        <time>2016-07-16T10:19:23Z</time>
      </trkpt>
      <trkpt lat="46.79756" lon="6.48864">
        <ele>1485</ele>
        <time>2016-07-16T10:19:28Z</time>
      </trkpt>
      <trkpt lat="46.79774" lon="6.48885">
        <ele>1483</ele>
        <time>2016-07-16T10:19:32Z</time>
      </trkpt>
      <trkpt lat="46.79791" lon="6.48901">
        <ele>1482</ele>
        <time>2016-07-16T10:19:36Z</time>
      </trkpt>
      <trkpt lat="46.79805" lon="6.48919">
        <ele>1477</ele>
        <time>2016-07-16T10:19:42Z</time>
      </trkpt>
      <trkpt lat="46.79818" lon="6.4895">
        <ele>1476</ele>
        <time>2016-07-16T10:19:47Z</time>
      </trkpt>
      <trkpt lat="46.79826" lon="6.48968">
        <ele>1476</ele>
        <time>2016-07-16T10:19:51Z</time>
      </trkpt>
      <trkpt lat="46.79832" lon="6.48981">
        <ele>1476</ele>
        <time>2016-07-16T10:19:55Z</time>
      </trkpt>
      <trkpt lat="46.79839" lon="6.48997">
        <ele>1477</ele>
        <time>2016-07-16T10:20:00Z</time>
      </trkpt>
      <trkpt lat="46.79848" lon="6.4901">
        <ele>1471</ele>
        <time>2016-07-16T10:20:04Z</time>
      </trkpt>
      <trkpt lat="46.79851" lon="6.49018">
        <ele>1469</ele>
        <time>2016-07-16T10:22:21Z</time>
      </trkpt>
      <trkpt lat="46.7986" lon="6.49036">
        <ele>1466</ele>
        <time>2016-07-16T10:22:25Z</time>
      </trkpt>
      <trkpt lat="46.79874" lon="6.49063">
        <ele>1463</ele>
        <time>2016-07-16T10:22:30Z</time>
      </trkpt>
      <trkpt lat="46.79877" lon="6.49079">
        <ele>1463</ele>
        <time>2016-07-16T10:22:34Z</time>
      </trkpt>
      <trkpt lat="46.79881" lon="6.49098">
        <ele>1452</ele>
        <time>2016-07-16T10:22:39Z</time>
      </trkpt>
      <trkpt lat="46.79883" lon="6.49108">
        <ele>1451</ele>
        <time>2016-07-16T10:22:42Z</time>
      </trkpt>
      <trkpt lat="46.79887" lon="6.49118">
        <ele>1450</ele>
        <time>2016-07-16T10:22:47Z</time>
      </trkpt>
      <trkpt lat="46.79893" lon="6.49128">
        <ele>1449</ele>
        <time>2016-07-16T10:22:52Z</time>
      </trkpt>
      <trkpt lat="46.79898" lon="6.49138">
        <ele>1449</ele>
        <time>2016-07-16T10:22:56Z</time>
      </trkpt>
      <trkpt lat="46.79908" lon="6.49155">
        <ele>1449</ele>
        <time>2016-07-16T10:23:00Z</time>
      </trkpt>
      <trkpt lat="46.79918" lon="6.49172">
        <ele>1448</ele>
        <time>2016-07-16T10:23:05Z</time>
      </trkpt>
      <trkpt lat="46.79924" lon="6.49189">
        <ele>1443</ele>
        <time>2016-07-16T10:23:09Z</time>
      </trkpt>
      <trkpt lat="46.79926" lon="6.492">
        <ele>1441</ele>
        <time>2016-07-16T10:23:14Z</time>
      </trkpt>
      <trkpt lat="46.79929" lon="6.49211">
        <ele>1439</ele>
        <time>2016-07-16T10:23:18Z</time>
      </trkpt>
      <trkpt lat="46.79938" lon="6.49225">
        <ele>1438</ele>
        <time>2016-07-16T10:23:22Z</time>
      </trkpt>
      <trkpt lat="46.79945" lon="6.49242">
        <ele>1438</ele>
        <time>2016-07-16T10:23:27Z</time>
      </trkpt>
      <trkpt lat="46.79947" lon="6.49253">
        <ele>1432</ele>
        <time>2016-07-16T10:23:30Z</time>
      </trkpt>
      <trkpt lat="46.79947" lon="6.49267">
        <ele>1431</ele>
        <time>2016-07-16T10:23:34Z</time>
      </trkpt>
      <trkpt lat="46.79951" lon="6.4928">
        <ele>1430</ele>
        <time>2016-07-16T10:23:38Z</time>
      </trkpt>
      <trkpt lat="46.79958" lon="6.493">
        <ele>1428</ele>
        <time>2016-07-16T10:23:43Z</time>
      </trkpt>
      <trkpt lat="46.79971" lon="6.49319">
        <ele>1429</ele>
        <time>2016-07-16T10:23:48Z</time>
      </trkpt>
      <trkpt lat="46.79982" lon="6.49334">
        <ele>1423</ele>
        <time>2016-07-16T10:23:52Z</time>
      </trkpt>
      <trkpt lat="46.79998" lon="6.4936">
        <ele>1420</ele>
        <time>2016-07-16T10:23:57Z</time>
      </trkpt>
      <trkpt lat="46.80011" lon="6.49376">
        <ele>1419</ele>
        <time>2016-07-16T10:24:01Z</time>
      </trkpt>
      <trkpt lat="46.8002" lon="6.49393">
        <ele>1417</ele>
        <time>2016-07-16T10:24:05Z</time>
      </trkpt>
      <trkpt lat="46.80015" lon="6.49402">
        <ele>1417</ele>
        <time>2016-07-16T10:26:02Z</time>
      </trkpt>
      <trkpt lat="46.80015" lon="6.49412">
        <ele>1417</ele>
        <time>2016-07-16T10:26:05Z</time>
      </trkpt>
      <trkpt lat="46.80021" lon="6.49438">
        <ele>1410</ele>
        <time>2016-07-16T10:26:09Z</time>
      </trkpt>
      <trkpt lat="46.80031" lon="6.49467">
        <ele>1408</ele>
        <time>2016-07-16T10:26:13Z</time>
      </trkpt>
      <trkpt lat="46.80032" lon="6.4948">
        <ele>1407</ele>
        <time>2016-07-16T10:26:54Z</time>
      </trkpt>
      <trkpt lat="46.80032" lon="6.49493">
        <ele>1406</ele>
        <time>2016-07-16T10:27:10Z</time>
      </trkpt>
      <trkpt lat="46.80032" lon="6.49506">
        <ele>1399</ele>
        <time>2016-07-16T10:27:19Z</time>
      </trkpt>
      <trkpt lat="46.80033" lon="6.49519">
        <ele>1399</ele>
        <time>2016-07-16T10:27:38Z</time>
      </trkpt>
      <trkpt lat="46.8003" lon="6.49508">
        <ele>1399</ele>
        <time>2016-07-16T10:29:53Z</time>
      </trkpt>
      <trkpt lat="46.80034" lon="6.49497">
        <ele>1406</ele>
        <time>2016-07-16T10:29:58Z</time>
      </trkpt>
      <trkpt lat="46.80041" lon="6.49506">
        <ele>1400</ele>
        <time>2016-07-16T10:30:10Z</time>
      </trkpt>
      <trkpt lat="46.80034" lon="6.49513">
        <ele>1399</ele>
        <time>2016-07-16T10:30:18Z</time>
      </trkpt>
      <trkpt lat="46.80032" lon="6.49524">
        <ele>1398</ele>
        <time>2016-07-16T10:30:26Z</time>
      </trkpt>
      <trkpt lat="46.80037" lon="6.4953">
        <ele>1399</ele>
        <time>2016-07-16T10:30:32Z</time>
      </trkpt>
      <trkpt lat="46.80038" lon="6.49541">
        <ele>1398</ele>
        <time>2016-07-16T10:30:48Z</time>
      </trkpt>
      <trkpt lat="46.80045" lon="6.49553">
        <ele>1398</ele>
        <time>2016-07-16T10:30:52Z</time>
      </trkpt>
      <trkpt lat="46.80057" lon="6.49579">
        <ele>1400</ele>
        <time>2016-07-16T10:30:57Z</time>
      </trkpt>
      <trkpt lat="46.80061" lon="6.49586">
        <ele>1392</ele>
        <time>2016-07-16T10:30:59Z</time>
      </trkpt>
      <trkpt lat="46.80064" lon="6.49593">
        <ele>1393</ele>
        <time>2016-07-16T10:31:02Z</time>
      </trkpt>
      <trkpt lat="46.80076" lon="6.49637">
        <ele>1388</ele>
        <time>2016-07-16T10:31:06Z</time>
      </trkpt>
      <trkpt lat="46.80083" lon="6.49663">
        <ele>1395</ele>
        <time>2016-07-16T10:31:10Z</time>
      </trkpt>
      <trkpt lat="46.80091" lon="6.49684">
        <ele>1390</ele>
        <time>2016-07-16T10:31:14Z</time>
      </trkpt>
      <trkpt lat="46.80103" lon="6.49704">
        <ele>1386</ele>
        <time>2016-07-16T10:31:19Z</time>
      </trkpt>
      <trkpt lat="46.80109" lon="6.49727">
        <ele>1383</ele>
        <time>2016-07-16T10:31:23Z</time>
      </trkpt>
      <trkpt lat="46.80115" lon="6.49754">
        <ele>1374</ele>
        <time>2016-07-16T10:31:27Z</time>
      </trkpt>
      <trkpt lat="46.80129" lon="6.49779">
        <ele>1375</ele>
        <time>2016-07-16T10:31:32Z</time>
      </trkpt>
      <trkpt lat="46.80132" lon="6.49789">
        <ele>1374</ele>
        <time>2016-07-16T10:31:36Z</time>
      </trkpt>
      <trkpt lat="46.80134" lon="6.49801">
        <ele>1374</ele>
        <time>2016-07-16T10:31:44Z</time>
      </trkpt>
      <trkpt lat="46.80139" lon="6.49813">
        <ele>1376</ele>
        <time>2016-07-16T10:31:49Z</time>
      </trkpt>
      <trkpt lat="46.80146" lon="6.49832">
        <ele>1379</ele>
        <time>2016-07-16T10:31:54Z</time>
      </trkpt>
      <trkpt lat="46.80142" lon="6.49854">
        <ele>1365</ele>
        <time>2016-07-16T10:31:58Z</time>
      </trkpt>
      <trkpt lat="46.80147" lon="6.4987">
        <ele>1364</ele>
        <time>2016-07-16T10:32:02Z</time>
      </trkpt>
      <trkpt lat="46.80152" lon="6.49885">
        <ele>1363</ele>
        <time>2016-07-16T10:32:06Z</time>
      </trkpt>
      <trkpt lat="46.80154" lon="6.49911">
        <ele>1366</ele>
        <time>2016-07-16T10:32:11Z</time>
      </trkpt>
      <trkpt lat="46.80159" lon="6.49928">
        <ele>1354</ele>
        <time>2016-07-16T10:32:15Z</time>
      </trkpt>
      <trkpt lat="46.80165" lon="6.49941">
        <ele>1346</ele>
        <time>2016-07-16T10:32:19Z</time>
      </trkpt>
      <trkpt lat="46.80172" lon="6.49958">
        <ele>1360</ele>
        <time>2016-07-16T10:32:23Z</time>
      </trkpt>
      <trkpt lat="46.80179" lon="6.49968">
        <ele>1357</ele>
        <time>2016-07-16T10:32:28Z</time>
      </trkpt>
      <trkpt lat="46.80184" lon="6.4998">
        <ele>1355</ele>
        <time>2016-07-16T10:32:33Z</time>
      </trkpt>
      <trkpt lat="46.80188" lon="6.4999">
        <ele>1354</ele>
        <time>2016-07-16T10:32:54Z</time>
      </trkpt>
      <trkpt lat="46.80196" lon="6.49994">
        <ele>1356</ele>
        <time>2016-07-16T10:32:59Z</time>
      </trkpt>
      <trkpt lat="46.80204" lon="6.49994">
        <ele>1358</ele>
        <time>2016-07-16T10:33:04Z</time>
      </trkpt>
      <trkpt lat="46.80214" lon="6.50003">
        <ele>1347</ele>
        <time>2016-07-16T10:33:09Z</time>
      </trkpt>
      <trkpt lat="46.80223" lon="6.50022">
        <ele>1347</ele>
        <time>2016-07-16T10:33:13Z</time>
      </trkpt>
      <trkpt lat="46.8023" lon="6.50033">
        <ele>1347</ele>
        <time>2016-07-16T10:33:18Z</time>
      </trkpt>
      <trkpt lat="46.80235" lon="6.50041">
        <ele>1346</ele>
        <time>2016-07-16T10:33:24Z</time>
      </trkpt>
      <trkpt lat="46.80238" lon="6.50054">
        <ele>1346</ele>
        <time>2016-07-16T10:33:29Z</time>
      </trkpt>
      <trkpt lat="46.80241" lon="6.50066">
        <ele>1347</ele>
        <time>2016-07-16T10:33:34Z</time>
      </trkpt>
      <trkpt lat="46.80245" lon="6.50093">
        <ele>1338</ele>
        <time>2016-07-16T10:33:38Z</time>
      </trkpt>
      <trkpt lat="46.80243" lon="6.50132">
        <ele>1315</ele>
        <time>2016-07-16T10:33:43Z</time>
      </trkpt>
      <trkpt lat="46.80246" lon="6.50153">
        <ele>1316</ele>
        <time>2016-07-16T10:33:48Z</time>
      </trkpt>
      <trkpt lat="46.80257" lon="6.50174">
        <ele>1325</ele>
        <time>2016-07-16T10:33:52Z</time>
      </trkpt>
      <trkpt lat="46.80263" lon="6.50204">
        <ele>1329</ele>
        <time>2016-07-16T10:33:56Z</time>
      </trkpt>
      <trkpt lat="46.80267" lon="6.50228">
        <ele>1327</ele>
        <time>2016-07-16T10:33:59Z</time>
      </trkpt>
      <trkpt lat="46.80275" lon="6.50261">
        <ele>1322</ele>
        <time>2016-07-16T10:34:04Z</time>
      </trkpt>
      <trkpt lat="46.80275" lon="6.50294">
        <ele>1322</ele>
        <time>2016-07-16T10:34:09Z</time>
      </trkpt>
      <trkpt lat="46.80275" lon="6.50309">
        <ele>1320</ele>
        <time>2016-07-16T10:34:13Z</time>
      </trkpt>
      <trkpt lat="46.80273" lon="6.5033">
        <ele>1317</ele>
        <time>2016-07-16T10:34:17Z</time>
      </trkpt>
      <trkpt lat="46.80274" lon="6.50346">
        <ele>1315</ele>
        <time>2016-07-16T10:34:21Z</time>
      </trkpt>
      <trkpt lat="46.80276" lon="6.50357">
        <ele>1316</ele>
        <time>2016-07-16T10:34:25Z</time>
      </trkpt>
      <trkpt lat="46.80274" lon="6.50374">
        <ele>1316</ele>
        <time>2016-07-16T10:34:30Z</time>
      </trkpt>
      <trkpt lat="46.80281" lon="6.50405">
        <ele>1315</ele>
        <time>2016-07-16T10:34:34Z</time>
      </trkpt>
      <trkpt lat="46.8029" lon="6.50429">
        <ele>1315</ele>
        <time>2016-07-16T10:34:39Z</time>
      </trkpt>
      <trkpt lat="46.80298" lon="6.50461">
        <ele>1316</ele>
        <time>2016-07-16T10:34:43Z</time>
      </trkpt>
      <trkpt lat="46.80304" lon="6.50473">
        <ele>1317</ele>
        <time>2016-07-16T10:34:46Z</time>
      </trkpt>
      <trkpt lat="46.80303" lon="6.50484">
        <ele>1317</ele>
        <time>2016-07-16T10:34:56Z</time>
      </trkpt>
      <trkpt lat="46.803" lon="6.50493">
        <ele>1316</ele>
        <time>2016-07-16T10:35:17Z</time>
      </trkpt>
      <trkpt lat="46.80314" lon="6.50523">
        <ele>1312</ele>
        <time>2016-07-16T10:35:20Z</time>
      </trkpt>
      <trkpt lat="46.80324" lon="6.50574">
        <ele>1311</ele>
        <time>2016-07-16T10:35:25Z</time>
      </trkpt>
      <trkpt lat="46.80335" lon="6.50604">
        <ele>1312</ele>
        <time>2016-07-16T10:35:29Z</time>
      </trkpt>
      <trkpt lat="46.80349" lon="6.50634">
        <ele>1310</ele>
        <time>2016-07-16T10:35:33Z</time>
      </trkpt>
      <trkpt lat="46.80352" lon="6.50648">
        <ele>1309</ele>
        <time>2016-07-16T10:35:37Z</time>
      </trkpt>
      <trkpt lat="46.80363" lon="6.50687">
        <ele>1303</ele>
        <time>2016-07-16T10:35:42Z</time>
      </trkpt>
      <trkpt lat="46.80381" lon="6.5073">
        <ele>1301</ele>
        <time>2016-07-16T10:35:46Z</time>
      </trkpt>
      <trkpt lat="46.80384" lon="6.50756">
        <ele>1294</ele>
        <time>2016-07-16T10:35:50Z</time>
      </trkpt>
      <trkpt lat="46.80377" lon="6.50774">
        <ele>1293</ele>
        <time>2016-07-16T10:35:55Z</time>
      </trkpt>
      <trkpt lat="46.80346" lon="6.50779">
        <ele>1293</ele>
        <time>2016-07-16T10:36:00Z</time>
      </trkpt>
      <trkpt lat="46.80334" lon="6.50787">
        <ele>1292</ele>
        <time>2016-07-16T10:36:04Z</time>
      </trkpt>
      <trkpt lat="46.80321" lon="6.50799">
        <ele>1277</ele>
        <time>2016-07-16T10:36:09Z</time>
      </trkpt>
      <trkpt lat="46.80313" lon="6.50812">
        <ele>1275</ele>
        <time>2016-07-16T10:36:13Z</time>
      </trkpt>
      <trkpt lat="46.80303" lon="6.50827">
        <ele>1273</ele>
        <time>2016-07-16T10:36:16Z</time>
      </trkpt>
      <trkpt lat="46.8031" lon="6.50853">
        <ele>1269</ele>
        <time>2016-07-16T10:36:20Z</time>
      </trkpt>
      <trkpt lat="46.80314" lon="6.50864">
        <ele>1269</ele>
        <time>2016-07-16T10:36:30Z</time>
      </trkpt>
      <trkpt lat="46.80312" lon="6.50877">
        <ele>1268</ele>
        <time>2016-07-16T10:36:44Z</time>
      </trkpt>
      <trkpt lat="46.80311" lon="6.50893">
        <ele>1268</ele>
        <time>2016-07-16T10:36:48Z</time>
      </trkpt>
      <trkpt lat="46.80312" lon="6.50908">
        <ele>1269</ele>
        <time>2016-07-16T10:36:52Z</time>
      </trkpt>
      <trkpt lat="46.80311" lon="6.50924">
        <ele>1265</ele>
        <time>2016-07-16T10:36:56Z</time>
      </trkpt>
      <trkpt lat="46.80312" lon="6.50944">
        <ele>1263</ele>
        <time>2016-07-16T10:37:00Z</time>
      </trkpt>
      <trkpt lat="46.80314" lon="6.50968">
        <ele>1262</ele>
        <time>2016-07-16T10:37:05Z</time>
      </trkpt>
      <trkpt lat="46.80316" lon="6.50981">
        <ele>1263</ele>
        <time>2016-07-16T10:37:09Z</time>
      </trkpt>
      <trkpt lat="46.8032" lon="6.50996">
        <ele>1266</ele>
        <time>2016-07-16T10:37:14Z</time>
      </trkpt>
      <trkpt lat="46.80324" lon="6.51018">
        <ele>1260</ele>
        <time>2016-07-16T10:37:19Z</time>
      </trkpt>
      <trkpt lat="46.8033" lon="6.51044">
        <ele>1257</ele>
        <time>2016-07-16T10:37:23Z</time>
      </trkpt>
      <trkpt lat="46.80335" lon="6.51064">
        <ele>1272</ele>
        <time>2016-07-16T10:37:28Z</time>
      </trkpt>
      <trkpt lat="46.80339" lon="6.51086">
        <ele>1272</ele>
        <time>2016-07-16T10:37:33Z</time>
      </trkpt>
      <trkpt lat="46.80343" lon="6.51102">
        <ele>1272</ele>
        <time>2016-07-16T10:37:37Z</time>
      </trkpt>
      <trkpt lat="46.80351" lon="6.51117">
        <ele>1272</ele>
        <time>2016-07-16T10:37:41Z</time>
      </trkpt>
      <trkpt lat="46.80357" lon="6.51131">
        <ele>1272</ele>
        <time>2016-07-16T10:37:45Z</time>
      </trkpt>
      <trkpt lat="46.80363" lon="6.51152">
        <ele>1272</ele>
        <time>2016-07-16T10:37:50Z</time>
      </trkpt>
      <trkpt lat="46.80366" lon="6.51166">
        <ele>1272</ele>
        <time>2016-07-16T10:37:55Z</time>
      </trkpt>
      <trkpt lat="46.80363" lon="6.51177">
        <ele>1270</ele>
        <time>2016-07-16T10:38:00Z</time>
      </trkpt>
      <trkpt lat="46.80365" lon="6.51188">
        <ele>1270</ele>
        <time>2016-07-16T10:38:05Z</time>
      </trkpt>
      <trkpt lat="46.80368" lon="6.51201">
        <ele>1270</ele>
        <time>2016-07-16T10:38:10Z</time>
      </trkpt>
      <trkpt lat="46.80372" lon="6.51213">
        <ele>1269</ele>
        <time>2016-07-16T10:38:13Z</time>
      </trkpt>
      <trkpt lat="46.80377" lon="6.51248">
        <ele>1269</ele>
        <time>2016-07-16T10:38:17Z</time>
      </trkpt>
      <trkpt lat="46.8037" lon="6.51279">
        <ele>1264</ele>
        <time>2016-07-16T10:38:22Z</time>
      </trkpt>
      <trkpt lat="46.80365" lon="6.51295">
        <ele>1262</ele>
        <time>2016-07-16T10:38:27Z</time>
      </trkpt>
      <trkpt lat="46.8036" lon="6.51303">
        <ele>1261</ele>
        <time>2016-07-16T10:38:30Z</time>
      </trkpt>
      <trkpt lat="46.80356" lon="6.51312">
        <ele>1259</ele>
        <time>2016-07-16T10:39:00Z</time>
      </trkpt>
      <trkpt lat="46.8035" lon="6.51319">
        <ele>1257</ele>
        <time>2016-07-16T10:39:15Z</time>
      </trkpt>
      <trkpt lat="46.80342" lon="6.51321">
        <ele>1254</ele>
        <time>2016-07-16T10:39:20Z</time>
      </trkpt>
      <trkpt lat="46.80334" lon="6.51323">
        <ele>1251</ele>
        <time>2016-07-16T10:39:24Z</time>
      </trkpt>
      <trkpt lat="46.80325" lon="6.51323">
        <ele>1234</ele>
        <time>2016-07-16T10:39:31Z</time>
      </trkpt>
      <trkpt lat="46.80334" lon="6.51322">
        <ele>1252</ele>
        <time>2016-07-16T10:41:37Z</time>
      </trkpt>
      <trkpt lat="46.80342" lon="6.5132">
        <ele>1254</ele>
        <time>2016-07-16T10:41:44Z</time>
      </trkpt>
      <trkpt lat="46.80351" lon="6.51322">
        <ele>1256</ele>
        <time>2016-07-16T10:42:02Z</time>
      </trkpt>
      <trkpt lat="46.80359" lon="6.51324">
        <ele>1258</ele>
        <time>2016-07-16T10:42:20Z</time>
      </trkpt>
      <trkpt lat="46.80362" lon="6.51336">
        <ele>1256</ele>
        <time>2016-07-16T10:42:23Z</time>
      </trkpt>
      <trkpt lat="46.80367" lon="6.51341">
        <ele>1258</ele>
        <time>2016-07-16T10:42:27Z</time>
      </trkpt>
      <trkpt lat="46.80377" lon="6.51362">
        <ele>1260</ele>
        <time>2016-07-16T10:42:32Z</time>
      </trkpt>
      <trkpt lat="46.80375" lon="6.51375">
        <ele>1259</ele>
        <time>2016-07-16T10:42:59Z</time>
      </trkpt>
      <trkpt lat="46.80372" lon="6.51385">
        <ele>1259</ele>
        <time>2016-07-16T10:43:06Z</time>
      </trkpt>
      <trkpt lat="46.80372" lon="6.51395">
        <ele>1258</ele>
        <time>2016-07-16T10:43:10Z</time>
      </trkpt>
      <trkpt lat="46.80369" lon="6.51405">
        <ele>1257</ele>
        <time>2016-07-16T10:43:21Z</time>
      </trkpt>
      <trkpt lat="46.80368" lon="6.51417">
        <ele>1254</ele>
        <time>2016-07-16T10:43:26Z</time>
      </trkpt>
      <trkpt lat="46.80365" lon="6.51431">
        <ele>1254</ele>
        <time>2016-07-16T10:43:30Z</time>
      </trkpt>
      <trkpt lat="46.80364" lon="6.51446">
        <ele>1254</ele>
        <time>2016-07-16T10:43:35Z</time>
      </trkpt>
      <trkpt lat="46.80374" lon="6.5146">
        <ele>1255</ele>
        <time>2016-07-16T10:43:39Z</time>
      </trkpt>
      <trkpt lat="46.80386" lon="6.51474">
        <ele>1257</ele>
        <time>2016-07-16T10:43:44Z</time>
      </trkpt>
      <trkpt lat="46.80398" lon="6.51502">
        <ele>1261</ele>
        <time>2016-07-16T10:43:49Z</time>
      </trkpt>
      <trkpt lat="46.80391" lon="6.51512">
        <ele>1259</ele>
        <time>2016-07-16T10:43:53Z</time>
      </trkpt>
      <trkpt lat="46.80384" lon="6.51528">
        <ele>1257</ele>
        <time>2016-07-16T10:43:58Z</time>
      </trkpt>
      <trkpt lat="46.80381" lon="6.5154">
        <ele>1256</ele>
        <time>2016-07-16T10:44:02Z</time>
      </trkpt>
      <trkpt lat="46.80382" lon="6.5155">
        <ele>1257</ele>
        <time>2016-07-16T10:44:06Z</time>
      </trkpt>
      <trkpt lat="46.80384" lon="6.51562">
        <ele>1258</ele>
        <time>2016-07-16T10:44:10Z</time>
      </trkpt>
      <trkpt lat="46.80383" lon="6.51581">
        <ele>1258</ele>
        <time>2016-07-16T10:44:15Z</time>
      </trkpt>
      <trkpt lat="46.80379" lon="6.51599">
        <ele>1261</ele>
        <time>2016-07-16T10:44:19Z</time>
      </trkpt>
      <trkpt lat="46.80379" lon="6.51615">
        <ele>1261</ele>
        <time>2016-07-16T10:44:23Z</time>
      </trkpt>
      <trkpt lat="46.8038" lon="6.51631">
        <ele>1262</ele>
        <time>2016-07-16T10:44:27Z</time>
      </trkpt>
      <trkpt lat="46.80377" lon="6.51648">
        <ele>1262</ele>
        <time>2016-07-16T10:44:31Z</time>
      </trkpt>
      <trkpt lat="46.80371" lon="6.51663">
        <ele>1262</ele>
        <time>2016-07-16T10:44:35Z</time>
      </trkpt>
      <trkpt lat="46.80362" lon="6.51677">
        <ele>1263</ele>
        <time>2016-07-16T10:44:40Z</time>
      </trkpt>
      <trkpt lat="46.80359" lon="6.51684">
        <ele>1263</ele>
        <time>2016-07-16T10:44:43Z</time>
      </trkpt>
      <trkpt lat="46.80354" lon="6.51699">
        <ele>1263</ele>
        <time>2016-07-16T10:44:48Z</time>
      </trkpt>
      <trkpt lat="46.8035" lon="6.51724">
        <ele>1263</ele>
        <time>2016-07-16T10:44:53Z</time>
      </trkpt>
      <trkpt lat="46.80349" lon="6.51742">
        <ele>1262</ele>
        <time>2016-07-16T10:44:58Z</time>
      </trkpt>
      <trkpt lat="46.80354" lon="6.51762">
        <ele>1262</ele>
        <time>2016-07-16T10:45:02Z</time>
      </trkpt>
      <trkpt lat="46.80355" lon="6.51773">
        <ele>1262</ele>
        <time>2016-07-16T10:45:09Z</time>
      </trkpt>
      <trkpt lat="46.80358" lon="6.51784">
        <ele>1263</ele>
        <time>2016-07-16T10:45:12Z</time>
      </trkpt>
      <trkpt lat="46.80363" lon="6.51802">
        <ele>1263</ele>
        <time>2016-07-16T10:45:16Z</time>
      </trkpt>
      <trkpt lat="46.80365" lon="6.5183">
        <ele>1262</ele>
        <time>2016-07-16T10:45:20Z</time>
      </trkpt>
      <trkpt lat="46.80365" lon="6.51864">
        <ele>1261</ele>
        <time>2016-07-16T10:45:25Z</time>
      </trkpt>
      <trkpt lat="46.80369" lon="6.51901">
        <ele>1261</ele>
        <time>2016-07-16T10:45:30Z</time>
      </trkpt>
      <trkpt lat="46.80373" lon="6.51914">
        <ele>1261</ele>
        <time>2016-07-16T10:45:34Z</time>
      </trkpt>
      <trkpt lat="46.80377" lon="6.51925">
        <ele>1258</ele>
        <time>2016-07-16T10:46:01Z</time>
      </trkpt>
      <trkpt lat="46.8039" lon="6.51932">
        <ele>1258</ele>
        <time>2016-07-16T10:46:06Z</time>
      </trkpt>
      <trkpt lat="46.804" lon="6.51943">
        <ele>1258</ele>
        <time>2016-07-16T10:46:10Z</time>
      </trkpt>
      <trkpt lat="46.8042" lon="6.5197">
        <ele>1258</ele>
        <time>2016-07-16T10:46:14Z</time>
      </trkpt>
      <trkpt lat="46.80439" lon="6.51994">
        <ele>1257</ele>
        <time>2016-07-16T10:46:18Z</time>
      </trkpt>
      <trkpt lat="46.8045" lon="6.52039">
        <ele>1249</ele>
        <time>2016-07-16T10:46:23Z</time>
      </trkpt>
      <trkpt lat="46.80461" lon="6.52071">
        <ele>1247</ele>
        <time>2016-07-16T10:46:26Z</time>
      </trkpt>
      <trkpt lat="46.80457" lon="6.52091">
        <ele>1238</ele>
        <time>2016-07-16T10:46:30Z</time>
      </trkpt>
      <trkpt lat="46.80454" lon="6.52105">
        <ele>1237</ele>
        <time>2016-07-16T10:46:34Z</time>
      </trkpt>
      <trkpt lat="46.80436" lon="6.52145">
        <ele>1233</ele>
        <time>2016-07-16T10:46:38Z</time>
      </trkpt>
      <trkpt lat="46.80424" lon="6.52164">
        <ele>1230</ele>
        <time>2016-07-16T10:46:43Z</time>
      </trkpt>
      <trkpt lat="46.80419" lon="6.52173">
        <ele>1227</ele>
        <time>2016-07-16T10:47:03Z</time>
      </trkpt>
      <trkpt lat="46.8041" lon="6.52175">
        <ele>1221</ele>
        <time>2016-07-16T10:47:08Z</time>
      </trkpt>
      <trkpt lat="46.80402" lon="6.52174">
        <ele>1219</ele>
        <time>2016-07-16T10:47:20Z</time>
      </trkpt>
      <trkpt lat="46.80389" lon="6.52162">
        <ele>1225</ele>
        <time>2016-07-16T10:47:25Z</time>
      </trkpt>
      <trkpt lat="46.80382" lon="6.52156">
        <ele>1225</ele>
        <time>2016-07-16T10:47:28Z</time>
      </trkpt>
      <trkpt lat="46.80368" lon="6.52136">
        <ele>1224</ele>
        <time>2016-07-16T10:47:33Z</time>
      </trkpt>
      <trkpt lat="46.80358" lon="6.52129">
        <ele>1224</ele>
        <time>2016-07-16T10:47:37Z</time>
      </trkpt>
      <trkpt lat="46.80351" lon="6.52119">
        <ele>1225</ele>
        <time>2016-07-16T10:47:41Z</time>
      </trkpt>
      <trkpt lat="46.80342" lon="6.52111">
        <ele>1226</ele>
        <time>2016-07-16T10:47:45Z</time>
      </trkpt>
      <trkpt lat="46.80329" lon="6.52115">
        <ele>1214</ele>
        <time>2016-07-16T10:47:49Z</time>
      </trkpt>
      <trkpt lat="46.80325" lon="6.52131">
        <ele>1211</ele>
        <time>2016-07-16T10:47:53Z</time>
      </trkpt>
      <trkpt lat="46.80324" lon="6.52161">
        <ele>1208</ele>
        <time>2016-07-16T10:47:58Z</time>
      </trkpt>
      <trkpt lat="46.80327" lon="6.52214">
        <ele>1192</ele>
        <time>2016-07-16T10:48:03Z</time>
      </trkpt>
      <trkpt lat="46.80334" lon="6.52235">
        <ele>1197</ele>
        <time>2016-07-16T10:48:07Z</time>
      </trkpt>
      <trkpt lat="46.80341" lon="6.52243">
        <ele>1195</ele>
        <time>2016-07-16T10:48:12Z</time>
      </trkpt>
      <trkpt lat="46.80343" lon="6.52256">
        <ele>1189</ele>
        <time>2016-07-16T10:48:15Z</time>
      </trkpt>
      <trkpt lat="46.80352" lon="6.52271">
        <ele>1190</ele>
        <time>2016-07-16T10:48:20Z</time>
      </trkpt>
      <trkpt lat="46.80356" lon="6.52285">
        <ele>1189</ele>
        <time>2016-07-16T10:48:24Z</time>
      </trkpt>
      <trkpt lat="46.80359" lon="6.52298">
        <ele>1188</ele>
        <time>2016-07-16T10:48:28Z</time>
      </trkpt>
      <trkpt lat="46.80362" lon="6.52314">
        <ele>1186</ele>
        <time>2016-07-16T10:48:32Z</time>
      </trkpt>
      <trkpt lat="46.80364" lon="6.52334">
        <ele>1174</ele>
        <time>2016-07-16T10:48:37Z</time>
      </trkpt>
      <trkpt lat="46.80366" lon="6.52355">
        <ele>1173</ele>
        <time>2016-07-16T10:48:41Z</time>
      </trkpt>
      <trkpt lat="46.80378" lon="6.52389">
        <ele>1172</ele>
        <time>2016-07-16T10:48:45Z</time>
      </trkpt>
      <trkpt lat="46.80389" lon="6.52423">
        <ele>1161</ele>
        <time>2016-07-16T10:48:50Z</time>
      </trkpt>
      <trkpt lat="46.80393" lon="6.52433">
        <ele>1161</ele>
        <time>2016-07-16T10:49:12Z</time>
      </trkpt>
      <trkpt lat="46.80402" lon="6.52451">
        <ele>1159</ele>
        <time>2016-07-16T10:49:17Z</time>
      </trkpt>
      <trkpt lat="46.80424" lon="6.5249">
        <ele>1166</ele>
        <time>2016-07-16T10:49:22Z</time>
      </trkpt>
      <trkpt lat="46.8042" lon="6.52509">
        <ele>1160</ele>
        <time>2016-07-16T10:49:26Z</time>
      </trkpt>
      <trkpt lat="46.80404" lon="6.52524">
        <ele>1147</ele>
        <time>2016-07-16T10:49:30Z</time>
      </trkpt>
      <trkpt lat="46.80384" lon="6.52539">
        <ele>1142</ele>
        <time>2016-07-16T10:49:35Z</time>
      </trkpt>
      <trkpt lat="46.80368" lon="6.52546">
        <ele>1140</ele>
        <time>2016-07-16T10:49:39Z</time>
      </trkpt>
      <trkpt lat="46.80349" lon="6.52543">
        <ele>1138</ele>
        <time>2016-07-16T10:49:44Z</time>
      </trkpt>
      <trkpt lat="46.80341" lon="6.52545">
        <ele>1137</ele>
        <time>2016-07-16T10:51:00Z</time>
      </trkpt>
      <trkpt lat="46.80314" lon="6.52541">
        <ele>1121</ele>
        <time>2016-07-16T10:51:04Z</time>
      </trkpt>
      <trkpt lat="46.80294" lon="6.52529">
        <ele>1119</ele>
        <time>2016-07-16T10:51:09Z</time>
      </trkpt>
      <trkpt lat="46.8028" lon="6.52526">
        <ele>1116</ele>
        <time>2016-07-16T10:51:13Z</time>
      </trkpt>
      <trkpt lat="46.80268" lon="6.52523">
        <ele>1115</ele>
        <time>2016-07-16T10:51:17Z</time>
      </trkpt>
      <trkpt lat="46.80253" lon="6.52515">
        <ele>1113</ele>
        <time>2016-07-16T10:51:21Z</time>
      </trkpt>
      <trkpt lat="46.80241" lon="6.52505">
        <ele>1104</ele>
        <time>2016-07-16T10:51:25Z</time>
      </trkpt>
      <trkpt lat="46.80222" lon="6.52495">
        <ele>1106</ele>
        <time>2016-07-16T10:51:29Z</time>
      </trkpt>
      <trkpt lat="46.80193" lon="6.52487">
        <ele>1099</ele>
        <time>2016-07-16T10:51:34Z</time>
      </trkpt>
      <trkpt lat="46.80185" lon="6.52481">
        <ele>1098</ele>
        <time>2016-07-16T10:51:48Z</time>
      </trkpt>
      <trkpt lat="46.8017" lon="6.52476">
        <ele>1096</ele>
        <time>2016-07-16T10:51:52Z</time>
      </trkpt>
      <trkpt lat="46.8015" lon="6.52449">
        <ele>1086</ele>
        <time>2016-07-16T10:51:56Z</time>
      </trkpt>
      <trkpt lat="46.80134" lon="6.52437">
        <ele>1085</ele>
        <time>2016-07-16T10:52:00Z</time>
      </trkpt>
      <trkpt lat="46.80117" lon="6.52424">
        <ele>1082</ele>
        <time>2016-07-16T10:52:04Z</time>
      </trkpt>
      <trkpt lat="46.80099" lon="6.52403">
        <ele>1087</ele>
        <time>2016-07-16T10:52:08Z</time>
      </trkpt>
      <trkpt lat="46.80077" lon="6.52391">
        <ele>1073</ele>
        <time>2016-07-16T10:52:13Z</time>
      </trkpt>
      <trkpt lat="46.80067" lon="6.52386">
        <ele>1072</ele>
        <time>2016-07-16T10:52:17Z</time>
      </trkpt>
      <trkpt lat="46.80051" lon="6.52379">
        <ele>1071</ele>
        <time>2016-07-16T10:52:21Z</time>
      </trkpt>
      <trkpt lat="46.80036" lon="6.52376">
        <ele>1069</ele>
        <time>2016-07-16T10:52:26Z</time>
      </trkpt>
      <trkpt lat="46.80016" lon="6.52362">
        <ele>1066</ele>
        <time>2016-07-16T10:52:30Z</time>
      </trkpt>
      <trkpt lat="46.79994" lon="6.52326">
        <ele>1052</ele>
        <time>2016-07-16T10:52:35Z</time>
      </trkpt>
      <trkpt lat="46.79984" lon="6.5232">
        <ele>1048</ele>
        <time>2016-07-16T10:52:40Z</time>
      </trkpt>
      <trkpt lat="46.79967" lon="6.52306">
        <ele>1044</ele>
        <time>2016-07-16T10:52:44Z</time>
      </trkpt>
      <trkpt lat="46.79966" lon="6.52293">
        <ele>1043</ele>
        <time>2016-07-16T10:53:40Z</time>
      </trkpt>
      <trkpt lat="46.7997" lon="6.52283">
        <ele>1043</ele>
        <time>2016-07-16T10:53:43Z</time>
      </trkpt>
      <trkpt lat="46.79975" lon="6.52268">
        <ele>1044</ele>
        <time>2016-07-16T10:53:47Z</time>
      </trkpt>
      <trkpt lat="46.7998" lon="6.52252">
        <ele>1047</ele>
        <time>2016-07-16T10:53:52Z</time>
      </trkpt>
      <trkpt lat="46.79983" lon="6.52238">
        <ele>1040</ele>
        <time>2016-07-16T10:53:56Z</time>
      </trkpt>
      <trkpt lat="46.79985" lon="6.52224">
        <ele>1038</ele>
        <time>2016-07-16T10:54:00Z</time>
      </trkpt>
      <trkpt lat="46.79991" lon="6.52206">
        <ele>1036</ele>
        <time>2016-07-16T10:54:05Z</time>
      </trkpt>
      <trkpt lat="46.79995" lon="6.52192">
        <ele>1037</ele>
        <time>2016-07-16T10:54:09Z</time>
      </trkpt>
      <trkpt lat="46.8" lon="6.52177">
        <ele>1059</ele>
        <time>2016-07-16T10:54:14Z</time>
      </trkpt>
      <trkpt lat="46.80004" lon="6.52158">
        <ele>1056</ele>
        <time>2016-07-16T10:54:19Z</time>
      </trkpt>
      <trkpt lat="46.80007" lon="6.52142">
        <ele>1063</ele>
        <time>2016-07-16T10:54:23Z</time>
      </trkpt>
      <trkpt lat="46.80011" lon="6.52123">
        <ele>1064</ele>
        <time>2016-07-16T10:54:28Z</time>
      </trkpt>
      <trkpt lat="46.80015" lon="6.52105">
        <ele>1061</ele>
        <time>2016-07-16T10:54:33Z</time>
      </trkpt>
      <trkpt lat="46.80018" lon="6.52091">
        <ele>1058</ele>
        <time>2016-07-16T10:54:37Z</time>
      </trkpt>
      <trkpt lat="46.80021" lon="6.52081">
        <ele>1053</ele>
        <time>2016-07-16T10:54:40Z</time>
      </trkpt>
      <trkpt lat="46.80025" lon="6.52065">
        <ele>1057</ele>
        <time>2016-07-16T10:54:45Z</time>
      </trkpt>
      <trkpt lat="46.80028" lon="6.52051">
        <ele>1058</ele>
        <time>2016-07-16T10:54:49Z</time>
      </trkpt>
      <trkpt lat="46.80031" lon="6.52035">
        <ele>1059</ele>
        <time>2016-07-16T10:54:53Z</time>
      </trkpt>
      <trkpt lat="46.80035" lon="6.52015">
        <ele>1059</ele>
        <time>2016-07-16T10:54:58Z</time>
      </trkpt>
      <trkpt lat="46.80039" lon="6.51994">
        <ele>1054</ele>
        <time>2016-07-16T10:55:03Z</time>
      </trkpt>
      <trkpt lat="46.80039" lon="6.51974">
        <ele>1053</ele>
        <time>2016-07-16T10:55:08Z</time>
      </trkpt>
      <trkpt lat="46.80043" lon="6.51961">
        <ele>1054</ele>
        <time>2016-07-16T10:55:12Z</time>
      </trkpt>
      <trkpt lat="46.80047" lon="6.51946">
        <ele>1055</ele>
        <time>2016-07-16T10:55:16Z</time>
      </trkpt>
      <trkpt lat="46.80049" lon="6.51931">
        <ele>1056</ele>
        <time>2016-07-16T10:55:20Z</time>
      </trkpt>
      <trkpt lat="46.80052" lon="6.51913">
        <ele>1053</ele>
        <time>2016-07-16T10:55:25Z</time>
      </trkpt>
      <trkpt lat="46.80055" lon="6.51895">
        <ele>1053</ele>
        <time>2016-07-16T10:55:30Z</time>
      </trkpt>
      <trkpt lat="46.80056" lon="6.5188">
        <ele>1051</ele>
        <time>2016-07-16T10:55:35Z</time>
      </trkpt>
      <trkpt lat="46.80058" lon="6.51865">
        <ele>1052</ele>
        <time>2016-07-16T10:55:38Z</time>
      </trkpt>
      <trkpt lat="46.80059" lon="6.51846">
        <ele>1053</ele>
        <time>2016-07-16T10:55:43Z</time>
      </trkpt>
      <trkpt lat="46.80061" lon="6.51829">
        <ele>1052</ele>
        <time>2016-07-16T10:55:48Z</time>
      </trkpt>
      <trkpt lat="46.80066" lon="6.51814">
        <ele>1051</ele>
        <time>2016-07-16T10:55:52Z</time>
      </trkpt>
      <trkpt lat="46.8007" lon="6.51799">
        <ele>1050</ele>
        <time>2016-07-16T10:55:56Z</time>
      </trkpt>
      <trkpt lat="46.80072" lon="6.51783">
        <ele>1049</ele>
        <time>2016-07-16T10:56:00Z</time>
      </trkpt>
      <trkpt lat="46.80073" lon="6.51763">
        <ele>1053</ele>
        <time>2016-07-16T10:56:05Z</time>
      </trkpt>
      <trkpt lat="46.80072" lon="6.51752">
        <ele>1056</ele>
        <time>2016-07-16T10:56:08Z</time>
      </trkpt>
      <trkpt lat="46.80074" lon="6.51734">
        <ele>1050</ele>
        <time>2016-07-16T10:56:13Z</time>
      </trkpt>
      <trkpt lat="46.80076" lon="6.51719">
        <ele>1046</ele>
        <time>2016-07-16T10:56:17Z</time>
      </trkpt>
      <trkpt lat="46.80079" lon="6.51702">
        <ele>1045</ele>
        <time>2016-07-16T10:56:22Z</time>
      </trkpt>
      <trkpt lat="46.80081" lon="6.51689">
        <ele>1047</ele>
        <time>2016-07-16T10:56:26Z</time>
      </trkpt>
      <trkpt lat="46.80084" lon="6.51676">
        <ele>1068</ele>
        <time>2016-07-16T10:56:30Z</time>
      </trkpt>
      <trkpt lat="46.80087" lon="6.51659">
        <ele>1065</ele>
        <time>2016-07-16T10:56:35Z</time>
      </trkpt>
      <trkpt lat="46.80089" lon="6.51648">
        <ele>1070</ele>
        <time>2016-07-16T10:56:38Z</time>
      </trkpt>
      <trkpt lat="46.80092" lon="6.51628">
        <ele>1073</ele>
        <time>2016-07-16T10:56:43Z</time>
      </trkpt>
      <trkpt lat="46.80094" lon="6.51612">
        <ele>1072</ele>
        <time>2016-07-16T10:56:47Z</time>
      </trkpt>
      <trkpt lat="46.80098" lon="6.51597">
        <ele>1070</ele>
        <time>2016-07-16T10:56:51Z</time>
      </trkpt>
      <trkpt lat="46.80102" lon="6.51582">
        <ele>1067</ele>
        <time>2016-07-16T10:56:55Z</time>
      </trkpt>
      <trkpt lat="46.80107" lon="6.51568">
        <ele>1070</ele>
        <time>2016-07-16T10:56:59Z</time>
      </trkpt>
      <trkpt lat="46.80109" lon="6.51552">
        <ele>1072</ele>
        <time>2016-07-16T10:57:03Z</time>
      </trkpt>
      <trkpt lat="46.80109" lon="6.51536">
        <ele>1071</ele>
        <time>2016-07-16T10:57:07Z</time>
      </trkpt>
      <trkpt lat="46.80111" lon="6.51522">
        <ele>1070</ele>
        <time>2016-07-16T10:57:11Z</time>
      </trkpt>
      <trkpt lat="46.80113" lon="6.51506">
        <ele>1069</ele>
        <time>2016-07-16T10:57:15Z</time>
      </trkpt>
      <trkpt lat="46.80114" lon="6.5149">
        <ele>1067</ele>
        <time>2016-07-16T10:57:19Z</time>
      </trkpt>
      <trkpt lat="46.80116" lon="6.51472">
        <ele>1069</ele>
        <time>2016-07-16T10:57:23Z</time>
      </trkpt>
      <trkpt lat="46.80117" lon="6.5146">
        <ele>1070</ele>
        <time>2016-07-16T10:57:28Z</time>
      </trkpt>
      <trkpt lat="46.8012" lon="6.51448">
        <ele>1070</ele>
        <time>2016-07-16T10:57:32Z</time>
      </trkpt>
      <trkpt lat="46.80122" lon="6.5143">
        <ele>1070</ele>
        <time>2016-07-16T10:57:37Z</time>
      </trkpt>
      <trkpt lat="46.80125" lon="6.51411">
        <ele>1072</ele>
        <time>2016-07-16T10:57:42Z</time>
      </trkpt>
      <trkpt lat="46.80127" lon="6.51394">
        <ele>1073</ele>
        <time>2016-07-16T10:57:46Z</time>
      </trkpt>
      <trkpt lat="46.8013" lon="6.51376">
        <ele>1074</ele>
        <time>2016-07-16T10:57:51Z</time>
      </trkpt>
      <trkpt lat="46.80134" lon="6.5136">
        <ele>1076</ele>
        <time>2016-07-16T10:57:55Z</time>
      </trkpt>
      <trkpt lat="46.80137" lon="6.5134">
        <ele>1079</ele>
        <time>2016-07-16T10:58:00Z</time>
      </trkpt>
      <trkpt lat="46.80137" lon="6.51327">
        <ele>1084</ele>
        <time>2016-07-16T10:58:04Z</time>
      </trkpt>
      <trkpt lat="46.80138" lon="6.51312">
        <ele>1085</ele>
        <time>2016-07-16T10:58:08Z</time>
      </trkpt>
      <trkpt lat="46.80134" lon="6.51293">
        <ele>1084</ele>
        <time>2016-07-16T10:58:13Z</time>
      </trkpt>
      <trkpt lat="46.80127" lon="6.51273">
        <ele>1083</ele>
        <time>2016-07-16T10:58:18Z</time>
      </trkpt>
      <trkpt lat="46.80123" lon="6.5126">
        <ele>1082</ele>
        <time>2016-07-16T10:58:21Z</time>
      </trkpt>
      <trkpt lat="46.80119" lon="6.51245">
        <ele>1087</ele>
        <time>2016-07-16T10:58:25Z</time>
      </trkpt>
      <trkpt lat="46.80116" lon="6.5123">
        <ele>1087</ele>
        <time>2016-07-16T10:58:29Z</time>
      </trkpt>
      <trkpt lat="46.80111" lon="6.51214">
        <ele>1086</ele>
        <time>2016-07-16T10:58:33Z</time>
      </trkpt>
      <trkpt lat="46.80106" lon="6.51198">
        <ele>1086</ele>
        <time>2016-07-16T10:58:37Z</time>
      </trkpt>
      <trkpt lat="46.80103" lon="6.51182">
        <ele>1083</ele>
        <time>2016-07-16T10:58:41Z</time>
      </trkpt>
      <trkpt lat="46.80107" lon="6.51157">
        <ele>1090</ele>
        <time>2016-07-16T10:58:46Z</time>
      </trkpt>
      <trkpt lat="46.80109" lon="6.51132">
        <ele>1096</ele>
        <time>2016-07-16T10:58:51Z</time>
      </trkpt>
      <trkpt lat="46.80112" lon="6.51112">
        <ele>1098</ele>
        <time>2016-07-16T10:58:55Z</time>
      </trkpt>
      <trkpt lat="46.80111" lon="6.51094">
        <ele>1097</ele>
        <time>2016-07-16T10:58:59Z</time>
      </trkpt>
      <trkpt lat="46.8011" lon="6.51076">
        <ele>1105</ele>
        <time>2016-07-16T10:59:03Z</time>
      </trkpt>
      <trkpt lat="46.80105" lon="6.51062">
        <ele>1105</ele>
        <time>2016-07-16T10:59:07Z</time>
      </trkpt>
      <trkpt lat="46.80095" lon="6.51046">
        <ele>1105</ele>
        <time>2016-07-16T10:59:12Z</time>
      </trkpt>
      <trkpt lat="46.80087" lon="6.51033">
        <ele>1104</ele>
        <time>2016-07-16T10:59:16Z</time>
      </trkpt>
      <trkpt lat="46.80082" lon="6.51014">
        <ele>1076</ele>
        <time>2016-07-16T10:59:21Z</time>
      </trkpt>
      <trkpt lat="46.8008" lon="6.50991">
        <ele>1084</ele>
        <time>2016-07-16T10:59:26Z</time>
      </trkpt>
      <trkpt lat="46.80081" lon="6.50977">
        <ele>1082</ele>
        <time>2016-07-16T10:59:30Z</time>
      </trkpt>
      <trkpt lat="46.8008" lon="6.50958">
        <ele>1082</ele>
        <time>2016-07-16T10:59:34Z</time>
      </trkpt>
      <trkpt lat="46.80075" lon="6.5094">
        <ele>1087</ele>
        <time>2016-07-16T10:59:39Z</time>
      </trkpt>
      <trkpt lat="46.80069" lon="6.50929">
        <ele>1089</ele>
        <time>2016-07-16T10:59:44Z</time>
      </trkpt>
      <trkpt lat="46.80062" lon="6.50913">
        <ele>1094</ele>
        <time>2016-07-16T10:59:48Z</time>
      </trkpt>
      <trkpt lat="46.80059" lon="6.50898">
        <ele>1093</ele>
        <time>2016-07-16T10:59:52Z</time>
      </trkpt>
      <trkpt lat="46.80061" lon="6.50879">
        <ele>1093</ele>
        <time>2016-07-16T10:59:56Z</time>
      </trkpt>
      <trkpt lat="46.80061" lon="6.50859">
        <ele>1096</ele>
        <time>2016-07-16T11:00:01Z</time>
      </trkpt>
      <trkpt lat="46.80059" lon="6.50842">
        <ele>1099</ele>
        <time>2016-07-16T11:00:06Z</time>
      </trkpt>
      <trkpt lat="46.80058" lon="6.5083">
        <ele>1104</ele>
        <time>2016-07-16T11:00:10Z</time>
      </trkpt>
      <trkpt lat="46.80056" lon="6.5082">
        <ele>1103</ele>
        <time>2016-07-16T11:00:14Z</time>
      </trkpt>
      <trkpt lat="46.80051" lon="6.5081">
        <ele>1100</ele>
        <time>2016-07-16T11:00:19Z</time>
      </trkpt>
      <trkpt lat="46.80051" lon="6.50792">
        <ele>1101</ele>
        <time>2016-07-16T11:00:23Z</time>
      </trkpt>
      <trkpt lat="46.80052" lon="6.50769">
        <ele>1103</ele>
        <time>2016-07-16T11:00:28Z</time>
      </trkpt>
      <trkpt lat="46.80055" lon="6.50753">
        <ele>1105</ele>
        <time>2016-07-16T11:00:32Z</time>
      </trkpt>
      <trkpt lat="46.80057" lon="6.50736">
        <ele>1112</ele>
        <time>2016-07-16T11:00:37Z</time>
      </trkpt>
      <trkpt lat="46.80058" lon="6.50719">
        <ele>1112</ele>
        <time>2016-07-16T11:00:42Z</time>
      </trkpt>
      <trkpt lat="46.80058" lon="6.50707">
        <ele>1112</ele>
        <time>2016-07-16T11:00:45Z</time>
      </trkpt>
      <trkpt lat="46.80057" lon="6.50693">
        <ele>1114</ele>
        <time>2016-07-16T11:00:49Z</time>
      </trkpt>
      <trkpt lat="46.80054" lon="6.50679">
        <ele>1115</ele>
        <time>2016-07-16T11:00:54Z</time>
      </trkpt>
      <trkpt lat="46.80052" lon="6.50671">
        <ele>1115</ele>
        <time>2016-07-16T11:00:58Z</time>
      </trkpt>
      <trkpt lat="46.80048" lon="6.50656">
        <ele>1120</ele>
        <time>2016-07-16T11:01:03Z</time>
      </trkpt>
      <trkpt lat="46.80044" lon="6.50645">
        <ele>1119</ele>
        <time>2016-07-16T11:01:07Z</time>
      </trkpt>
      <trkpt lat="46.80041" lon="6.50634">
        <ele>1119</ele>
        <time>2016-07-16T11:01:11Z</time>
      </trkpt>
      <trkpt lat="46.80041" lon="6.50623">
        <ele>1119</ele>
        <time>2016-07-16T11:01:16Z</time>
      </trkpt>
      <trkpt lat="46.80037" lon="6.50609">
        <ele>1119</ele>
        <time>2016-07-16T11:01:20Z</time>
      </trkpt>
      <trkpt lat="46.80034" lon="6.50595">
        <ele>1118</ele>
        <time>2016-07-16T11:01:25Z</time>
      </trkpt>
      <trkpt lat="46.80029" lon="6.50586">
        <ele>1116</ele>
        <time>2016-07-16T11:01:29Z</time>
      </trkpt>
      <trkpt lat="46.80026" lon="6.50571">
        <ele>1123</ele>
        <time>2016-07-16T11:01:34Z</time>
      </trkpt>
      <trkpt lat="46.80022" lon="6.50558">
        <ele>1124</ele>
        <time>2016-07-16T11:01:39Z</time>
      </trkpt>
      <trkpt lat="46.80018" lon="6.50546">
        <ele>1125</ele>
        <time>2016-07-16T11:01:44Z</time>
      </trkpt>
      <trkpt lat="46.80015" lon="6.50534">
        <ele>1125</ele>
        <time>2016-07-16T11:01:48Z</time>
      </trkpt>
      <trkpt lat="46.8001" lon="6.50524">
        <ele>1124</ele>
        <time>2016-07-16T11:01:52Z</time>
      </trkpt>
      <trkpt lat="46.80007" lon="6.50512">
        <ele>1121</ele>
        <time>2016-07-16T11:01:56Z</time>
      </trkpt>
      <trkpt lat="46.80004" lon="6.505">
        <ele>1118</ele>
        <time>2016-07-16T11:02:00Z</time>
      </trkpt>
      <trkpt lat="46.80001" lon="6.50485">
        <ele>1127</ele>
        <time>2016-07-16T11:02:05Z</time>
      </trkpt>
      <trkpt lat="46.79999" lon="6.50473">
        <ele>1107</ele>
        <time>2016-07-16T11:02:09Z</time>
      </trkpt>
      <trkpt lat="46.79996" lon="6.50458">
        <ele>1108</ele>
        <time>2016-07-16T11:02:14Z</time>
      </trkpt>
      <trkpt lat="46.79993" lon="6.50447">
        <ele>1109</ele>
        <time>2016-07-16T11:02:18Z</time>
      </trkpt>
      <trkpt lat="46.79991" lon="6.50436">
        <ele>1113</ele>
        <time>2016-07-16T11:02:22Z</time>
      </trkpt>
      <trkpt lat="46.79988" lon="6.50422">
        <ele>1117</ele>
        <time>2016-07-16T11:02:27Z</time>
      </trkpt>
      <trkpt lat="46.79986" lon="6.5041">
        <ele>1122</ele>
        <time>2016-07-16T11:02:31Z</time>
      </trkpt>
      <trkpt lat="46.79985" lon="6.50398">
        <ele>1119</ele>
        <time>2016-07-16T11:02:35Z</time>
      </trkpt>
      <trkpt lat="46.79984" lon="6.50386">
        <ele>1118</ele>
        <time>2016-07-16T11:02:39Z</time>
      </trkpt>
      <trkpt lat="46.79984" lon="6.50373">
        <ele>1119</ele>
        <time>2016-07-16T11:02:44Z</time>
      </trkpt>
      <trkpt lat="46.79983" lon="6.5036">
        <ele>1120</ele>
        <time>2016-07-16T11:02:49Z</time>
      </trkpt>
      <trkpt lat="46.79982" lon="6.50348">
        <ele>1122</ele>
        <time>2016-07-16T11:02:55Z</time>
      </trkpt>
      <trkpt lat="46.79981" lon="6.50335">
        <ele>1124</ele>
        <time>2016-07-16T11:03:00Z</time>
      </trkpt>
      <trkpt lat="46.79979" lon="6.50324">
        <ele>1131</ele>
        <time>2016-07-16T11:03:05Z</time>
      </trkpt>
      <trkpt lat="46.79977" lon="6.5031">
        <ele>1131</ele>
        <time>2016-07-16T11:03:10Z</time>
      </trkpt>
      <trkpt lat="46.79976" lon="6.50299">
        <ele>1131</ele>
        <time>2016-07-16T11:03:14Z</time>
      </trkpt>
      <trkpt lat="46.79977" lon="6.50289">
        <ele>1132</ele>
        <time>2016-07-16T11:03:18Z</time>
      </trkpt>
      <trkpt lat="46.79977" lon="6.50278">
        <ele>1134</ele>
        <time>2016-07-16T11:03:22Z</time>
      </trkpt>
      <trkpt lat="46.79976" lon="6.50264">
        <ele>1136</ele>
        <time>2016-07-16T11:03:27Z</time>
      </trkpt>
      <trkpt lat="46.79972" lon="6.50252">
        <ele>1137</ele>
        <time>2016-07-16T11:03:32Z</time>
      </trkpt>
      <trkpt lat="46.79967" lon="6.50242">
        <ele>1149</ele>
        <time>2016-07-16T11:03:37Z</time>
      </trkpt>
      <trkpt lat="46.79962" lon="6.50233">
        <ele>1149</ele>
        <time>2016-07-16T11:03:42Z</time>
      </trkpt>
      <trkpt lat="46.79957" lon="6.50225">
        <ele>1148</ele>
        <time>2016-07-16T11:03:47Z</time>
      </trkpt>
      <trkpt lat="46.79949" lon="6.5022">
        <ele>1148</ele>
        <time>2016-07-16T11:03:52Z</time>
      </trkpt>
      <trkpt lat="46.79941" lon="6.50213">
        <ele>1147</ele>
        <time>2016-07-16T11:03:57Z</time>
      </trkpt>
      <trkpt lat="46.79935" lon="6.50208">
        <ele>1147</ele>
        <time>2016-07-16T11:04:01Z</time>
      </trkpt>
      <trkpt lat="46.79926" lon="6.50202">
        <ele>1147</ele>
        <time>2016-07-16T11:04:05Z</time>
      </trkpt>
      <trkpt lat="46.79919" lon="6.50197">
        <ele>1148</ele>
        <time>2016-07-16T11:04:10Z</time>
      </trkpt>
      <trkpt lat="46.79912" lon="6.50192">
        <ele>1134</ele>
        <time>2016-07-16T11:04:14Z</time>
      </trkpt>
      <trkpt lat="46.79904" lon="6.50185">
        <ele>1135</ele>
        <time>2016-07-16T11:04:19Z</time>
      </trkpt>
      <trkpt lat="46.79897" lon="6.50178">
        <ele>1135</ele>
        <time>2016-07-16T11:04:23Z</time>
      </trkpt>
      <trkpt lat="46.79891" lon="6.50172">
        <ele>1134</ele>
        <time>2016-07-16T11:04:26Z</time>
      </trkpt>
      <trkpt lat="46.79883" lon="6.50162">
        <ele>1147</ele>
        <time>2016-07-16T11:04:31Z</time>
      </trkpt>
      <trkpt lat="46.79876" lon="6.50155">
        <ele>1146</ele>
        <time>2016-07-16T11:04:35Z</time>
      </trkpt>
      <trkpt lat="46.79869" lon="6.50146">
        <ele>1146</ele>
        <time>2016-07-16T11:04:39Z</time>
      </trkpt>
      <trkpt lat="46.79862" lon="6.50137">
        <ele>1146</ele>
        <time>2016-07-16T11:04:44Z</time>
      </trkpt>
      <trkpt lat="46.79855" lon="6.50131">
        <ele>1146</ele>
        <time>2016-07-16T11:04:48Z</time>
      </trkpt>
      <trkpt lat="46.79846" lon="6.50121">
        <ele>1148</ele>
        <time>2016-07-16T11:04:53Z</time>
      </trkpt>
      <trkpt lat="46.7984" lon="6.50111">
        <ele>1149</ele>
        <time>2016-07-16T11:04:57Z</time>
      </trkpt>
      <trkpt lat="46.79831" lon="6.50101">
        <ele>1141</ele>
        <time>2016-07-16T11:05:02Z</time>
      </trkpt>
      <trkpt lat="46.79823" lon="6.50088">
        <ele>1144</ele>
        <time>2016-07-16T11:05:07Z</time>
      </trkpt>
      <trkpt lat="46.79815" lon="6.5008">
        <ele>1150</ele>
        <time>2016-07-16T11:05:11Z</time>
      </trkpt>
      <trkpt lat="46.79807" lon="6.5007">
        <ele>1149</ele>
        <time>2016-07-16T11:05:16Z</time>
      </trkpt>
      <trkpt lat="46.79799" lon="6.50063">
        <ele>1148</ele>
        <time>2016-07-16T11:05:20Z</time>
      </trkpt>
      <trkpt lat="46.79791" lon="6.50058">
        <ele>1148</ele>
        <time>2016-07-16T11:05:24Z</time>
      </trkpt>
      <trkpt lat="46.79783" lon="6.50052">
        <ele>1147</ele>
        <time>2016-07-16T11:05:28Z</time>
      </trkpt>
      <trkpt lat="46.79771" lon="6.50044">
        <ele>1146</ele>
        <time>2016-07-16T11:05:32Z</time>
      </trkpt>
      <trkpt lat="46.79754" lon="6.50019">
        <ele>1146</ele>
        <time>2016-07-16T11:05:36Z</time>
      </trkpt>
      <trkpt lat="46.79726" lon="6.49995">
        <ele>1140</ele>
        <time>2016-07-16T11:05:41Z</time>
      </trkpt>
      <trkpt lat="46.79706" lon="6.4997">
        <ele>1138</ele>
        <time>2016-07-16T11:05:45Z</time>
      </trkpt>
      <trkpt lat="46.79678" lon="6.49938">
        <ele>1136</ele>
        <time>2016-07-16T11:05:50Z</time>
      </trkpt>
      <trkpt lat="46.79641" lon="6.49908">
        <ele>1131</ele>
        <time>2016-07-16T11:05:55Z</time>
      </trkpt>
      <trkpt lat="46.79624" lon="6.49869">
        <ele>1132</ele>
        <time>2016-07-16T11:05:59Z</time>
      </trkpt>
      <trkpt lat="46.7961" lon="6.49837">
        <ele>1131</ele>
        <time>2016-07-16T11:06:03Z</time>
      </trkpt>
      <trkpt lat="46.79597" lon="6.49805">
        <ele>1140</ele>
        <time>2016-07-16T11:06:08Z</time>
      </trkpt>
      <trkpt lat="46.79575" lon="6.49781">
        <ele>1133</ele>
        <time>2016-07-16T11:06:13Z</time>
      </trkpt>
      <trkpt lat="46.79552" lon="6.49797">
        <ele>1130</ele>
        <time>2016-07-16T11:06:17Z</time>
      </trkpt>
      <trkpt lat="46.79532" lon="6.49805">
        <ele>1128</ele>
        <time>2016-07-16T11:06:21Z</time>
      </trkpt>
      <trkpt lat="46.79523" lon="6.49799">
        <ele>1128</ele>
        <time>2016-07-16T11:06:26Z</time>
      </trkpt>
      <trkpt lat="46.79513" lon="6.49793">
        <ele>1129</ele>
        <time>2016-07-16T11:06:31Z</time>
      </trkpt>
      <trkpt lat="46.79506" lon="6.49789">
        <ele>1130</ele>
        <time>2016-07-16T11:06:36Z</time>
      </trkpt>
      <trkpt lat="46.79498" lon="6.49786">
        <ele>1129</ele>
        <time>2016-07-16T11:06:42Z</time>
      </trkpt>
      <trkpt lat="46.7949" lon="6.49783">
        <ele>1129</ele>
        <time>2016-07-16T11:06:48Z</time>
      </trkpt>
      <trkpt lat="46.79483" lon="6.4978">
        <ele>1130</ele>
        <time>2016-07-16T11:06:54Z</time>
      </trkpt>
      <trkpt lat="46.79474" lon="6.4978">
        <ele>1130</ele>
        <time>2016-07-16T11:07:01Z</time>
      </trkpt>
      <trkpt lat="46.79467" lon="6.49779">
        <ele>1130</ele>
        <time>2016-07-16T11:07:06Z</time>
      </trkpt>
      <trkpt lat="46.79461" lon="6.49776">
        <ele>1130</ele>
        <time>2016-07-16T11:07:10Z</time>
      </trkpt>
      <trkpt lat="46.79453" lon="6.49774">
        <ele>1131</ele>
        <time>2016-07-16T11:07:16Z</time>
      </trkpt>
      <trkpt lat="46.79445" lon="6.49779">
        <ele>1130</ele>
        <time>2016-07-16T11:07:21Z</time>
      </trkpt>
      <trkpt lat="46.79437" lon="6.4978">
        <ele>1130</ele>
        <time>2016-07-16T11:07:26Z</time>
      </trkpt>
      <trkpt lat="46.7943" lon="6.49775">
        <ele>1132</ele>
        <time>2016-07-16T11:07:31Z</time>
      </trkpt>
      <trkpt lat="46.79423" lon="6.49772">
        <ele>1133</ele>
        <time>2016-07-16T11:07:36Z</time>
      </trkpt>
      <trkpt lat="46.79416" lon="6.49765">
        <ele>1135</ele>
        <time>2016-07-16T11:07:42Z</time>
      </trkpt>
      <trkpt lat="46.79408" lon="6.49765">
        <ele>1134</ele>
        <time>2016-07-16T11:07:47Z</time>
      </trkpt>
      <trkpt lat="46.79399" lon="6.49764">
        <ele>1133</ele>
        <time>2016-07-16T11:07:52Z</time>
      </trkpt>
      <trkpt lat="46.79392" lon="6.49762">
        <ele>1132</ele>
        <time>2016-07-16T11:07:56Z</time>
      </trkpt>
      <trkpt lat="46.79383" lon="6.49758">
        <ele>1132</ele>
        <time>2016-07-16T11:08:01Z</time>
      </trkpt>
      <trkpt lat="46.79375" lon="6.49755">
        <ele>1132</ele>
        <time>2016-07-16T11:08:06Z</time>
      </trkpt>
      <trkpt lat="46.79367" lon="6.4975">
        <ele>1132</ele>
        <time>2016-07-16T11:08:12Z</time>
      </trkpt>
      <trkpt lat="46.79359" lon="6.49747">
        <ele>1145</ele>
        <time>2016-07-16T11:08:18Z</time>
      </trkpt>
      <trkpt lat="46.79352" lon="6.4974">
        <ele>1144</ele>
        <time>2016-07-16T11:08:23Z</time>
      </trkpt>
      <trkpt lat="46.79347" lon="6.49734">
        <ele>1145</ele>
        <time>2016-07-16T11:08:27Z</time>
      </trkpt>
      <trkpt lat="46.7934" lon="6.49725">
        <ele>1145</ele>
        <time>2016-07-16T11:08:34Z</time>
      </trkpt>
      <trkpt lat="46.79332" lon="6.49716">
        <ele>1140</ele>
        <time>2016-07-16T11:08:38Z</time>
      </trkpt>
      <trkpt lat="46.79327" lon="6.49705">
        <ele>1141</ele>
        <time>2016-07-16T11:08:43Z</time>
      </trkpt>
      <trkpt lat="46.7932" lon="6.49699">
        <ele>1142</ele>
        <time>2016-07-16T11:08:48Z</time>
      </trkpt>
      <trkpt lat="46.79314" lon="6.49691">
        <ele>1142</ele>
        <time>2016-07-16T11:08:54Z</time>
      </trkpt>
      <trkpt lat="46.79306" lon="6.49687">
        <ele>1141</ele>
        <time>2016-07-16T11:09:02Z</time>
      </trkpt>
      <trkpt lat="46.79303" lon="6.49678">
        <ele>1142</ele>
        <time>2016-07-16T11:09:07Z</time>
      </trkpt>
      <trkpt lat="46.79298" lon="6.49668">
        <ele>1142</ele>
        <time>2016-07-16T11:09:13Z</time>
      </trkpt>
      <trkpt lat="46.79292" lon="6.49661">
        <ele>1154</ele>
        <time>2016-07-16T11:09:17Z</time>
      </trkpt>
      <trkpt lat="46.79287" lon="6.49651">
        <ele>1154</ele>
        <time>2016-07-16T11:09:21Z</time>
      </trkpt>
      <trkpt lat="46.79283" lon="6.49642">
        <ele>1154</ele>
        <time>2016-07-16T11:09:25Z</time>
      </trkpt>
      <trkpt lat="46.79278" lon="6.49634">
        <ele>1155</ele>
        <time>2016-07-16T11:09:29Z</time>
      </trkpt>
      <trkpt lat="46.79272" lon="6.49626">
        <ele>1156</ele>
        <time>2016-07-16T11:09:34Z</time>
      </trkpt>
      <trkpt lat="46.79265" lon="6.49617">
        <ele>1157</ele>
        <time>2016-07-16T11:09:40Z</time>
      </trkpt>
      <trkpt lat="46.79258" lon="6.49609">
        <ele>1158</ele>
        <time>2016-07-16T11:09:46Z</time>
      </trkpt>
      <trkpt lat="46.79252" lon="6.49601">
        <ele>1160</ele>
        <time>2016-07-16T11:09:52Z</time>
      </trkpt>
      <trkpt lat="46.79249" lon="6.49596">
        <ele>1152</ele>
        <time>2016-07-16T11:09:57Z</time>
      </trkpt>
      <trkpt lat="46.79242" lon="6.49588">
        <ele>1155</ele>
        <time>2016-07-16T11:10:00Z</time>
      </trkpt>
      <trkpt lat="46.79237" lon="6.49576">
        <ele>1162</ele>
        <time>2016-07-16T11:10:05Z</time>
      </trkpt>
      <trkpt lat="46.79232" lon="6.49567">
        <ele>1161</ele>
        <time>2016-07-16T11:10:09Z</time>
      </trkpt>
      <trkpt lat="46.79226" lon="6.49558">
        <ele>1160</ele>
        <time>2016-07-16T11:10:14Z</time>
      </trkpt>
      <trkpt lat="46.7922" lon="6.49546">
        <ele>1160</ele>
        <time>2016-07-16T11:10:19Z</time>
      </trkpt>
      <trkpt lat="46.79214" lon="6.49538">
        <ele>1160</ele>
        <time>2016-07-16T11:10:25Z</time>
      </trkpt>
      <trkpt lat="46.79208" lon="6.49528">
        <ele>1160</ele>
        <time>2016-07-16T11:10:32Z</time>
      </trkpt>
      <trkpt lat="46.79202" lon="6.4952">
        <ele>1161</ele>
        <time>2016-07-16T11:10:38Z</time>
      </trkpt>
      <trkpt lat="46.79197" lon="6.4951">
        <ele>1161</ele>
        <time>2016-07-16T11:10:42Z</time>
      </trkpt>
      <trkpt lat="46.79191" lon="6.49499">
        <ele>1171</ele>
        <time>2016-07-16T11:10:47Z</time>
      </trkpt>
      <trkpt lat="46.79186" lon="6.4949">
        <ele>1171</ele>
        <time>2016-07-16T11:10:52Z</time>
      </trkpt>
      <trkpt lat="46.79181" lon="6.49481">
        <ele>1172</ele>
        <time>2016-07-16T11:10:57Z</time>
      </trkpt>
      <trkpt lat="46.79175" lon="6.49471">
        <ele>1173</ele>
        <time>2016-07-16T11:11:03Z</time>
      </trkpt>
      <trkpt lat="46.79169" lon="6.49462">
        <ele>1175</ele>
        <time>2016-07-16T11:11:08Z</time>
      </trkpt>
      <trkpt lat="46.79164" lon="6.49452">
        <ele>1161</ele>
        <time>2016-07-16T11:11:13Z</time>
      </trkpt>
      <trkpt lat="46.79159" lon="6.49441">
        <ele>1164</ele>
        <time>2016-07-16T11:11:18Z</time>
      </trkpt>
      <trkpt lat="46.79155" lon="6.49431">
        <ele>1167</ele>
        <time>2016-07-16T11:11:23Z</time>
      </trkpt>
      <trkpt lat="46.79149" lon="6.49422">
        <ele>1168</ele>
        <time>2016-07-16T11:11:29Z</time>
      </trkpt>
      <trkpt lat="46.79145" lon="6.49409">
        <ele>1180</ele>
        <time>2016-07-16T11:11:34Z</time>
      </trkpt>
      <trkpt lat="46.7914" lon="6.49401">
        <ele>1179</ele>
        <time>2016-07-16T11:11:38Z</time>
      </trkpt>
      <trkpt lat="46.79134" lon="6.49394">
        <ele>1178</ele>
        <time>2016-07-16T11:11:43Z</time>
      </trkpt>
      <trkpt lat="46.79128" lon="6.49385">
        <ele>1178</ele>
        <time>2016-07-16T11:11:48Z</time>
      </trkpt>
      <trkpt lat="46.79122" lon="6.49376">
        <ele>1179</ele>
        <time>2016-07-16T11:11:53Z</time>
      </trkpt>
      <trkpt lat="46.79118" lon="6.49367">
        <ele>1179</ele>
        <time>2016-07-16T11:11:57Z</time>
      </trkpt>
      <trkpt lat="46.79111" lon="6.49357">
        <ele>1180</ele>
        <time>2016-07-16T11:12:02Z</time>
      </trkpt>
      <trkpt lat="46.79106" lon="6.49348">
        <ele>1181</ele>
        <time>2016-07-16T11:12:07Z</time>
      </trkpt>
      <trkpt lat="46.791" lon="6.4934">
        <ele>1181</ele>
        <time>2016-07-16T11:12:12Z</time>
      </trkpt>
      <trkpt lat="46.79095" lon="6.49331">
        <ele>1190</ele>
        <time>2016-07-16T11:12:18Z</time>
      </trkpt>
      <trkpt lat="46.79088" lon="6.49323">
        <ele>1190</ele>
        <time>2016-07-16T11:12:22Z</time>
      </trkpt>
      <trkpt lat="46.79083" lon="6.49313">
        <ele>1180</ele>
        <time>2016-07-16T11:12:27Z</time>
      </trkpt>
      <trkpt lat="46.79079" lon="6.49303">
        <ele>1180</ele>
        <time>2016-07-16T11:12:31Z</time>
      </trkpt>
      <trkpt lat="46.79075" lon="6.49291">
        <ele>1182</ele>
        <time>2016-07-16T11:12:36Z</time>
      </trkpt>
      <trkpt lat="46.79069" lon="6.49282">
        <ele>1184</ele>
        <time>2016-07-16T11:12:41Z</time>
      </trkpt>
      <trkpt lat="46.79064" lon="6.49272">
        <ele>1185</ele>
        <time>2016-07-16T11:12:46Z</time>
      </trkpt>
      <trkpt lat="46.79059" lon="6.49263">
        <ele>1186</ele>
        <time>2016-07-16T11:12:50Z</time>
      </trkpt>
      <trkpt lat="46.79054" lon="6.49255">
        <ele>1185</ele>
        <time>2016-07-16T11:12:55Z</time>
      </trkpt>
      <trkpt lat="46.79049" lon="6.49245">
        <ele>1198</ele>
        <time>2016-07-16T11:12:59Z</time>
      </trkpt>
      <trkpt lat="46.79045" lon="6.49234">
        <ele>1197</ele>
        <time>2016-07-16T11:13:04Z</time>
      </trkpt>
      <trkpt lat="46.79039" lon="6.49224">
        <ele>1197</ele>
        <time>2016-07-16T11:13:09Z</time>
      </trkpt>
      <trkpt lat="46.79035" lon="6.49213">
        <ele>1197</ele>
        <time>2016-07-16T11:13:15Z</time>
      </trkpt>
      <trkpt lat="46.79031" lon="6.49203">
        <ele>1198</ele>
        <time>2016-07-16T11:13:20Z</time>
      </trkpt>
      <trkpt lat="46.79026" lon="6.49195">
        <ele>1198</ele>
        <time>2016-07-16T11:13:24Z</time>
      </trkpt>
      <trkpt lat="46.79022" lon="6.49182">
        <ele>1198</ele>
        <time>2016-07-16T11:13:29Z</time>
      </trkpt>
      <trkpt lat="46.79019" lon="6.49171">
        <ele>1198</ele>
        <time>2016-07-16T11:13:33Z</time>
      </trkpt>
      <trkpt lat="46.79015" lon="6.49161">
        <ele>1204</ele>
        <time>2016-07-16T11:13:39Z</time>
      </trkpt>
      <trkpt lat="46.7901" lon="6.49149">
        <ele>1206</ele>
        <time>2016-07-16T11:13:44Z</time>
      </trkpt>
      <trkpt lat="46.79008" lon="6.49138">
        <ele>1209</ele>
        <time>2016-07-16T11:13:49Z</time>
      </trkpt>
      <trkpt lat="46.79005" lon="6.49127">
        <ele>1211</ele>
        <time>2016-07-16T11:13:54Z</time>
      </trkpt>
      <trkpt lat="46.79004" lon="6.49113">
        <ele>1213</ele>
        <time>2016-07-16T11:13:59Z</time>
      </trkpt>
      <trkpt lat="46.79002" lon="6.491">
        <ele>1214</ele>
        <time>2016-07-16T11:14:04Z</time>
      </trkpt>
      <trkpt lat="46.78996" lon="6.49091">
        <ele>1205</ele>
        <time>2016-07-16T11:14:08Z</time>
      </trkpt>
      <trkpt lat="46.78993" lon="6.49082">
        <ele>1213</ele>
        <time>2016-07-16T11:14:12Z</time>
      </trkpt>
      <trkpt lat="46.78988" lon="6.4907">
        <ele>1211</ele>
        <time>2016-07-16T11:14:17Z</time>
      </trkpt>
      <trkpt lat="46.78982" lon="6.49061">
        <ele>1210</ele>
        <time>2016-07-16T11:14:22Z</time>
      </trkpt>
      <trkpt lat="46.78979" lon="6.49052">
        <ele>1210</ele>
        <time>2016-07-16T11:14:25Z</time>
      </trkpt>
      <trkpt lat="46.78974" lon="6.49043">
        <ele>1210</ele>
        <time>2016-07-16T11:14:29Z</time>
      </trkpt>
      <trkpt lat="46.78969" lon="6.49035">
        <ele>1210</ele>
        <time>2016-07-16T11:14:35Z</time>
      </trkpt>
      <trkpt lat="46.78962" lon="6.49021">
        <ele>1211</ele>
        <time>2016-07-16T11:14:39Z</time>
      </trkpt>
      <trkpt lat="46.78959" lon="6.49012">
        <ele>1211</ele>
        <time>2016-07-16T11:14:44Z</time>
      </trkpt>
      <trkpt lat="46.78955" lon="6.49">
        <ele>1223</ele>
        <time>2016-07-16T11:14:48Z</time>
      </trkpt>
      <trkpt lat="46.7895" lon="6.48987">
        <ele>1222</ele>
        <time>2016-07-16T11:14:53Z</time>
      </trkpt>
      <trkpt lat="46.78946" lon="6.48976">
        <ele>1222</ele>
        <time>2016-07-16T11:14:57Z</time>
      </trkpt>
      <trkpt lat="46.78943" lon="6.48966">
        <ele>1223</ele>
        <time>2016-07-16T11:15:00Z</time>
      </trkpt>
      <trkpt lat="46.78938" lon="6.48957">
        <ele>1224</ele>
        <time>2016-07-16T11:15:05Z</time>
      </trkpt>
      <trkpt lat="46.78933" lon="6.48946">
        <ele>1225</ele>
        <time>2016-07-16T11:15:10Z</time>
      </trkpt>
      <trkpt lat="46.78928" lon="6.48934">
        <ele>1225</ele>
        <time>2016-07-16T11:15:15Z</time>
      </trkpt>
      <trkpt lat="46.78925" lon="6.48924">
        <ele>1225</ele>
        <time>2016-07-16T11:15:19Z</time>
      </trkpt>
      <trkpt lat="46.78921" lon="6.48912">
        <ele>1228</ele>
        <time>2016-07-16T11:15:23Z</time>
      </trkpt>
      <trkpt lat="46.78919" lon="6.48902">
        <ele>1231</ele>
        <time>2016-07-16T11:15:27Z</time>
      </trkpt>
      <trkpt lat="46.78915" lon="6.48892">
        <ele>1220</ele>
        <time>2016-07-16T11:15:32Z</time>
      </trkpt>
      <trkpt lat="46.78909" lon="6.4888">
        <ele>1219</ele>
        <time>2016-07-16T11:15:36Z</time>
      </trkpt>
      <trkpt lat="46.78906" lon="6.48867">
        <ele>1220</ele>
        <time>2016-07-16T11:15:41Z</time>
      </trkpt>
      <trkpt lat="46.78901" lon="6.48854">
        <ele>1222</ele>
        <time>2016-07-16T11:15:46Z</time>
      </trkpt>
      <trkpt lat="46.78896" lon="6.4884">
        <ele>1223</ele>
        <time>2016-07-16T11:15:50Z</time>
      </trkpt>
      <trkpt lat="46.78893" lon="6.48829">
        <ele>1229</ele>
        <time>2016-07-16T11:15:55Z</time>
      </trkpt>
      <trkpt lat="46.78889" lon="6.48817">
        <ele>1228</ele>
        <time>2016-07-16T11:16:00Z</time>
      </trkpt>
      <trkpt lat="46.78886" lon="6.48804">
        <ele>1228</ele>
        <time>2016-07-16T11:16:04Z</time>
      </trkpt>
      <trkpt lat="46.78885" lon="6.48789">
        <ele>1228</ele>
        <time>2016-07-16T11:16:09Z</time>
      </trkpt>
      <trkpt lat="46.78885" lon="6.48776">
        <ele>1229</ele>
        <time>2016-07-16T11:16:13Z</time>
      </trkpt>
      <trkpt lat="46.78886" lon="6.48762">
        <ele>1230</ele>
        <time>2016-07-16T11:16:18Z</time>
      </trkpt>
      <trkpt lat="46.78886" lon="6.48759">
        <ele>1230</ele>
        <time>2016-07-16T11:16:19Z</time>
      </trkpt>
      <trkpt lat="46.78887" lon="6.48748">
        <ele>1236</ele>
        <time>2016-07-16T11:16:23Z</time>
      </trkpt>
      <trkpt lat="46.78888" lon="6.48734">
        <ele>1236</ele>
        <time>2016-07-16T11:16:28Z</time>
      </trkpt>
      <trkpt lat="46.78888" lon="6.48723">
        <ele>1236</ele>
        <time>2016-07-16T11:16:32Z</time>
      </trkpt>
      <trkpt lat="46.78888" lon="6.48712">
        <ele>1237</ele>
        <time>2016-07-16T11:16:36Z</time>
      </trkpt>
      <trkpt lat="46.78887" lon="6.48703">
        <ele>1237</ele>
        <time>2016-07-16T11:16:40Z</time>
      </trkpt>
      <trkpt lat="46.78886" lon="6.48687">
        <ele>1238</ele>
        <time>2016-07-16T11:16:45Z</time>
      </trkpt>
      <trkpt lat="46.78884" lon="6.48672">
        <ele>1238</ele>
        <time>2016-07-16T11:16:50Z</time>
      </trkpt>
      <trkpt lat="46.78882" lon="6.4866">
        <ele>1245</ele>
        <time>2016-07-16T11:16:54Z</time>
      </trkpt>
      <trkpt lat="46.78879" lon="6.48646">
        <ele>1245</ele>
        <time>2016-07-16T11:16:59Z</time>
      </trkpt>
      <trkpt lat="46.78877" lon="6.48632">
        <ele>1246</ele>
        <time>2016-07-16T11:17:04Z</time>
      </trkpt>
      <trkpt lat="46.78875" lon="6.48617">
        <ele>1247</ele>
        <time>2016-07-16T11:17:09Z</time>
      </trkpt>
      <trkpt lat="46.78875" lon="6.48602">
        <ele>1248</ele>
        <time>2016-07-16T11:17:14Z</time>
      </trkpt>
      <trkpt lat="46.78875" lon="6.4859">
        <ele>1248</ele>
        <time>2016-07-16T11:17:18Z</time>
      </trkpt>
      <trkpt lat="46.78875" lon="6.48579">
        <ele>1255</ele>
        <time>2016-07-16T11:17:22Z</time>
      </trkpt>
      <trkpt lat="46.78874" lon="6.48566">
        <ele>1255</ele>
        <time>2016-07-16T11:17:27Z</time>
      </trkpt>
      <trkpt lat="46.78872" lon="6.48556">
        <ele>1255</ele>
        <time>2016-07-16T11:17:31Z</time>
      </trkpt>
      <trkpt lat="46.7887" lon="6.48545">
        <ele>1255</ele>
        <time>2016-07-16T11:17:36Z</time>
      </trkpt>
      <trkpt lat="46.78864" lon="6.48529">
        <ele>1256</ele>
        <time>2016-07-16T11:17:41Z</time>
      </trkpt>
      <trkpt lat="46.78859" lon="6.4852">
        <ele>1256</ele>
        <time>2016-07-16T11:17:45Z</time>
      </trkpt>
      <trkpt lat="46.78855" lon="6.48509">
        <ele>1256</ele>
        <time>2016-07-16T11:17:49Z</time>
      </trkpt>
      <trkpt lat="46.7885" lon="6.48495">
        <ele>1258</ele>
        <time>2016-07-16T11:17:54Z</time>
      </trkpt>
      <trkpt lat="46.78847" lon="6.4849">
        <ele>1258</ele>
        <time>2016-07-16T11:17:58Z</time>
      </trkpt>
      <trkpt lat="46.7884" lon="6.48469">
        <ele>1260</ele>
        <time>2016-07-16T11:18:03Z</time>
      </trkpt>
      <trkpt lat="46.78837" lon="6.48457">
        <ele>1260</ele>
        <time>2016-07-16T11:18:07Z</time>
      </trkpt>
      <trkpt lat="46.78834" lon="6.48445">
        <ele>1260</ele>
        <time>2016-07-16T11:18:11Z</time>
      </trkpt>
      <trkpt lat="46.78832" lon="6.48427">
        <ele>1257</ele>
        <time>2016-07-16T11:18:16Z</time>
      </trkpt>
      <trkpt lat="46.78831" lon="6.48418">
        <ele>1259</ele>
        <time>2016-07-16T11:18:19Z</time>
      </trkpt>
      <trkpt lat="46.78829" lon="6.48404">
        <ele>1259</ele>
        <time>2016-07-16T11:18:23Z</time>
      </trkpt>
      <trkpt lat="46.78828" lon="6.48392">
        <ele>1259</ele>
        <time>2016-07-16T11:18:27Z</time>
      </trkpt>
      <trkpt lat="46.78827" lon="6.48375">
        <ele>1259</ele>
        <time>2016-07-16T11:18:32Z</time>
      </trkpt>
      <trkpt lat="46.78826" lon="6.48363">
        <ele>1260</ele>
        <time>2016-07-16T11:18:36Z</time>
      </trkpt>
      <trkpt lat="46.78824" lon="6.4835">
        <ele>1261</ele>
        <time>2016-07-16T11:18:40Z</time>
      </trkpt>
      <trkpt lat="46.78823" lon="6.48338">
        <ele>1262</ele>
        <time>2016-07-16T11:18:45Z</time>
      </trkpt>
      <trkpt lat="46.78821" lon="6.48319">
        <ele>1265</ele>
        <time>2016-07-16T11:18:50Z</time>
      </trkpt>
      <trkpt lat="46.78819" lon="6.48307">
        <ele>1265</ele>
        <time>2016-07-16T11:18:54Z</time>
      </trkpt>
      <trkpt lat="46.78817" lon="6.48292">
        <ele>1266</ele>
        <time>2016-07-16T11:18:59Z</time>
      </trkpt>
      <trkpt lat="46.78816" lon="6.4828">
        <ele>1266</ele>
        <time>2016-07-16T11:19:03Z</time>
      </trkpt>
      <trkpt lat="46.78809" lon="6.48272">
        <ele>1267</ele>
        <time>2016-07-16T11:19:08Z</time>
      </trkpt>
      <trkpt lat="46.78813" lon="6.48261">
        <ele>1267</ele>
        <time>2016-07-16T11:25:24Z</time>
      </trkpt>
      <trkpt lat="46.78811" lon="6.48249">
        <ele>1270</ele>
        <time>2016-07-16T11:25:29Z</time>
      </trkpt>
      <trkpt lat="46.78806" lon="6.48238">
        <ele>1270</ele>
        <time>2016-07-16T11:25:33Z</time>
      </trkpt>
      <trkpt lat="46.78801" lon="6.48226">
        <ele>1270</ele>
        <time>2016-07-16T11:25:37Z</time>
      </trkpt>
      <trkpt lat="46.78796" lon="6.48214">
        <ele>1270</ele>
        <time>2016-07-16T11:25:41Z</time>
      </trkpt>
      <trkpt lat="46.7879" lon="6.48204">
        <ele>1270</ele>
        <time>2016-07-16T11:25:45Z</time>
      </trkpt>
      <trkpt lat="46.78782" lon="6.48192">
        <ele>1270</ele>
        <time>2016-07-16T11:25:50Z</time>
      </trkpt>
      <trkpt lat="46.78774" lon="6.48183">
        <ele>1271</ele>
        <time>2016-07-16T11:25:54Z</time>
      </trkpt>
      <trkpt lat="46.78767" lon="6.48178">
        <ele>1271</ele>
        <time>2016-07-16T11:25:59Z</time>
      </trkpt>
      <trkpt lat="46.7876" lon="6.48172">
        <ele>1271</ele>
        <time>2016-07-16T11:26:03Z</time>
      </trkpt>
      <trkpt lat="46.78752" lon="6.48163">
        <ele>1272</ele>
        <time>2016-07-16T11:26:08Z</time>
      </trkpt>
      <trkpt lat="46.78746" lon="6.48155">
        <ele>1272</ele>
        <time>2016-07-16T11:26:12Z</time>
      </trkpt>
      <trkpt lat="46.78739" lon="6.48147">
        <ele>1272</ele>
        <time>2016-07-16T11:26:16Z</time>
      </trkpt>
      <trkpt lat="46.78731" lon="6.48136">
        <ele>1272</ele>
        <time>2016-07-16T11:26:21Z</time>
      </trkpt>
      <trkpt lat="46.78724" lon="6.48128">
        <ele>1273</ele>
        <time>2016-07-16T11:26:25Z</time>
      </trkpt>
      <trkpt lat="46.78718" lon="6.48118">
        <ele>1273</ele>
        <time>2016-07-16T11:26:29Z</time>
      </trkpt>
      <trkpt lat="46.78711" lon="6.4811">
        <ele>1273</ele>
        <time>2016-07-16T11:26:33Z</time>
      </trkpt>
      <trkpt lat="46.78703" lon="6.48099">
        <ele>1273</ele>
        <time>2016-07-16T11:26:38Z</time>
      </trkpt>
      <trkpt lat="46.78697" lon="6.48089">
        <ele>1273</ele>
        <time>2016-07-16T11:26:42Z</time>
      </trkpt>
      <trkpt lat="46.7869" lon="6.48079">
        <ele>1276</ele>
        <time>2016-07-16T11:26:46Z</time>
      </trkpt>
      <trkpt lat="46.78685" lon="6.48072">
        <ele>1276</ele>
        <time>2016-07-16T11:26:50Z</time>
      </trkpt>
      <trkpt lat="46.78675" lon="6.48058">
        <ele>1277</ele>
        <time>2016-07-16T11:26:55Z</time>
      </trkpt>
      <trkpt lat="46.78668" lon="6.48047">
        <ele>1278</ele>
        <time>2016-07-16T11:26:59Z</time>
      </trkpt>
      <trkpt lat="46.78664" lon="6.48039">
        <ele>1276</ele>
        <time>2016-07-16T11:27:02Z</time>
      </trkpt>
      <trkpt lat="46.78657" lon="6.48025">
        <ele>1277</ele>
        <time>2016-07-16T11:27:07Z</time>
      </trkpt>
      <trkpt lat="46.78651" lon="6.48013">
        <ele>1278</ele>
        <time>2016-07-16T11:27:12Z</time>
      </trkpt>
      <trkpt lat="46.78645" lon="6.47999">
        <ele>1280</ele>
        <time>2016-07-16T11:27:17Z</time>
      </trkpt>
      <trkpt lat="46.78641" lon="6.47991">
        <ele>1280</ele>
        <time>2016-07-16T11:27:20Z</time>
      </trkpt>
      <trkpt lat="46.78635" lon="6.47978">
        <ele>1280</ele>
        <time>2016-07-16T11:27:25Z</time>
      </trkpt>
      <trkpt lat="46.78629" lon="6.47966">
        <ele>1280</ele>
        <time>2016-07-16T11:27:30Z</time>
      </trkpt>
      <trkpt lat="46.78624" lon="6.47954">
        <ele>1280</ele>
        <time>2016-07-16T11:27:35Z</time>
      </trkpt>
      <trkpt lat="46.78618" lon="6.47942">
        <ele>1280</ele>
        <time>2016-07-16T11:27:39Z</time>
      </trkpt>
      <trkpt lat="46.78613" lon="6.47932">
        <ele>1280</ele>
        <time>2016-07-16T11:27:44Z</time>
      </trkpt>
      <trkpt lat="46.78607" lon="6.47918">
        <ele>1280</ele>
        <time>2016-07-16T11:27:49Z</time>
      </trkpt>
      <trkpt lat="46.78604" lon="6.47909">
        <ele>1281</ele>
        <time>2016-07-16T11:27:52Z</time>
      </trkpt>
      <trkpt lat="46.78597" lon="6.47895">
        <ele>1282</ele>
        <time>2016-07-16T11:27:57Z</time>
      </trkpt>
      <trkpt lat="46.78591" lon="6.47882">
        <ele>1282</ele>
        <time>2016-07-16T11:28:02Z</time>
      </trkpt>
      <trkpt lat="46.78588" lon="6.47873">
        <ele>1283</ele>
        <time>2016-07-16T11:28:05Z</time>
      </trkpt>
      <trkpt lat="46.78582" lon="6.47859">
        <ele>1280</ele>
        <time>2016-07-16T11:28:10Z</time>
      </trkpt>
      <trkpt lat="46.78577" lon="6.47848">
        <ele>1282</ele>
        <time>2016-07-16T11:28:14Z</time>
      </trkpt>
      <trkpt lat="46.78573" lon="6.47836">
        <ele>1283</ele>
        <time>2016-07-16T11:28:18Z</time>
      </trkpt>
      <trkpt lat="46.78568" lon="6.47821">
        <ele>1285</ele>
        <time>2016-07-16T11:28:23Z</time>
      </trkpt>
      <trkpt lat="46.78564" lon="6.4781">
        <ele>1285</ele>
        <time>2016-07-16T11:28:27Z</time>
      </trkpt>
      <trkpt lat="46.78559" lon="6.47795">
        <ele>1285</ele>
        <time>2016-07-16T11:28:32Z</time>
      </trkpt>
      <trkpt lat="46.78554" lon="6.4778">
        <ele>1286</ele>
        <time>2016-07-16T11:28:36Z</time>
      </trkpt>
      <trkpt lat="46.7855" lon="6.47768">
        <ele>1286</ele>
        <time>2016-07-16T11:28:41Z</time>
      </trkpt>
      <trkpt lat="46.78546" lon="6.47755">
        <ele>1286</ele>
        <time>2016-07-16T11:28:45Z</time>
      </trkpt>
      <trkpt lat="46.78541" lon="6.47741">
        <ele>1289</ele>
        <time>2016-07-16T11:28:50Z</time>
      </trkpt>
      <trkpt lat="46.78535" lon="6.4773">
        <ele>1290</ele>
        <time>2016-07-16T11:28:54Z</time>
      </trkpt>
      <trkpt lat="46.78528" lon="6.47717">
        <ele>1290</ele>
        <time>2016-07-16T11:28:59Z</time>
      </trkpt>
      <trkpt lat="46.78522" lon="6.47706">
        <ele>1291</ele>
        <time>2016-07-16T11:29:03Z</time>
      </trkpt>
      <trkpt lat="46.78517" lon="6.47696">
        <ele>1292</ele>
        <time>2016-07-16T11:29:07Z</time>
      </trkpt>
      <trkpt lat="46.78512" lon="6.47688">
        <ele>1293</ele>
        <time>2016-07-16T11:29:11Z</time>
      </trkpt>
      <trkpt lat="46.78507" lon="6.47679">
        <ele>1294</ele>
        <time>2016-07-16T11:29:15Z</time>
      </trkpt>
      <trkpt lat="46.78504" lon="6.47673">
        <ele>1296</ele>
        <time>2016-07-16T11:29:18Z</time>
      </trkpt>
      <trkpt lat="46.78498" lon="6.47661">
        <ele>1298</ele>
        <time>2016-07-16T11:29:23Z</time>
      </trkpt>
      <trkpt lat="46.78492" lon="6.47651">
        <ele>1297</ele>
        <time>2016-07-16T11:29:27Z</time>
      </trkpt>
      <trkpt lat="46.78487" lon="6.47642">
        <ele>1297</ele>
        <time>2016-07-16T11:29:31Z</time>
      </trkpt>
      <trkpt lat="46.7848" lon="6.4763">
        <ele>1297</ele>
        <time>2016-07-16T11:29:36Z</time>
      </trkpt>
      <trkpt lat="46.78475" lon="6.47621">
        <ele>1297</ele>
        <time>2016-07-16T11:29:40Z</time>
      </trkpt>
      <trkpt lat="46.78468" lon="6.47612">
        <ele>1298</ele>
        <time>2016-07-16T11:29:44Z</time>
      </trkpt>
      <trkpt lat="46.78461" lon="6.47606">
        <ele>1298</ele>
        <time>2016-07-16T11:29:48Z</time>
      </trkpt>
      <trkpt lat="46.78451" lon="6.476">
        <ele>1298</ele>
        <time>2016-07-16T11:29:53Z</time>
      </trkpt>
      <trkpt lat="46.78445" lon="6.47595">
        <ele>1299</ele>
        <time>2016-07-16T11:29:57Z</time>
      </trkpt>
      <trkpt lat="46.78435" lon="6.4759">
        <ele>1299</ele>
        <time>2016-07-16T11:30:02Z</time>
      </trkpt>
      <trkpt lat="46.78427" lon="6.47585">
        <ele>1301</ele>
        <time>2016-07-16T11:30:07Z</time>
      </trkpt>
      <trkpt lat="46.78422" lon="6.47578">
        <ele>1304</ele>
        <time>2016-07-16T11:30:14Z</time>
      </trkpt>
      <trkpt lat="46.78414" lon="6.4757">
        <ele>1302</ele>
        <time>2016-07-16T11:30:19Z</time>
      </trkpt>
      <trkpt lat="46.78409" lon="6.4756">
        <ele>1302</ele>
        <time>2016-07-16T11:30:25Z</time>
      </trkpt>
      <trkpt lat="46.78403" lon="6.47551">
        <ele>1303</ele>
        <time>2016-07-16T11:30:31Z</time>
      </trkpt>
      <trkpt lat="46.784" lon="6.47539">
        <ele>1304</ele>
        <time>2016-07-16T11:30:36Z</time>
      </trkpt>
      <trkpt lat="46.78396" lon="6.47529">
        <ele>1305</ele>
        <time>2016-07-16T11:30:40Z</time>
      </trkpt>
      <trkpt lat="46.78389" lon="6.47516">
        <ele>1306</ele>
        <time>2016-07-16T11:30:45Z</time>
      </trkpt>
      <trkpt lat="46.78381" lon="6.47505">
        <ele>1305</ele>
        <time>2016-07-16T11:30:50Z</time>
      </trkpt>
      <trkpt lat="46.78377" lon="6.47496">
        <ele>1315</ele>
        <time>2016-07-16T11:30:55Z</time>
      </trkpt>
      <trkpt lat="46.78368" lon="6.47483">
        <ele>1314</ele>
        <time>2016-07-16T11:31:00Z</time>
      </trkpt>
      <trkpt lat="46.78363" lon="6.47476">
        <ele>1314</ele>
        <time>2016-07-16T11:31:04Z</time>
      </trkpt>
      <trkpt lat="46.78358" lon="6.47468">
        <ele>1314</ele>
        <time>2016-07-16T11:31:08Z</time>
      </trkpt>
      <trkpt lat="46.78353" lon="6.47456">
        <ele>1315</ele>
        <time>2016-07-16T11:31:13Z</time>
      </trkpt>
      <trkpt lat="46.78348" lon="6.47445">
        <ele>1317</ele>
        <time>2016-07-16T11:31:17Z</time>
      </trkpt>
      <trkpt lat="46.78346" lon="6.47435">
        <ele>1318</ele>
        <time>2016-07-16T11:31:21Z</time>
      </trkpt>
      <trkpt lat="46.7834" lon="6.4742">
        <ele>1320</ele>
        <time>2016-07-16T11:31:25Z</time>
      </trkpt>
      <trkpt lat="46.78337" lon="6.47409">
        <ele>1322</ele>
        <time>2016-07-16T11:31:29Z</time>
      </trkpt>
      <trkpt lat="46.78333" lon="6.47395">
        <ele>1319</ele>
        <time>2016-07-16T11:31:34Z</time>
      </trkpt>
      <trkpt lat="46.78329" lon="6.47384">
        <ele>1319</ele>
        <time>2016-07-16T11:31:38Z</time>
      </trkpt>
      <trkpt lat="46.78326" lon="6.4737">
        <ele>1320</ele>
        <time>2016-07-16T11:31:43Z</time>
      </trkpt>
      <trkpt lat="46.78322" lon="6.4736">
        <ele>1322</ele>
        <time>2016-07-16T11:31:47Z</time>
      </trkpt>
      <trkpt lat="46.78317" lon="6.47346">
        <ele>1323</ele>
        <time>2016-07-16T11:31:52Z</time>
      </trkpt>
      <trkpt lat="46.78311" lon="6.47333">
        <ele>1330</ele>
        <time>2016-07-16T11:31:57Z</time>
      </trkpt>
      <trkpt lat="46.78306" lon="6.47323">
        <ele>1330</ele>
        <time>2016-07-16T11:32:01Z</time>
      </trkpt>
      <trkpt lat="46.78297" lon="6.47313">
        <ele>1330</ele>
        <time>2016-07-16T11:32:06Z</time>
      </trkpt>
      <trkpt lat="46.78291" lon="6.47306">
        <ele>1330</ele>
        <time>2016-07-16T11:32:10Z</time>
      </trkpt>
      <trkpt lat="46.78285" lon="6.47299">
        <ele>1330</ele>
        <time>2016-07-16T11:32:14Z</time>
      </trkpt>
      <trkpt lat="46.78276" lon="6.47289">
        <ele>1330</ele>
        <time>2016-07-16T11:32:19Z</time>
      </trkpt>
      <trkpt lat="46.78268" lon="6.47279">
        <ele>1331</ele>
        <time>2016-07-16T11:32:23Z</time>
      </trkpt>
      <trkpt lat="46.78262" lon="6.4727">
        <ele>1332</ele>
        <time>2016-07-16T11:32:28Z</time>
      </trkpt>
      <trkpt lat="46.78257" lon="6.47264">
        <ele>1334</ele>
        <time>2016-07-16T11:32:33Z</time>
      </trkpt>
      <trkpt lat="46.78246" lon="6.47251">
        <ele>1335</ele>
        <time>2016-07-16T11:32:37Z</time>
      </trkpt>
      <trkpt lat="46.7824" lon="6.47242">
        <ele>1338</ele>
        <time>2016-07-16T11:32:41Z</time>
      </trkpt>
      <trkpt lat="46.78231" lon="6.47234">
        <ele>1338</ele>
        <time>2016-07-16T11:32:46Z</time>
      </trkpt>
      <trkpt lat="46.78221" lon="6.47225">
        <ele>1339</ele>
        <time>2016-07-16T11:32:51Z</time>
      </trkpt>
      <trkpt lat="46.78212" lon="6.47219">
        <ele>1339</ele>
        <time>2016-07-16T11:32:55Z</time>
      </trkpt>
      <trkpt lat="46.78203" lon="6.47212">
        <ele>1339</ele>
        <time>2016-07-16T11:32:59Z</time>
      </trkpt>
      <trkpt lat="46.78198" lon="6.4721">
        <ele>1339</ele>
        <time>2016-07-16T11:33:02Z</time>
      </trkpt>
      <trkpt lat="46.78187" lon="6.47201">
        <ele>1339</ele>
        <time>2016-07-16T11:33:07Z</time>
      </trkpt>
      <trkpt lat="46.78177" lon="6.47186">
        <ele>1341</ele>
        <time>2016-07-16T11:33:12Z</time>
      </trkpt>
      <trkpt lat="46.78171" lon="6.47175">
        <ele>1342</ele>
        <time>2016-07-16T11:33:16Z</time>
      </trkpt>
      <trkpt lat="46.78164" lon="6.47163">
        <ele>1344</ele>
        <time>2016-07-16T11:33:20Z</time>
      </trkpt>
      <trkpt lat="46.78158" lon="6.47158">
        <ele>1344</ele>
        <time>2016-07-16T11:33:23Z</time>
      </trkpt>
      <trkpt lat="46.78151" lon="6.47144">
        <ele>1345</ele>
        <time>2016-07-16T11:33:28Z</time>
      </trkpt>
      <trkpt lat="46.78141" lon="6.47131">
        <ele>1345</ele>
        <time>2016-07-16T11:33:32Z</time>
      </trkpt>
      <trkpt lat="46.78133" lon="6.47118">
        <ele>1346</ele>
        <time>2016-07-16T11:33:37Z</time>
      </trkpt>
      <trkpt lat="46.78124" lon="6.47103">
        <ele>1347</ele>
        <time>2016-07-16T11:33:41Z</time>
      </trkpt>
      <trkpt lat="46.78117" lon="6.47093">
        <ele>1347</ele>
        <time>2016-07-16T11:33:44Z</time>
      </trkpt>
      <trkpt lat="46.78115" lon="6.4709">
        <ele>1347</ele>
        <time>2016-07-16T11:33:47Z</time>
      </trkpt>
      <trkpt lat="46.78101" lon="6.47072">
        <ele>1355</ele>
        <time>2016-07-16T11:33:51Z</time>
      </trkpt>
      <trkpt lat="46.78091" lon="6.47062">
        <ele>1356</ele>
        <time>2016-07-16T11:33:55Z</time>
      </trkpt>
      <trkpt lat="46.78079" lon="6.4705">
        <ele>1350</ele>
        <time>2016-07-16T11:33:59Z</time>
      </trkpt>
      <trkpt lat="46.78064" lon="6.47036">
        <ele>1351</ele>
        <time>2016-07-16T11:34:04Z</time>
      </trkpt>
      <trkpt lat="46.78051" lon="6.47024">
        <ele>1351</ele>
        <time>2016-07-16T11:34:08Z</time>
      </trkpt>
      <trkpt lat="46.78039" lon="6.47012">
        <ele>1350</ele>
        <time>2016-07-16T11:34:12Z</time>
      </trkpt>
      <trkpt lat="46.78025" lon="6.46992">
        <ele>1355</ele>
        <time>2016-07-16T11:34:17Z</time>
      </trkpt>
      <trkpt lat="46.78016" lon="6.4697">
        <ele>1356</ele>
        <time>2016-07-16T11:34:22Z</time>
      </trkpt>
      <trkpt lat="46.7801" lon="6.46952">
        <ele>1357</ele>
        <time>2016-07-16T11:34:26Z</time>
      </trkpt>
      <trkpt lat="46.78003" lon="6.46936">
        <ele>1357</ele>
        <time>2016-07-16T11:34:30Z</time>
      </trkpt>
      <trkpt lat="46.77996" lon="6.46929">
        <ele>1352</ele>
        <time>2016-07-16T11:34:34Z</time>
      </trkpt>
      <trkpt lat="46.77993" lon="6.46918">
        <ele>1353</ele>
        <time>2016-07-16T11:36:04Z</time>
      </trkpt>
      <trkpt lat="46.77995" lon="6.46906">
        <ele>1353</ele>
        <time>2016-07-16T12:00:11Z</time>
      </trkpt>
      <trkpt lat="46.77986" lon="6.46905">
        <ele>1353</ele>
        <time>2016-07-16T12:00:28Z</time>
      </trkpt>
      <trkpt lat="46.77993" lon="6.46913">
        <ele>1354</ele>
        <time>2016-07-16T12:10:35Z</time>
      </trkpt>
      <trkpt lat="46.77994" lon="6.46923">
        <ele>1353</ele>
        <time>2016-07-16T12:13:40Z</time>
      </trkpt>
      <trkpt lat="46.77989" lon="6.46944">
        <ele>1351</ele>
        <time>2016-07-16T12:13:45Z</time>
      </trkpt>
      <trkpt lat="46.77974" lon="6.4694">
        <ele>1351</ele>
        <time>2016-07-16T12:13:50Z</time>
      </trkpt>
      <trkpt lat="46.77955" lon="6.46928">
        <ele>1351</ele>
        <time>2016-07-16T12:13:55Z</time>
      </trkpt>
      <trkpt lat="46.77949" lon="6.46923">
        <ele>1350</ele>
        <time>2016-07-16T12:13:58Z</time>
      </trkpt>
      <trkpt lat="46.77943" lon="6.46919">
        <ele>1350</ele>
        <time>2016-07-16T12:14:28Z</time>
      </trkpt>
      <trkpt lat="46.77935" lon="6.46916">
        <ele>1350</ele>
        <time>2016-07-16T12:14:32Z</time>
      </trkpt>
      <trkpt lat="46.77928" lon="6.4691">
        <ele>1350</ele>
        <time>2016-07-16T12:14:36Z</time>
      </trkpt>
      <trkpt lat="46.77915" lon="6.46902">
        <ele>1350</ele>
        <time>2016-07-16T12:14:40Z</time>
      </trkpt>
      <trkpt lat="46.77903" lon="6.46892">
        <ele>1351</ele>
        <time>2016-07-16T12:14:44Z</time>
      </trkpt>
      <trkpt lat="46.77892" lon="6.46879">
        <ele>1351</ele>
        <time>2016-07-16T12:14:48Z</time>
      </trkpt>
      <trkpt lat="46.77882" lon="6.46869">
        <ele>1351</ele>
        <time>2016-07-16T12:14:52Z</time>
      </trkpt>
      <trkpt lat="46.77872" lon="6.46856">
        <ele>1351</ele>
        <time>2016-07-16T12:14:56Z</time>
      </trkpt>
      <trkpt lat="46.77862" lon="6.46846">
        <ele>1352</ele>
        <time>2016-07-16T12:15:00Z</time>
      </trkpt>
      <trkpt lat="46.77852" lon="6.4684">
        <ele>1352</ele>
        <time>2016-07-16T12:15:04Z</time>
      </trkpt>
      <trkpt lat="46.77843" lon="6.46834">
        <ele>1352</ele>
        <time>2016-07-16T12:15:08Z</time>
      </trkpt>
      <trkpt lat="46.77834" lon="6.46828">
        <ele>1351</ele>
        <time>2016-07-16T12:15:12Z</time>
      </trkpt>
      <trkpt lat="46.77824" lon="6.46821">
        <ele>1353</ele>
        <time>2016-07-16T12:15:16Z</time>
      </trkpt>
      <trkpt lat="46.77814" lon="6.46813">
        <ele>1354</ele>
        <time>2016-07-16T12:15:20Z</time>
      </trkpt>
      <trkpt lat="46.77807" lon="6.46806">
        <ele>1355</ele>
        <time>2016-07-16T12:15:24Z</time>
      </trkpt>
      <trkpt lat="46.778" lon="6.46801">
        <ele>1355</ele>
        <time>2016-07-16T12:15:29Z</time>
      </trkpt>
      <trkpt lat="46.77793" lon="6.46797">
        <ele>1355</ele>
        <time>2016-07-16T12:15:33Z</time>
      </trkpt>
      <trkpt lat="46.77786" lon="6.4679">
        <ele>1355</ele>
        <time>2016-07-16T12:15:37Z</time>
      </trkpt>
      <trkpt lat="46.7778" lon="6.46783">
        <ele>1355</ele>
        <time>2016-07-16T12:15:41Z</time>
      </trkpt>
      <trkpt lat="46.77774" lon="6.46775">
        <ele>1355</ele>
        <time>2016-07-16T12:15:46Z</time>
      </trkpt>
      <trkpt lat="46.77767" lon="6.46768">
        <ele>1355</ele>
        <time>2016-07-16T12:16:20Z</time>
      </trkpt>
      <trkpt lat="46.77761" lon="6.46761">
        <ele>1355</ele>
        <time>2016-07-16T12:16:24Z</time>
      </trkpt>
      <trkpt lat="46.77751" lon="6.46751">
        <ele>1355</ele>
        <time>2016-07-16T12:16:29Z</time>
      </trkpt>
      <trkpt lat="46.7774" lon="6.46743">
        <ele>1358</ele>
        <time>2016-07-16T12:16:34Z</time>
      </trkpt>
      <trkpt lat="46.77732" lon="6.46737">
        <ele>1360</ele>
        <time>2016-07-16T12:16:38Z</time>
      </trkpt>
      <trkpt lat="46.77727" lon="6.46731">
        <ele>1361</ele>
        <time>2016-07-16T12:16:42Z</time>
      </trkpt>
      <trkpt lat="46.77721" lon="6.46723">
        <ele>1361</ele>
        <time>2016-07-16T12:16:48Z</time>
      </trkpt>
      <trkpt lat="46.77715" lon="6.46713">
        <ele>1362</ele>
        <time>2016-07-16T12:16:55Z</time>
      </trkpt>
      <trkpt lat="46.77704" lon="6.46706">
        <ele>1363</ele>
        <time>2016-07-16T12:16:59Z</time>
      </trkpt>
      <trkpt lat="46.77697" lon="6.46698">
        <ele>1363</ele>
        <time>2016-07-16T12:17:04Z</time>
      </trkpt>
      <trkpt lat="46.7769" lon="6.4669">
        <ele>1364</ele>
        <time>2016-07-16T12:17:10Z</time>
      </trkpt>
      <trkpt lat="46.77684" lon="6.46681">
        <ele>1365</ele>
        <time>2016-07-16T12:17:14Z</time>
      </trkpt>
      <trkpt lat="46.7768" lon="6.46672">
        <ele>1365</ele>
        <time>2016-07-16T12:17:18Z</time>
      </trkpt>
      <trkpt lat="46.77674" lon="6.46665">
        <ele>1363</ele>
        <time>2016-07-16T12:17:22Z</time>
      </trkpt>
      <trkpt lat="46.77665" lon="6.46659">
        <ele>1370</ele>
        <time>2016-07-16T12:17:27Z</time>
      </trkpt>
      <trkpt lat="46.77657" lon="6.4665">
        <ele>1371</ele>
        <time>2016-07-16T12:17:32Z</time>
      </trkpt>
      <trkpt lat="46.7765" lon="6.46643">
        <ele>1372</ele>
        <time>2016-07-16T12:17:36Z</time>
      </trkpt>
      <trkpt lat="46.77645" lon="6.46631">
        <ele>1372</ele>
        <time>2016-07-16T12:17:41Z</time>
      </trkpt>
      <trkpt lat="46.77641" lon="6.46621">
        <ele>1372</ele>
        <time>2016-07-16T12:17:45Z</time>
      </trkpt>
      <trkpt lat="46.77633" lon="6.46611">
        <ele>1372</ele>
        <time>2016-07-16T12:17:50Z</time>
      </trkpt>
      <trkpt lat="46.77628" lon="6.46603">
        <ele>1372</ele>
        <time>2016-07-16T12:17:54Z</time>
      </trkpt>
      <trkpt lat="46.7762" lon="6.46594">
        <ele>1374</ele>
        <time>2016-07-16T12:17:58Z</time>
      </trkpt>
      <trkpt lat="46.77616" lon="6.46584">
        <ele>1374</ele>
        <time>2016-07-16T12:18:03Z</time>
      </trkpt>
      <trkpt lat="46.77613" lon="6.46578">
        <ele>1365</ele>
        <time>2016-07-16T12:18:06Z</time>
      </trkpt>
      <trkpt lat="46.77609" lon="6.46568">
        <ele>1365</ele>
        <time>2016-07-16T12:18:10Z</time>
      </trkpt>
      <trkpt lat="46.77604" lon="6.46559">
        <ele>1365</ele>
        <time>2016-07-16T12:18:14Z</time>
      </trkpt>
      <trkpt lat="46.77598" lon="6.46551">
        <ele>1364</ele>
        <time>2016-07-16T12:18:19Z</time>
      </trkpt>
      <trkpt lat="46.7759" lon="6.46546">
        <ele>1365</ele>
        <time>2016-07-16T12:18:23Z</time>
      </trkpt>
      <trkpt lat="46.77582" lon="6.46539">
        <ele>1386</ele>
        <time>2016-07-16T12:18:27Z</time>
      </trkpt>
      <trkpt lat="46.77579" lon="6.46525">
        <ele>1383</ele>
        <time>2016-07-16T12:18:32Z</time>
      </trkpt>
      <trkpt lat="46.77575" lon="6.46516">
        <ele>1379</ele>
        <time>2016-07-16T12:18:36Z</time>
      </trkpt>
      <trkpt lat="46.77572" lon="6.46503">
        <ele>1376</ele>
        <time>2016-07-16T12:18:40Z</time>
      </trkpt>
      <trkpt lat="46.77568" lon="6.46493">
        <ele>1371</ele>
        <time>2016-07-16T12:18:44Z</time>
      </trkpt>
      <trkpt lat="46.77561" lon="6.46484">
        <ele>1373</ele>
        <time>2016-07-16T12:18:49Z</time>
      </trkpt>
      <trkpt lat="46.77554" lon="6.46478">
        <ele>1375</ele>
        <time>2016-07-16T12:18:55Z</time>
      </trkpt>
      <trkpt lat="46.77548" lon="6.46472">
        <ele>1376</ele>
        <time>2016-07-16T12:18:59Z</time>
      </trkpt>
      <trkpt lat="46.77539" lon="6.46469">
        <ele>1378</ele>
        <time>2016-07-16T12:19:03Z</time>
      </trkpt>
      <trkpt lat="46.7753" lon="6.46464">
        <ele>1380</ele>
        <time>2016-07-16T12:19:08Z</time>
      </trkpt>
      <trkpt lat="46.77522" lon="6.46456">
        <ele>1380</ele>
        <time>2016-07-16T12:19:13Z</time>
      </trkpt>
      <trkpt lat="46.77515" lon="6.46438">
        <ele>1380</ele>
        <time>2016-07-16T12:19:18Z</time>
      </trkpt>
      <trkpt lat="46.77505" lon="6.46423">
        <ele>1383</ele>
        <time>2016-07-16T12:19:22Z</time>
      </trkpt>
      <trkpt lat="46.77495" lon="6.46404">
        <ele>1388</ele>
        <time>2016-07-16T12:19:27Z</time>
      </trkpt>
      <trkpt lat="46.77491" lon="6.46388">
        <ele>1389</ele>
        <time>2016-07-16T12:19:31Z</time>
      </trkpt>
      <trkpt lat="46.77487" lon="6.46372">
        <ele>1388</ele>
        <time>2016-07-16T12:19:35Z</time>
      </trkpt>
      <trkpt lat="46.77478" lon="6.46351">
        <ele>1386</ele>
        <time>2016-07-16T12:19:38Z</time>
      </trkpt>
      <trkpt lat="46.77471" lon="6.46349">
        <ele>1387</ele>
        <time>2016-07-16T12:19:43Z</time>
      </trkpt>
      <trkpt lat="46.77465" lon="6.46338">
        <ele>1388</ele>
        <time>2016-07-16T12:19:48Z</time>
      </trkpt>
      <trkpt lat="46.77459" lon="6.46331">
        <ele>1377</ele>
        <time>2016-07-16T12:19:54Z</time>
      </trkpt>
      <trkpt lat="46.77456" lon="6.46319">
        <ele>1377</ele>
        <time>2016-07-16T12:20:00Z</time>
      </trkpt>
      <trkpt lat="46.77448" lon="6.46316">
        <ele>1378</ele>
        <time>2016-07-16T12:20:06Z</time>
      </trkpt>
      <trkpt lat="46.77441" lon="6.46307">
        <ele>1378</ele>
        <time>2016-07-16T12:20:13Z</time>
      </trkpt>
      <trkpt lat="46.77437" lon="6.46299">
        <ele>1378</ele>
        <time>2016-07-16T12:20:18Z</time>
      </trkpt>
      <trkpt lat="46.77432" lon="6.46291">
        <ele>1377</ele>
        <time>2016-07-16T12:20:23Z</time>
      </trkpt>
      <trkpt lat="46.77426" lon="6.46285">
        <ele>1376</ele>
        <time>2016-07-16T12:20:29Z</time>
      </trkpt>
      <trkpt lat="46.77411" lon="6.46286">
        <ele>1402</ele>
        <time>2016-07-16T12:20:34Z</time>
      </trkpt>
      <trkpt lat="46.77405" lon="6.46278">
        <ele>1401</ele>
        <time>2016-07-16T12:20:40Z</time>
      </trkpt>
      <trkpt lat="46.77397" lon="6.46272">
        <ele>1401</ele>
        <time>2016-07-16T12:20:45Z</time>
      </trkpt>
      <trkpt lat="46.77394" lon="6.46261">
        <ele>1399</ele>
        <time>2016-07-16T12:20:50Z</time>
      </trkpt>
      <trkpt lat="46.77391" lon="6.4625">
        <ele>1387</ele>
        <time>2016-07-16T12:20:55Z</time>
      </trkpt>
      <trkpt lat="46.77384" lon="6.46244">
        <ele>1389</ele>
        <time>2016-07-16T12:21:01Z</time>
      </trkpt>
      <trkpt lat="46.77377" lon="6.4624">
        <ele>1391</ele>
        <time>2016-07-16T12:21:06Z</time>
      </trkpt>
      <trkpt lat="46.7737" lon="6.46233">
        <ele>1393</ele>
        <time>2016-07-16T12:21:13Z</time>
      </trkpt>
      <trkpt lat="46.77364" lon="6.46226">
        <ele>1393</ele>
        <time>2016-07-16T12:21:18Z</time>
      </trkpt>
      <trkpt lat="46.77356" lon="6.46221">
        <ele>1395</ele>
        <time>2016-07-16T12:21:23Z</time>
      </trkpt>
      <trkpt lat="46.77348" lon="6.46221">
        <ele>1397</ele>
        <time>2016-07-16T12:21:29Z</time>
      </trkpt>
      <trkpt lat="46.77342" lon="6.46224">
        <ele>1399</ele>
        <time>2016-07-16T12:21:55Z</time>
      </trkpt>
      <trkpt lat="46.77334" lon="6.46219">
        <ele>1398</ele>
        <time>2016-07-16T12:22:06Z</time>
      </trkpt>
      <trkpt lat="46.77328" lon="6.46212">
        <ele>1418</ele>
        <time>2016-07-16T12:22:36Z</time>
      </trkpt>
      <trkpt lat="46.77319" lon="6.46208">
        <ele>1418</ele>
        <time>2016-07-16T12:22:40Z</time>
      </trkpt>
      <trkpt lat="46.7731" lon="6.46204">
        <ele>1419</ele>
        <time>2016-07-16T12:23:02Z</time>
      </trkpt>
      <trkpt lat="46.77301" lon="6.46204">
        <ele>1420</ele>
        <time>2016-07-16T12:23:19Z</time>
      </trkpt>
      <trkpt lat="46.7729" lon="6.46198">
        <ele>1422</ele>
        <time>2016-07-16T12:23:22Z</time>
      </trkpt>
      <trkpt lat="46.77278" lon="6.46186">
        <ele>1422</ele>
        <time>2016-07-16T12:23:27Z</time>
      </trkpt>
      <trkpt lat="46.77271" lon="6.46179">
        <ele>1422</ele>
        <time>2016-07-16T12:23:33Z</time>
      </trkpt>
      <trkpt lat="46.77263" lon="6.46177">
        <ele>1423</ele>
        <time>2016-07-16T12:23:38Z</time>
      </trkpt>
      <trkpt lat="46.77257" lon="6.46169">
        <ele>1423</ele>
        <time>2016-07-16T12:23:46Z</time>
      </trkpt>
      <trkpt lat="46.7725" lon="6.46161">
        <ele>1417</ele>
        <time>2016-07-16T12:23:58Z</time>
      </trkpt>
      <trkpt lat="46.77242" lon="6.46161">
        <ele>1422</ele>
        <time>2016-07-16T12:24:05Z</time>
      </trkpt>
      <trkpt lat="46.77234" lon="6.46165">
        <ele>1422</ele>
        <time>2016-07-16T12:24:09Z</time>
      </trkpt>
      <trkpt lat="46.77226" lon="6.46171">
        <ele>1441</ele>
        <time>2016-07-16T12:24:16Z</time>
      </trkpt>
      <trkpt lat="46.77218" lon="6.46168">
        <ele>1444</ele>
        <time>2016-07-16T12:24:30Z</time>
      </trkpt>
      <trkpt lat="46.77211" lon="6.46173">
        <ele>1447</ele>
        <time>2016-07-16T12:25:22Z</time>
      </trkpt>
      <trkpt lat="46.77203" lon="6.46176">
        <ele>1449</ele>
        <time>2016-07-16T12:25:27Z</time>
      </trkpt>
      <trkpt lat="46.77195" lon="6.46171">
        <ele>1449</ele>
        <time>2016-07-16T12:25:46Z</time>
      </trkpt>
      <trkpt lat="46.77195" lon="6.46172">
        <ele>1449</ele>
        <time>2016-07-16T12:26:18Z</time>
      </trkpt>
      <trkpt lat="46.77181" lon="6.46173">
        <ele>1450</ele>
        <time>2016-07-16T12:26:30Z</time>
      </trkpt>
      <trkpt lat="46.77172" lon="6.46172">
        <ele>1449</ele>
        <time>2016-07-16T12:26:43Z</time>
      </trkpt>
      <trkpt lat="46.77164" lon="6.46175">
        <ele>1457</ele>
        <time>2016-07-16T12:27:16Z</time>
      </trkpt>
      <trkpt lat="46.77156" lon="6.46175">
        <ele>1461</ele>
        <time>2016-07-16T12:27:21Z</time>
      </trkpt>
      <trkpt lat="46.77149" lon="6.46175">
        <ele>1466</ele>
        <time>2016-07-16T12:27:27Z</time>
      </trkpt>
      <trkpt lat="46.77141" lon="6.46173">
        <ele>1469</ele>
        <time>2016-07-16T12:27:33Z</time>
      </trkpt>
      <trkpt lat="46.77138" lon="6.46162">
        <ele>1447</ele>
        <time>2016-07-16T12:27:37Z</time>
      </trkpt>
      <trkpt lat="46.7713" lon="6.46164">
        <ele>1449</ele>
        <time>2016-07-16T12:27:43Z</time>
      </trkpt>
      <trkpt lat="46.77122" lon="6.46158">
        <ele>1450</ele>
        <time>2016-07-16T12:27:55Z</time>
      </trkpt>
      <trkpt lat="46.77113" lon="6.46157">
        <ele>1453</ele>
        <time>2016-07-16T12:28:04Z</time>
      </trkpt>
      <trkpt lat="46.77106" lon="6.46165">
        <ele>1457</ele>
        <time>2016-07-16T12:29:35Z</time>
      </trkpt>
      <trkpt lat="46.77099" lon="6.46163">
        <ele>1461</ele>
        <time>2016-07-16T12:29:39Z</time>
      </trkpt>
      <trkpt lat="46.77092" lon="6.4616">
        <ele>1464</ele>
        <time>2016-07-16T12:29:44Z</time>
      </trkpt>
      <trkpt lat="46.77084" lon="6.46154">
        <ele>1463</ele>
        <time>2016-07-16T12:29:54Z</time>
      </trkpt>
      <trkpt lat="46.77077" lon="6.46151">
        <ele>1472</ele>
        <time>2016-07-16T12:30:33Z</time>
      </trkpt>
      <trkpt lat="46.7707" lon="6.46146">
        <ele>1471</ele>
        <time>2016-07-16T12:30:36Z</time>
      </trkpt>
      <trkpt lat="46.77061" lon="6.46142">
        <ele>1471</ele>
        <time>2016-07-16T12:30:40Z</time>
      </trkpt>
      <trkpt lat="46.77053" lon="6.46144">
        <ele>1472</ele>
        <time>2016-07-16T12:30:44Z</time>
      </trkpt>
      <trkpt lat="46.77046" lon="6.46148">
        <ele>1473</ele>
        <time>2016-07-16T12:30:49Z</time>
      </trkpt>
      <trkpt lat="46.77039" lon="6.46154">
        <ele>1475</ele>
        <time>2016-07-16T12:32:31Z</time>
      </trkpt>
      <trkpt lat="46.77023" lon="6.46154">
        <ele>1479</ele>
        <time>2016-07-16T12:32:36Z</time>
      </trkpt>
      <trkpt lat="46.77007" lon="6.46156">
        <ele>1486</ele>
        <time>2016-07-16T12:32:40Z</time>
      </trkpt>
      <trkpt lat="46.76999" lon="6.46151">
        <ele>1495</ele>
        <time>2016-07-16T12:32:44Z</time>
      </trkpt>
      <trkpt lat="46.76995" lon="6.46154">
        <ele>1495</ele>
        <time>2016-07-16T12:32:48Z</time>
      </trkpt>
      <trkpt lat="46.76983" lon="6.46156">
        <ele>1496</ele>
        <time>2016-07-16T12:32:53Z</time>
      </trkpt>
      <trkpt lat="46.7698" lon="6.46168">
        <ele>1508</ele>
        <time>2016-07-16T12:34:37Z</time>
      </trkpt>
      <trkpt lat="46.76975" lon="6.46183">
        <ele>1511</ele>
        <time>2016-07-16T12:34:42Z</time>
      </trkpt>
      <trkpt lat="46.76963" lon="6.46189">
        <ele>1514</ele>
        <time>2016-07-16T12:34:46Z</time>
      </trkpt>
      <trkpt lat="46.7696" lon="6.46201">
        <ele>1516</ele>
        <time>2016-07-16T12:34:53Z</time>
      </trkpt>
      <trkpt lat="46.76968" lon="6.46208">
        <ele>1516</ele>
        <time>2016-07-16T12:35:18Z</time>
      </trkpt>
      <trkpt lat="46.76971" lon="6.46219">
        <ele>1517</ele>
        <time>2016-07-16T12:35:28Z</time>
      </trkpt>
      <trkpt lat="46.76976" lon="6.4623">
        <ele>1518</ele>
        <time>2016-07-16T12:35:37Z</time>
      </trkpt>
      <trkpt lat="46.76981" lon="6.46239">
        <ele>1518</ele>
        <time>2016-07-16T12:35:44Z</time>
      </trkpt>
      <trkpt lat="46.76988" lon="6.46244">
        <ele>1518</ele>
        <time>2016-07-16T12:35:50Z</time>
      </trkpt>
      <trkpt lat="46.76996" lon="6.46251">
        <ele>1521</ele>
        <time>2016-07-16T12:36:36Z</time>
      </trkpt>
      <trkpt lat="46.77" lon="6.46262">
        <ele>1523</ele>
        <time>2016-07-16T12:36:42Z</time>
      </trkpt>
      <trkpt lat="46.77003" lon="6.46272">
        <ele>1523</ele>
        <time>2016-07-16T12:36:49Z</time>
      </trkpt>
      <trkpt lat="46.77004" lon="6.46284">
        <ele>1524</ele>
        <time>2016-07-16T12:36:57Z</time>
      </trkpt>
      <trkpt lat="46.7701" lon="6.46293">
        <ele>1526</ele>
        <time>2016-07-16T12:37:07Z</time>
      </trkpt>
      <trkpt lat="46.77015" lon="6.46303">
        <ele>1527</ele>
        <time>2016-07-16T12:37:16Z</time>
      </trkpt>
      <trkpt lat="46.7702" lon="6.46309">
        <ele>1527</ele>
        <time>2016-07-16T12:37:22Z</time>
      </trkpt>
      <trkpt lat="46.77026" lon="6.46319">
        <ele>1528</ele>
        <time>2016-07-16T12:37:29Z</time>
      </trkpt>
      <trkpt lat="46.77033" lon="6.46327">
        <ele>1528</ele>
        <time>2016-07-16T12:37:40Z</time>
      </trkpt>
      <trkpt lat="46.77034" lon="6.46339">
        <ele>1536</ele>
        <time>2016-07-16T12:37:48Z</time>
      </trkpt>
      <trkpt lat="46.77038" lon="6.46349">
        <ele>1536</ele>
        <time>2016-07-16T12:37:55Z</time>
      </trkpt>
      <trkpt lat="46.77041" lon="6.46359">
        <ele>1537</ele>
        <time>2016-07-16T12:38:09Z</time>
      </trkpt>
      <trkpt lat="46.77045" lon="6.46371">
        <ele>1537</ele>
        <time>2016-07-16T12:38:17Z</time>
      </trkpt>
      <trkpt lat="46.77049" lon="6.46381">
        <ele>1538</ele>
        <time>2016-07-16T12:38:34Z</time>
      </trkpt>
      <trkpt lat="46.77055" lon="6.46389">
        <ele>1539</ele>
        <time>2016-07-16T12:38:41Z</time>
      </trkpt>
      <trkpt lat="46.77062" lon="6.46396">
        <ele>1540</ele>
        <time>2016-07-16T12:38:50Z</time>
      </trkpt>
      <trkpt lat="46.77069" lon="6.46403">
        <ele>1542</ele>
        <time>2016-07-16T12:38:58Z</time>
      </trkpt>
      <trkpt lat="46.77074" lon="6.46414">
        <ele>1544</ele>
        <time>2016-07-16T12:39:14Z</time>
      </trkpt>
      <trkpt lat="46.77081" lon="6.46421">
        <ele>1546</ele>
        <time>2016-07-16T12:39:20Z</time>
      </trkpt>
      <trkpt lat="46.77089" lon="6.46424">
        <ele>1549</ele>
        <time>2016-07-16T12:39:26Z</time>
      </trkpt>
      <trkpt lat="46.77096" lon="6.46432">
        <ele>1550</ele>
        <time>2016-07-16T12:39:48Z</time>
      </trkpt>
      <trkpt lat="46.77103" lon="6.46437">
        <ele>1551</ele>
        <time>2016-07-16T12:39:53Z</time>
      </trkpt>
      <trkpt lat="46.7711" lon="6.46445">
        <ele>1552</ele>
        <time>2016-07-16T12:40:01Z</time>
      </trkpt>
      <trkpt lat="46.77117" lon="6.46449">
        <ele>1552</ele>
        <time>2016-07-16T12:40:06Z</time>
      </trkpt>
      <trkpt lat="46.77124" lon="6.46456">
        <ele>1553</ele>
        <time>2016-07-16T12:40:13Z</time>
      </trkpt>
      <trkpt lat="46.77129" lon="6.46463">
        <ele>1553</ele>
        <time>2016-07-16T12:40:24Z</time>
      </trkpt>
      <trkpt lat="46.77137" lon="6.46468">
        <ele>1554</ele>
        <time>2016-07-16T12:40:29Z</time>
      </trkpt>
      <trkpt lat="46.77143" lon="6.46474">
        <ele>1555</ele>
        <time>2016-07-16T12:40:38Z</time>
      </trkpt>
      <trkpt lat="46.77149" lon="6.46484">
        <ele>1556</ele>
        <time>2016-07-16T12:40:46Z</time>
      </trkpt>
      <trkpt lat="46.77155" lon="6.46491">
        <ele>1558</ele>
        <time>2016-07-16T12:40:53Z</time>
      </trkpt>
      <trkpt lat="46.77162" lon="6.46498">
        <ele>1560</ele>
        <time>2016-07-16T12:41:00Z</time>
      </trkpt>
      <trkpt lat="46.77167" lon="6.46507">
        <ele>1561</ele>
        <time>2016-07-16T12:41:14Z</time>
      </trkpt>
      <trkpt lat="46.77172" lon="6.46516">
        <ele>1561</ele>
        <time>2016-07-16T12:41:20Z</time>
      </trkpt>
      <trkpt lat="46.77178" lon="6.46526">
        <ele>1560</ele>
        <time>2016-07-16T12:41:27Z</time>
      </trkpt>
      <trkpt lat="46.77183" lon="6.46535">
        <ele>1560</ele>
        <time>2016-07-16T12:41:36Z</time>
      </trkpt>
      <trkpt lat="46.77189" lon="6.46545">
        <ele>1560</ele>
        <time>2016-07-16T12:41:44Z</time>
      </trkpt>
      <trkpt lat="46.77194" lon="6.46554">
        <ele>1561</ele>
        <time>2016-07-16T12:41:55Z</time>
      </trkpt>
      <trkpt lat="46.77201" lon="6.46561">
        <ele>1561</ele>
        <time>2016-07-16T12:42:02Z</time>
      </trkpt>
      <trkpt lat="46.77209" lon="6.46567">
        <ele>1561</ele>
        <time>2016-07-16T12:42:09Z</time>
      </trkpt>
      <trkpt lat="46.77215" lon="6.46574">
        <ele>1561</ele>
        <time>2016-07-16T12:42:17Z</time>
      </trkpt>
      <trkpt lat="46.7722" lon="6.46584">
        <ele>1565</ele>
        <time>2016-07-16T12:42:27Z</time>
      </trkpt>
      <trkpt lat="46.77225" lon="6.46594">
        <ele>1565</ele>
        <time>2016-07-16T12:42:38Z</time>
      </trkpt>
      <trkpt lat="46.77231" lon="6.46604">
        <ele>1565</ele>
        <time>2016-07-16T12:43:27Z</time>
      </trkpt>
      <trkpt lat="46.77237" lon="6.46613">
        <ele>1565</ele>
        <time>2016-07-16T12:43:41Z</time>
      </trkpt>
      <trkpt lat="46.77239" lon="6.46624">
        <ele>1566</ele>
        <time>2016-07-16T12:47:29Z</time>
      </trkpt>
      <trkpt lat="46.7724" lon="6.46637">
        <ele>1566</ele>
        <time>2016-07-16T12:52:13Z</time>
      </trkpt>
      <trkpt lat="46.77249" lon="6.46635">
        <ele>1567</ele>
        <time>2016-07-16T13:03:46Z</time>
      </trkpt>
      <trkpt lat="46.77256" lon="6.46652">
        <ele>1562</ele>
        <time>2016-07-16T13:03:50Z</time>
      </trkpt>
      <trkpt lat="46.77263" lon="6.46667">
        <ele>1566</ele>
        <time>2016-07-16T13:03:54Z</time>
      </trkpt>
      <trkpt lat="46.7728" lon="6.46687">
        <ele>1561</ele>
        <time>2016-07-16T13:03:59Z</time>
      </trkpt>
      <trkpt lat="46.77288" lon="6.46699">
        <ele>1560</ele>
        <time>2016-07-16T13:04:03Z</time>
      </trkpt>
      <trkpt lat="46.77293" lon="6.46708">
        <ele>1559</ele>
        <time>2016-07-16T13:04:08Z</time>
      </trkpt>
      <trkpt lat="46.77299" lon="6.46715">
        <ele>1559</ele>
        <time>2016-07-16T13:04:29Z</time>
      </trkpt>
      <trkpt lat="46.77302" lon="6.46727">
        <ele>1560</ele>
        <time>2016-07-16T13:05:06Z</time>
      </trkpt>
      <trkpt lat="46.77304" lon="6.4674">
        <ele>1560</ele>
        <time>2016-07-16T13:05:11Z</time>
      </trkpt>
      <trkpt lat="46.77309" lon="6.46762">
        <ele>1561</ele>
        <time>2016-07-16T13:05:16Z</time>
      </trkpt>
      <trkpt lat="46.77316" lon="6.46787">
        <ele>1562</ele>
        <time>2016-07-16T13:05:21Z</time>
      </trkpt>
      <trkpt lat="46.77323" lon="6.4681">
        <ele>1563</ele>
        <time>2016-07-16T13:05:25Z</time>
      </trkpt>
      <trkpt lat="46.7733" lon="6.46831">
        <ele>1566</ele>
        <time>2016-07-16T13:05:30Z</time>
      </trkpt>
      <trkpt lat="46.77335" lon="6.46843">
        <ele>1563</ele>
        <time>2016-07-16T13:05:34Z</time>
      </trkpt>
      <trkpt lat="46.77342" lon="6.46859">
        <ele>1560</ele>
        <time>2016-07-16T13:05:38Z</time>
      </trkpt>
      <trkpt lat="46.77348" lon="6.46871">
        <ele>1559</ele>
        <time>2016-07-16T13:05:43Z</time>
      </trkpt>
      <trkpt lat="46.77353" lon="6.46886">
        <ele>1559</ele>
        <time>2016-07-16T13:05:47Z</time>
      </trkpt>
      <trkpt lat="46.77358" lon="6.46901">
        <ele>1559</ele>
        <time>2016-07-16T13:05:52Z</time>
      </trkpt>
      <trkpt lat="46.77365" lon="6.46917">
        <ele>1559</ele>
        <time>2016-07-16T13:05:56Z</time>
      </trkpt>
      <trkpt lat="46.77371" lon="6.46932">
        <ele>1558</ele>
        <time>2016-07-16T13:05:59Z</time>
      </trkpt>
      <trkpt lat="46.77381" lon="6.46956">
        <ele>1557</ele>
        <time>2016-07-16T13:06:04Z</time>
      </trkpt>
      <trkpt lat="46.77395" lon="6.46974">
        <ele>1558</ele>
        <time>2016-07-16T13:06:09Z</time>
      </trkpt>
      <trkpt lat="46.77403" lon="6.46981">
        <ele>1558</ele>
        <time>2016-07-16T13:06:14Z</time>
      </trkpt>
      <trkpt lat="46.77412" lon="6.46986">
        <ele>1559</ele>
        <time>2016-07-16T13:06:18Z</time>
      </trkpt>
      <trkpt lat="46.77427" lon="6.46994">
        <ele>1554</ele>
        <time>2016-07-16T13:06:23Z</time>
      </trkpt>
      <trkpt lat="46.77449" lon="6.47014">
        <ele>1547</ele>
        <time>2016-07-16T13:06:27Z</time>
      </trkpt>
      <trkpt lat="46.77465" lon="6.47024">
        <ele>1544</ele>
        <time>2016-07-16T13:06:31Z</time>
      </trkpt>
      <trkpt lat="46.77471" lon="6.47034">
        <ele>1543</ele>
        <time>2016-07-16T13:07:30Z</time>
      </trkpt>
      <trkpt lat="46.77479" lon="6.47047">
        <ele>1543</ele>
        <time>2016-07-16T13:07:35Z</time>
      </trkpt>
      <trkpt lat="46.77486" lon="6.47064">
        <ele>1541</ele>
        <time>2016-07-16T13:07:40Z</time>
      </trkpt>
      <trkpt lat="46.77502" lon="6.47105">
        <ele>1528</ele>
        <time>2016-07-16T13:07:44Z</time>
      </trkpt>
      <trkpt lat="46.77518" lon="6.47143">
        <ele>1524</ele>
        <time>2016-07-16T13:07:49Z</time>
      </trkpt>
      <trkpt lat="46.77528" lon="6.47168">
        <ele>1525</ele>
        <time>2016-07-16T13:07:54Z</time>
      </trkpt>
      <trkpt lat="46.77534" lon="6.47179">
        <ele>1524</ele>
        <time>2016-07-16T13:07:57Z</time>
      </trkpt>
      <trkpt lat="46.7754" lon="6.47196">
        <ele>1522</ele>
        <time>2016-07-16T13:08:02Z</time>
      </trkpt>
      <trkpt lat="46.77545" lon="6.47208">
        <ele>1522</ele>
        <time>2016-07-16T13:08:07Z</time>
      </trkpt>
      <trkpt lat="46.77548" lon="6.47219">
        <ele>1522</ele>
        <time>2016-07-16T13:08:17Z</time>
      </trkpt>
      <trkpt lat="46.77549" lon="6.47231">
        <ele>1522</ele>
        <time>2016-07-16T13:08:24Z</time>
      </trkpt>
      <trkpt lat="46.77553" lon="6.47241">
        <ele>1522</ele>
        <time>2016-07-16T13:08:29Z</time>
      </trkpt>
      <trkpt lat="46.77561" lon="6.47261">
        <ele>1518</ele>
        <time>2016-07-16T13:08:34Z</time>
      </trkpt>
      <trkpt lat="46.77564" lon="6.47276">
        <ele>1517</ele>
        <time>2016-07-16T13:08:38Z</time>
      </trkpt>
      <trkpt lat="46.77571" lon="6.47295">
        <ele>1516</ele>
        <time>2016-07-16T13:08:43Z</time>
      </trkpt>
      <trkpt lat="46.77577" lon="6.47311">
        <ele>1516</ele>
        <time>2016-07-16T13:08:47Z</time>
      </trkpt>
      <trkpt lat="46.77582" lon="6.47324">
        <ele>1515</ele>
        <time>2016-07-16T13:08:52Z</time>
      </trkpt>
      <trkpt lat="46.77586" lon="6.47335">
        <ele>1513</ele>
        <time>2016-07-16T13:08:56Z</time>
      </trkpt>
      <trkpt lat="46.77592" lon="6.47339">
        <ele>1508</ele>
        <time>2016-07-16T13:09:05Z</time>
      </trkpt>
      <trkpt lat="46.77598" lon="6.47352">
        <ele>1503</ele>
        <time>2016-07-16T13:09:10Z</time>
      </trkpt>
      <trkpt lat="46.77611" lon="6.4738">
        <ele>1497</ele>
        <time>2016-07-16T13:09:14Z</time>
      </trkpt>
      <trkpt lat="46.77623" lon="6.4741">
        <ele>1495</ele>
        <time>2016-07-16T13:09:19Z</time>
      </trkpt>
      <trkpt lat="46.7763" lon="6.47429">
        <ele>1489</ele>
        <time>2016-07-16T13:09:23Z</time>
      </trkpt>
      <trkpt lat="46.77641" lon="6.47459">
        <ele>1487</ele>
        <time>2016-07-16T13:09:27Z</time>
      </trkpt>
      <trkpt lat="46.77655" lon="6.47491">
        <ele>1486</ele>
        <time>2016-07-16T13:09:32Z</time>
      </trkpt>
      <trkpt lat="46.7767" lon="6.47524">
        <ele>1474</ele>
        <time>2016-07-16T13:09:37Z</time>
      </trkpt>
      <trkpt lat="46.77683" lon="6.47545">
        <ele>1470</ele>
        <time>2016-07-16T13:09:41Z</time>
      </trkpt>
      <trkpt lat="46.77697" lon="6.47571">
        <ele>1469</ele>
        <time>2016-07-16T13:09:46Z</time>
      </trkpt>
      <trkpt lat="46.7771" lon="6.47607">
        <ele>1463</ele>
        <time>2016-07-16T13:09:51Z</time>
      </trkpt>
      <trkpt lat="46.77725" lon="6.47642">
        <ele>1462</ele>
        <time>2016-07-16T13:09:56Z</time>
      </trkpt>
      <trkpt lat="46.77737" lon="6.47667">
        <ele>1459</ele>
        <time>2016-07-16T13:10:00Z</time>
      </trkpt>
      <trkpt lat="46.77753" lon="6.47703">
        <ele>1450</ele>
        <time>2016-07-16T13:10:05Z</time>
      </trkpt>
      <trkpt lat="46.77761" lon="6.47721">
        <ele>1449</ele>
        <time>2016-07-16T13:10:09Z</time>
      </trkpt>
      <trkpt lat="46.77774" lon="6.47738">
        <ele>1448</ele>
        <time>2016-07-16T13:10:14Z</time>
      </trkpt>
      <trkpt lat="46.77783" lon="6.47763">
        <ele>1445</ele>
        <time>2016-07-16T13:10:18Z</time>
      </trkpt>
      <trkpt lat="46.778" lon="6.478">
        <ele>1443</ele>
        <time>2016-07-16T13:10:23Z</time>
      </trkpt>
      <trkpt lat="46.77816" lon="6.47827">
        <ele>1442</ele>
        <time>2016-07-16T13:10:27Z</time>
      </trkpt>
      <trkpt lat="46.77836" lon="6.47865">
        <ele>1431</ele>
        <time>2016-07-16T13:10:32Z</time>
      </trkpt>
      <trkpt lat="46.7785" lon="6.47898">
        <ele>1431</ele>
        <time>2016-07-16T13:10:37Z</time>
      </trkpt>
      <trkpt lat="46.77855" lon="6.47915">
        <ele>1431</ele>
        <time>2016-07-16T13:10:41Z</time>
      </trkpt>
      <trkpt lat="46.77863" lon="6.47928">
        <ele>1427</ele>
        <time>2016-07-16T13:10:46Z</time>
      </trkpt>
      <trkpt lat="46.77871" lon="6.47946">
        <ele>1425</ele>
        <time>2016-07-16T13:10:51Z</time>
      </trkpt>
      <trkpt lat="46.77877" lon="6.47961">
        <ele>1423</ele>
        <time>2016-07-16T13:10:55Z</time>
      </trkpt>
      <trkpt lat="46.77884" lon="6.47968">
        <ele>1422</ele>
        <time>2016-07-16T13:12:09Z</time>
      </trkpt>
      <trkpt lat="46.77888" lon="6.47979">
        <ele>1422</ele>
        <time>2016-07-16T13:12:22Z</time>
      </trkpt>
      <trkpt lat="46.77894" lon="6.47987">
        <ele>1421</ele>
        <time>2016-07-16T13:12:36Z</time>
      </trkpt>
      <trkpt lat="46.779" lon="6.47995">
        <ele>1420</ele>
        <time>2016-07-16T13:12:49Z</time>
      </trkpt>
      <trkpt lat="46.77906" lon="6.48004">
        <ele>1416</ele>
        <time>2016-07-16T13:13:10Z</time>
      </trkpt>
      <trkpt lat="46.77909" lon="6.48016">
        <ele>1414</ele>
        <time>2016-07-16T13:18:08Z</time>
      </trkpt>
      <trkpt lat="46.77919" lon="6.48027">
        <ele>1405</ele>
        <time>2016-07-16T13:18:13Z</time>
      </trkpt>
      <trkpt lat="46.77926" lon="6.48036">
        <ele>1403</ele>
        <time>2016-07-16T13:18:17Z</time>
      </trkpt>
      <trkpt lat="46.77929" lon="6.48052">
        <ele>1402</ele>
        <time>2016-07-16T13:18:21Z</time>
      </trkpt>
      <trkpt lat="46.77934" lon="6.48069">
        <ele>1402</ele>
        <time>2016-07-16T13:18:26Z</time>
      </trkpt>
      <trkpt lat="46.77941" lon="6.48086">
        <ele>1398</ele>
        <time>2016-07-16T13:18:31Z</time>
      </trkpt>
      <trkpt lat="46.7795" lon="6.48098">
        <ele>1395</ele>
        <time>2016-07-16T13:18:35Z</time>
      </trkpt>
      <trkpt lat="46.77956" lon="6.48106">
        <ele>1393</ele>
        <time>2016-07-16T13:18:43Z</time>
      </trkpt>
      <trkpt lat="46.77964" lon="6.48121">
        <ele>1392</ele>
        <time>2016-07-16T13:18:47Z</time>
      </trkpt>
      <trkpt lat="46.77969" lon="6.4814">
        <ele>1391</ele>
        <time>2016-07-16T13:18:52Z</time>
      </trkpt>
      <trkpt lat="46.77974" lon="6.48156">
        <ele>1391</ele>
        <time>2016-07-16T13:18:56Z</time>
      </trkpt>
      <trkpt lat="46.7798" lon="6.48174">
        <ele>1384</ele>
        <time>2016-07-16T13:19:00Z</time>
      </trkpt>
      <trkpt lat="46.77991" lon="6.48184">
        <ele>1384</ele>
        <time>2016-07-16T13:19:05Z</time>
      </trkpt>
      <trkpt lat="46.77994" lon="6.48195">
        <ele>1382</ele>
        <time>2016-07-16T13:19:10Z</time>
      </trkpt>
      <trkpt lat="46.78003" lon="6.4821">
        <ele>1376</ele>
        <time>2016-07-16T13:19:14Z</time>
      </trkpt>
      <trkpt lat="46.78011" lon="6.48226">
        <ele>1374</ele>
        <time>2016-07-16T13:19:19Z</time>
      </trkpt>
      <trkpt lat="46.78019" lon="6.4824">
        <ele>1374</ele>
        <time>2016-07-16T13:19:23Z</time>
      </trkpt>
      <trkpt lat="46.78025" lon="6.48254">
        <ele>1370</ele>
        <time>2016-07-16T13:19:28Z</time>
      </trkpt>
      <trkpt lat="46.78024" lon="6.48267">
        <ele>1368</ele>
        <time>2016-07-16T13:19:32Z</time>
      </trkpt>
      <trkpt lat="46.78031" lon="6.48285">
        <ele>1366</ele>
        <time>2016-07-16T13:19:36Z</time>
      </trkpt>
      <trkpt lat="46.78036" lon="6.48303">
        <ele>1364</ele>
        <time>2016-07-16T13:19:40Z</time>
      </trkpt>
      <trkpt lat="46.78037" lon="6.48312">
        <ele>1364</ele>
        <time>2016-07-16T13:19:46Z</time>
      </trkpt>
      <trkpt lat="46.78054" lon="6.48321">
        <ele>1364</ele>
        <time>2016-07-16T13:19:51Z</time>
      </trkpt>
      <trkpt lat="46.78065" lon="6.48333">
        <ele>1363</ele>
        <time>2016-07-16T13:19:55Z</time>
      </trkpt>
      <trkpt lat="46.7807" lon="6.48343">
        <ele>1358</ele>
        <time>2016-07-16T13:20:00Z</time>
      </trkpt>
      <trkpt lat="46.78071" lon="6.48349">
        <ele>1358</ele>
        <time>2016-07-16T13:20:03Z</time>
      </trkpt>
      <trkpt lat="46.78079" lon="6.48362">
        <ele>1356</ele>
        <time>2016-07-16T13:20:08Z</time>
      </trkpt>
      <trkpt lat="46.78085" lon="6.48379">
        <ele>1346</ele>
        <time>2016-07-16T13:20:12Z</time>
      </trkpt>
      <trkpt lat="46.7809" lon="6.48386">
        <ele>1346</ele>
        <time>2016-07-16T13:20:20Z</time>
      </trkpt>
      <trkpt lat="46.78096" lon="6.48394">
        <ele>1346</ele>
        <time>2016-07-16T13:20:41Z</time>
      </trkpt>
      <trkpt lat="46.78101" lon="6.48403">
        <ele>1346</ele>
        <time>2016-07-16T13:20:46Z</time>
      </trkpt>
      <trkpt lat="46.78107" lon="6.48415">
        <ele>1345</ele>
        <time>2016-07-16T13:20:50Z</time>
      </trkpt>
      <trkpt lat="46.78115" lon="6.48432">
        <ele>1339</ele>
        <time>2016-07-16T13:20:55Z</time>
      </trkpt>
      <trkpt lat="46.78123" lon="6.48444">
        <ele>1337</ele>
        <time>2016-07-16T13:20:59Z</time>
      </trkpt>
      <trkpt lat="46.78129" lon="6.4846">
        <ele>1335</ele>
        <time>2016-07-16T13:21:04Z</time>
      </trkpt>
      <trkpt lat="46.78133" lon="6.48473">
        <ele>1334</ele>
        <time>2016-07-16T13:21:08Z</time>
      </trkpt>
      <trkpt lat="46.78137" lon="6.48487">
        <ele>1334</ele>
        <time>2016-07-16T13:21:13Z</time>
      </trkpt>
      <trkpt lat="46.78131" lon="6.48497">
        <ele>1334</ele>
        <time>2016-07-16T13:21:35Z</time>
      </trkpt>
      <trkpt lat="46.78134" lon="6.48508">
        <ele>1327</ele>
        <time>2016-07-16T13:21:50Z</time>
      </trkpt>
      <trkpt lat="46.78137" lon="6.4852">
        <ele>1327</ele>
        <time>2016-07-16T13:22:35Z</time>
      </trkpt>
      <trkpt lat="46.78142" lon="6.4853">
        <ele>1326</ele>
        <time>2016-07-16T13:22:56Z</time>
      </trkpt>
      <trkpt lat="46.78148" lon="6.48539">
        <ele>1326</ele>
        <time>2016-07-16T13:23:01Z</time>
      </trkpt>
      <trkpt lat="46.78151" lon="6.48551">
        <ele>1325</ele>
        <time>2016-07-16T13:23:06Z</time>
      </trkpt>
      <trkpt lat="46.78154" lon="6.4856">
        <ele>1325</ele>
        <time>2016-07-16T13:23:10Z</time>
      </trkpt>
      <trkpt lat="46.78163" lon="6.48577">
        <ele>1326</ele>
        <time>2016-07-16T13:23:15Z</time>
      </trkpt>
      <trkpt lat="46.78171" lon="6.48585">
        <ele>1322</ele>
        <time>2016-07-16T13:23:19Z</time>
      </trkpt>
      <trkpt lat="46.78177" lon="6.48602">
        <ele>1314</ele>
        <time>2016-07-16T13:23:24Z</time>
      </trkpt>
      <trkpt lat="46.78176" lon="6.48614">
        <ele>1312</ele>
        <time>2016-07-16T13:23:28Z</time>
      </trkpt>
      <trkpt lat="46.78182" lon="6.48622">
        <ele>1310</ele>
        <time>2016-07-16T13:23:35Z</time>
      </trkpt>
      <trkpt lat="46.78187" lon="6.48632">
        <ele>1309</ele>
        <time>2016-07-16T13:23:40Z</time>
      </trkpt>
      <trkpt lat="46.78194" lon="6.4865">
        <ele>1308</ele>
        <time>2016-07-16T13:23:45Z</time>
      </trkpt>
      <trkpt lat="46.78197" lon="6.48663">
        <ele>1307</ele>
        <time>2016-07-16T13:23:50Z</time>
      </trkpt>
      <trkpt lat="46.78201" lon="6.48673">
        <ele>1301</ele>
        <time>2016-07-16T13:23:55Z</time>
      </trkpt>
      <trkpt lat="46.78211" lon="6.48684">
        <ele>1299</ele>
        <time>2016-07-16T13:24:00Z</time>
      </trkpt>
      <trkpt lat="46.78214" lon="6.48697">
        <ele>1298</ele>
        <time>2016-07-16T13:24:04Z</time>
      </trkpt>
      <trkpt lat="46.78216" lon="6.48716">
        <ele>1297</ele>
        <time>2016-07-16T13:24:09Z</time>
      </trkpt>
      <trkpt lat="46.78222" lon="6.48727">
        <ele>1296</ele>
        <time>2016-07-16T13:24:13Z</time>
      </trkpt>
      <trkpt lat="46.78228" lon="6.48734">
        <ele>1295</ele>
        <time>2016-07-16T13:24:16Z</time>
      </trkpt>
      <trkpt lat="46.78232" lon="6.48742">
        <ele>1295</ele>
        <time>2016-07-16T13:24:19Z</time>
      </trkpt>
      <trkpt lat="46.78239" lon="6.48755">
        <ele>1288</ele>
        <time>2016-07-16T13:24:24Z</time>
      </trkpt>
      <trkpt lat="46.78245" lon="6.48765">
        <ele>1287</ele>
        <time>2016-07-16T13:24:29Z</time>
      </trkpt>
      <trkpt lat="46.78241" lon="6.48754">
        <ele>1289</ele>
        <time>2016-07-16T13:24:50Z</time>
      </trkpt>
      <trkpt lat="46.78234" lon="6.48747">
        <ele>1295</ele>
        <time>2016-07-16T13:25:06Z</time>
      </trkpt>
      <trkpt lat="46.78238" lon="6.48757">
        <ele>1287</ele>
        <time>2016-07-16T13:26:57Z</time>
      </trkpt>
      <trkpt lat="46.78242" lon="6.48766">
        <ele>1286</ele>
        <time>2016-07-16T13:27:00Z</time>
      </trkpt>
      <trkpt lat="46.78249" lon="6.48779">
        <ele>1283</ele>
        <time>2016-07-16T13:27:04Z</time>
      </trkpt>
      <trkpt lat="46.78261" lon="6.4879">
        <ele>1271</ele>
        <time>2016-07-16T13:27:08Z</time>
      </trkpt>
      <trkpt lat="46.78276" lon="6.48801">
        <ele>1267</ele>
        <time>2016-07-16T13:27:12Z</time>
      </trkpt>
      <trkpt lat="46.78285" lon="6.48813">
        <ele>1265</ele>
        <time>2016-07-16T13:27:16Z</time>
      </trkpt>
      <trkpt lat="46.78291" lon="6.48827">
        <ele>1263</ele>
        <time>2016-07-16T13:27:20Z</time>
      </trkpt>
      <trkpt lat="46.78299" lon="6.48836">
        <ele>1258</ele>
        <time>2016-07-16T13:27:24Z</time>
      </trkpt>
      <trkpt lat="46.783" lon="6.48846">
        <ele>1258</ele>
        <time>2016-07-16T13:28:19Z</time>
      </trkpt>
      <trkpt lat="46.78305" lon="6.48859">
        <ele>1258</ele>
        <time>2016-07-16T13:28:23Z</time>
      </trkpt>
      <trkpt lat="46.78312" lon="6.48873">
        <ele>1257</ele>
        <time>2016-07-16T13:28:27Z</time>
      </trkpt>
      <trkpt lat="46.78316" lon="6.48889">
        <ele>1257</ele>
        <time>2016-07-16T13:28:32Z</time>
      </trkpt>
      <trkpt lat="46.78321" lon="6.48904">
        <ele>1257</ele>
        <time>2016-07-16T13:28:36Z</time>
      </trkpt>
      <trkpt lat="46.78326" lon="6.48916">
        <ele>1256</ele>
        <time>2016-07-16T13:28:41Z</time>
      </trkpt>
      <trkpt lat="46.78336" lon="6.4893">
        <ele>1247</ele>
        <time>2016-07-16T13:28:46Z</time>
      </trkpt>
      <trkpt lat="46.78341" lon="6.48943">
        <ele>1243</ele>
        <time>2016-07-16T13:28:49Z</time>
      </trkpt>
      <trkpt lat="46.78346" lon="6.48952">
        <ele>1241</ele>
        <time>2016-07-16T13:28:54Z</time>
      </trkpt>
      <trkpt lat="46.78353" lon="6.48966">
        <ele>1239</ele>
        <time>2016-07-16T13:28:58Z</time>
      </trkpt>
      <trkpt lat="46.78357" lon="6.4899">
        <ele>1239</ele>
        <time>2016-07-16T13:29:03Z</time>
      </trkpt>
      <trkpt lat="46.78362" lon="6.4901">
        <ele>1235</ele>
        <time>2016-07-16T13:29:08Z</time>
      </trkpt>
      <trkpt lat="46.78362" lon="6.49024">
        <ele>1234</ele>
        <time>2016-07-16T13:29:12Z</time>
      </trkpt>
      <trkpt lat="46.78366" lon="6.49035">
        <ele>1232</ele>
        <time>2016-07-16T13:29:16Z</time>
      </trkpt>
      <trkpt lat="46.78374" lon="6.49042">
        <ele>1231</ele>
        <time>2016-07-16T13:30:36Z</time>
      </trkpt>
      <trkpt lat="46.7838" lon="6.4905">
        <ele>1230</ele>
        <time>2016-07-16T13:30:40Z</time>
      </trkpt>
      <trkpt lat="46.78395" lon="6.49082">
        <ele>1228</ele>
        <time>2016-07-16T13:30:44Z</time>
      </trkpt>
      <trkpt lat="46.7842" lon="6.49134">
        <ele>1213</ele>
        <time>2016-07-16T13:30:49Z</time>
      </trkpt>
      <trkpt lat="46.7844" lon="6.49174">
        <ele>1210</ele>
        <time>2016-07-16T13:30:53Z</time>
      </trkpt>
      <trkpt lat="46.7846" lon="6.49213">
        <ele>1205</ele>
        <time>2016-07-16T13:30:57Z</time>
      </trkpt>
      <trkpt lat="46.78472" lon="6.49227">
        <ele>1204</ele>
        <time>2016-07-16T13:30:59Z</time>
      </trkpt>
      <trkpt lat="46.78482" lon="6.49269">
        <ele>1198</ele>
        <time>2016-07-16T13:31:03Z</time>
      </trkpt>
      <trkpt lat="46.78502" lon="6.49304">
        <ele>1188</ele>
        <time>2016-07-16T13:31:07Z</time>
      </trkpt>
      <trkpt lat="46.78519" lon="6.49346">
        <ele>1186</ele>
        <time>2016-07-16T13:31:12Z</time>
      </trkpt>
      <trkpt lat="46.78541" lon="6.49411">
        <ele>1177</ele>
        <time>2016-07-16T13:31:17Z</time>
      </trkpt>
      <trkpt lat="46.78557" lon="6.49447">
        <ele>1169</ele>
        <time>2016-07-16T13:31:21Z</time>
      </trkpt>
      <trkpt lat="46.78574" lon="6.495">
        <ele>1162</ele>
        <time>2016-07-16T13:31:26Z</time>
      </trkpt>
      <trkpt lat="46.78579" lon="6.4951">
        <ele>1161</ele>
        <time>2016-07-16T13:31:29Z</time>
      </trkpt>
      <trkpt lat="46.78587" lon="6.49531">
        <ele>1150</ele>
        <time>2016-07-16T13:31:33Z</time>
      </trkpt>
      <trkpt lat="46.78593" lon="6.49542">
        <ele>1147</ele>
        <time>2016-07-16T13:31:37Z</time>
      </trkpt>
      <trkpt lat="46.78601" lon="6.49562">
        <ele>1145</ele>
        <time>2016-07-16T13:31:42Z</time>
      </trkpt>
      <trkpt lat="46.78609" lon="6.49575">
        <ele>1143</ele>
        <time>2016-07-16T13:31:46Z</time>
      </trkpt>
      <trkpt lat="46.78628" lon="6.49599">
        <ele>1124</ele>
        <time>2016-07-16T13:31:51Z</time>
      </trkpt>
      <trkpt lat="46.78643" lon="6.49619">
        <ele>1120</ele>
        <time>2016-07-16T13:31:56Z</time>
      </trkpt>
      <trkpt lat="46.78654" lon="6.49631">
        <ele>1117</ele>
        <time>2016-07-16T13:32:00Z</time>
      </trkpt>
      <trkpt lat="46.78661" lon="6.49634">
        <ele>1116</ele>
        <time>2016-07-16T13:32:44Z</time>
      </trkpt>
      <trkpt lat="46.78672" lon="6.49655">
        <ele>1103</ele>
        <time>2016-07-16T13:32:49Z</time>
      </trkpt>
      <trkpt lat="46.78681" lon="6.49666">
        <ele>1103</ele>
        <time>2016-07-16T13:32:53Z</time>
      </trkpt>
      <trkpt lat="46.7869" lon="6.49684">
        <ele>1091</ele>
        <time>2016-07-16T13:32:57Z</time>
      </trkpt>
      <trkpt lat="46.78702" lon="6.49704">
        <ele>1086</ele>
        <time>2016-07-16T13:33:02Z</time>
      </trkpt>
      <trkpt lat="46.78711" lon="6.4971">
        <ele>1085</ele>
        <time>2016-07-16T13:33:06Z</time>
      </trkpt>
      <trkpt lat="46.78717" lon="6.49717">
        <ele>1084</ele>
        <time>2016-07-16T13:33:12Z</time>
      </trkpt>
      <trkpt lat="46.78723" lon="6.49722">
        <ele>1083</ele>
        <time>2016-07-16T13:33:15Z</time>
      </trkpt>
      <trkpt lat="46.7873" lon="6.49736">
        <ele>1081</ele>
        <time>2016-07-16T13:33:20Z</time>
      </trkpt>
      <trkpt lat="46.78738" lon="6.49742">
        <ele>1079</ele>
        <time>2016-07-16T13:33:24Z</time>
      </trkpt>
      <trkpt lat="46.78744" lon="6.49751">
        <ele>1072</ele>
        <time>2016-07-16T13:33:29Z</time>
      </trkpt>
      <trkpt lat="46.78749" lon="6.49757">
        <ele>1072</ele>
        <time>2016-07-16T13:33:33Z</time>
      </trkpt>
      <trkpt lat="46.78754" lon="6.49766">
        <ele>1066</ele>
        <time>2016-07-16T13:34:41Z</time>
      </trkpt>
      <trkpt lat="46.78762" lon="6.49782">
        <ele>1061</ele>
        <time>2016-07-16T13:34:46Z</time>
      </trkpt>
      <trkpt lat="46.78764" lon="6.49794">
        <ele>1059</ele>
        <time>2016-07-16T13:35:00Z</time>
      </trkpt>
      <trkpt lat="46.78764" lon="6.49804">
        <ele>1057</ele>
        <time>2016-07-16T13:35:25Z</time>
      </trkpt>
      <trkpt lat="46.78772" lon="6.49821">
        <ele>1056</ele>
        <time>2016-07-16T13:35:30Z</time>
      </trkpt>
      <trkpt lat="46.7877" lon="6.49814">
        <ele>1056</ele>
        <time>2016-07-16T13:35:42Z</time>
      </trkpt>
      <trkpt lat="46.78765" lon="6.49804">
        <ele>1057</ele>
        <time>2016-07-16T13:35:46Z</time>
      </trkpt>
      <trkpt lat="46.78774" lon="6.49806">
        <ele>1057</ele>
        <time>2016-07-16T13:39:25Z</time>
      </trkpt>
      <trkpt lat="46.78781" lon="6.49814">
        <ele>1056</ele>
        <time>2016-07-16T13:39:31Z</time>
      </trkpt>
      <trkpt lat="46.78783" lon="6.49827">
        <ele>1055</ele>
        <time>2016-07-16T13:39:55Z</time>
      </trkpt>
      <trkpt lat="46.78786" lon="6.49839">
        <ele>1046</ele>
        <time>2016-07-16T13:40:16Z</time>
      </trkpt>
      <trkpt lat="46.78796" lon="6.49861">
        <ele>1044</ele>
        <time>2016-07-16T13:40:20Z</time>
      </trkpt>
      <trkpt lat="46.78804" lon="6.49881">
        <ele>1043</ele>
        <time>2016-07-16T13:40:24Z</time>
      </trkpt>
      <trkpt lat="46.78815" lon="6.49903">
        <ele>1042</ele>
        <time>2016-07-16T13:40:29Z</time>
      </trkpt>
      <trkpt lat="46.78822" lon="6.49919">
        <ele>1039</ele>
        <time>2016-07-16T13:40:34Z</time>
      </trkpt>
      <trkpt lat="46.78826" lon="6.49929">
        <ele>1039</ele>
        <time>2016-07-16T13:40:39Z</time>
      </trkpt>
      <trkpt lat="46.78831" lon="6.49946">
        <ele>1037</ele>
        <time>2016-07-16T13:40:44Z</time>
      </trkpt>
      <trkpt lat="46.7884" lon="6.49964">
        <ele>1040</ele>
        <time>2016-07-16T13:40:49Z</time>
      </trkpt>
      <trkpt lat="46.78848" lon="6.49981">
        <ele>1040</ele>
        <time>2016-07-16T13:40:54Z</time>
      </trkpt>
      <trkpt lat="46.78852" lon="6.5">
        <ele>1040</ele>
        <time>2016-07-16T13:40:58Z</time>
      </trkpt>
      <trkpt lat="46.78855" lon="6.50019">
        <ele>1041</ele>
        <time>2016-07-16T13:41:03Z</time>
      </trkpt>
      <trkpt lat="46.78857" lon="6.50028">
        <ele>1041</ele>
        <time>2016-07-16T13:41:07Z</time>
      </trkpt>
      <trkpt lat="46.78858" lon="6.50041">
        <ele>1041</ele>
        <time>2016-07-16T13:41:12Z</time>
      </trkpt>
      <trkpt lat="46.78853" lon="6.50051">
        <ele>1041</ele>
        <time>2016-07-16T13:41:20Z</time>
      </trkpt>
      <trkpt lat="46.78856" lon="6.50062">
        <ele>1041</ele>
        <time>2016-07-16T13:41:27Z</time>
      </trkpt>
      <trkpt lat="46.78854" lon="6.50073">
        <ele>1042</ele>
        <time>2016-07-16T13:41:39Z</time>
      </trkpt>
      <trkpt lat="46.78857" lon="6.50083">
        <ele>1042</ele>
        <time>2016-07-16T13:41:43Z</time>
      </trkpt>
      <trkpt lat="46.78859" lon="6.50095">
        <ele>1042</ele>
        <time>2016-07-16T13:41:57Z</time>
      </trkpt>
      <trkpt lat="46.78864" lon="6.50105">
        <ele>1042</ele>
        <time>2016-07-16T13:42:01Z</time>
      </trkpt>
      <trkpt lat="46.78866" lon="6.50124">
        <ele>1042</ele>
        <time>2016-07-16T13:42:06Z</time>
      </trkpt>
      <trkpt lat="46.78871" lon="6.50139">
        <ele>1042</ele>
        <time>2016-07-16T13:42:10Z</time>
      </trkpt>
      <trkpt lat="46.7888" lon="6.50153">
        <ele>1042</ele>
        <time>2016-07-16T13:42:15Z</time>
      </trkpt>
      <trkpt lat="46.78884" lon="6.50166">
        <ele>1043</ele>
        <time>2016-07-16T13:42:20Z</time>
      </trkpt>
      <trkpt lat="46.78887" lon="6.50178">
        <ele>1045</ele>
        <time>2016-07-16T13:42:26Z</time>
      </trkpt>
      <trkpt lat="46.7889" lon="6.50189">
        <ele>1045</ele>
        <time>2016-07-16T13:42:32Z</time>
      </trkpt>
      <trkpt lat="46.78889" lon="6.50199">
        <ele>1045</ele>
        <time>2016-07-16T13:42:36Z</time>
      </trkpt>
      <trkpt lat="46.78891" lon="6.50211">
        <ele>1046</ele>
        <time>2016-07-16T13:42:40Z</time>
      </trkpt>
      <trkpt lat="46.78896" lon="6.50221">
        <ele>1047</ele>
        <time>2016-07-16T13:42:44Z</time>
      </trkpt>
      <trkpt lat="46.78896" lon="6.50234">
        <ele>1047</ele>
        <time>2016-07-16T13:43:05Z</time>
      </trkpt>
      <trkpt lat="46.78896" lon="6.50245">
        <ele>1048</ele>
        <time>2016-07-16T13:43:11Z</time>
      </trkpt>
      <trkpt lat="46.78901" lon="6.50256">
        <ele>1051</ele>
        <time>2016-07-16T13:43:15Z</time>
      </trkpt>
      <trkpt lat="46.78903" lon="6.50268">
        <ele>1052</ele>
        <time>2016-07-16T13:43:25Z</time>
      </trkpt>
      <trkpt lat="46.78902" lon="6.5028">
        <ele>1052</ele>
        <time>2016-07-16T13:43:30Z</time>
      </trkpt>
      <trkpt lat="46.78902" lon="6.50288">
        <ele>1052</ele>
        <time>2016-07-16T13:43:35Z</time>
      </trkpt>
      <trkpt lat="46.78898" lon="6.503">
        <ele>1053</ele>
        <time>2016-07-16T13:43:48Z</time>
      </trkpt>
      <trkpt lat="46.78898" lon="6.50312">
        <ele>1054</ele>
        <time>2016-07-16T13:44:15Z</time>
      </trkpt>
      <trkpt lat="46.78897" lon="6.50325">
        <ele>1055</ele>
        <time>2016-07-16T13:44:22Z</time>
      </trkpt>
      <trkpt lat="46.78895" lon="6.50337">
        <ele>1058</ele>
        <time>2016-07-16T13:44:29Z</time>
      </trkpt>
      <trkpt lat="46.78892" lon="6.50349">
        <ele>1058</ele>
        <time>2016-07-16T13:44:40Z</time>
      </trkpt>
      <trkpt lat="46.78892" lon="6.50362">
        <ele>1058</ele>
        <time>2016-07-16T13:44:49Z</time>
      </trkpt>
      <trkpt lat="46.78893" lon="6.50373">
        <ele>1058</ele>
        <time>2016-07-16T13:48:04Z</time>
      </trkpt>
      <trkpt lat="46.78889" lon="6.50393">
        <ele>1059</ele>
        <time>2016-07-16T13:48:08Z</time>
      </trkpt>
      <trkpt lat="46.78887" lon="6.50411">
        <ele>1059</ele>
        <time>2016-07-16T13:48:13Z</time>
      </trkpt>
      <trkpt lat="46.7889" lon="6.50422">
        <ele>1060</ele>
        <time>2016-07-16T13:48:17Z</time>
      </trkpt>
      <trkpt lat="46.78895" lon="6.50435">
        <ele>1059</ele>
        <time>2016-07-16T13:48:20Z</time>
      </trkpt>
      <trkpt lat="46.789" lon="6.50451">
        <ele>1059</ele>
        <time>2016-07-16T13:48:24Z</time>
      </trkpt>
      <trkpt lat="46.78905" lon="6.50469">
        <ele>1059</ele>
        <time>2016-07-16T13:48:29Z</time>
      </trkpt>
      <trkpt lat="46.78906" lon="6.50485">
        <ele>1059</ele>
        <time>2016-07-16T13:48:33Z</time>
      </trkpt>
      <trkpt lat="46.78907" lon="6.50491">
        <ele>1060</ele>
        <time>2016-07-16T13:48:36Z</time>
      </trkpt>
      <trkpt lat="46.78923" lon="6.50538">
        <ele>1046</ele>
        <time>2016-07-16T13:48:41Z</time>
      </trkpt>
      <trkpt lat="46.78926" lon="6.50561">
        <ele>1044</ele>
        <time>2016-07-16T13:48:45Z</time>
      </trkpt>
      <trkpt lat="46.78927" lon="6.50569">
        <ele>1044</ele>
        <time>2016-07-16T13:48:50Z</time>
      </trkpt>
      <trkpt lat="46.78925" lon="6.50581">
        <ele>1045</ele>
        <time>2016-07-16T13:48:54Z</time>
      </trkpt>
      <trkpt lat="46.78927" lon="6.50596">
        <ele>1036</ele>
        <time>2016-07-16T13:48:59Z</time>
      </trkpt>
      <trkpt lat="46.78934" lon="6.50626">
        <ele>1028</ele>
        <time>2016-07-16T13:49:03Z</time>
      </trkpt>
      <trkpt lat="46.78935" lon="6.50643">
        <ele>1025</ele>
        <time>2016-07-16T13:49:07Z</time>
      </trkpt>
      <trkpt lat="46.78938" lon="6.50657">
        <ele>1024</ele>
        <time>2016-07-16T13:49:12Z</time>
      </trkpt>
      <trkpt lat="46.78946" lon="6.50664">
        <ele>1023</ele>
        <time>2016-07-16T13:49:16Z</time>
      </trkpt>
      <trkpt lat="46.78948" lon="6.50684">
        <ele>1011</ele>
        <time>2016-07-16T13:49:21Z</time>
      </trkpt>
      <trkpt lat="46.78958" lon="6.50688">
        <ele>1010</ele>
        <time>2016-07-16T13:49:25Z</time>
      </trkpt>
      <trkpt lat="46.78971" lon="6.50696">
        <ele>1009</ele>
        <time>2016-07-16T13:49:29Z</time>
      </trkpt>
      <trkpt lat="46.78981" lon="6.50715">
        <ele>1008</ele>
        <time>2016-07-16T13:49:34Z</time>
      </trkpt>
      <trkpt lat="46.7899" lon="6.50739">
        <ele>1006</ele>
        <time>2016-07-16T13:49:38Z</time>
      </trkpt>
      <trkpt lat="46.79007" lon="6.50772">
        <ele>993</ele>
        <time>2016-07-16T13:49:43Z</time>
      </trkpt>
      <trkpt lat="46.79025" lon="6.50797">
        <ele>985</ele>
        <time>2016-07-16T13:49:47Z</time>
      </trkpt>
      <trkpt lat="46.79035" lon="6.50808">
        <ele>983</ele>
        <time>2016-07-16T13:49:51Z</time>
      </trkpt>
      <trkpt lat="46.79037" lon="6.50815">
        <ele>982</ele>
        <time>2016-07-16T13:49:54Z</time>
      </trkpt>
      <trkpt lat="46.79047" lon="6.50837">
        <ele>968</ele>
        <time>2016-07-16T13:49:59Z</time>
      </trkpt>
      <trkpt lat="46.79058" lon="6.50852">
        <ele>967</ele>
        <time>2016-07-16T13:50:04Z</time>
      </trkpt>
      <trkpt lat="46.79065" lon="6.50863">
        <ele>966</ele>
        <time>2016-07-16T13:50:08Z</time>
      </trkpt>
      <trkpt lat="46.7907" lon="6.50873">
        <ele>964</ele>
        <time>2016-07-16T13:50:11Z</time>
      </trkpt>
      <trkpt lat="46.79076" lon="6.50885">
        <ele>962</ele>
        <time>2016-07-16T13:50:16Z</time>
      </trkpt>
      <trkpt lat="46.79074" lon="6.50904">
        <ele>959</ele>
        <time>2016-07-16T13:50:21Z</time>
      </trkpt>
      <trkpt lat="46.79079" lon="6.50917">
        <ele>952</ele>
        <time>2016-07-16T13:50:25Z</time>
      </trkpt>
      <trkpt lat="46.79086" lon="6.50922">
        <ele>952</ele>
        <time>2016-07-16T13:50:37Z</time>
      </trkpt>
      <trkpt lat="46.79092" lon="6.50933">
        <ele>947</ele>
        <time>2016-07-16T13:50:42Z</time>
      </trkpt>
      <trkpt lat="46.79095" lon="6.50944">
        <ele>943</ele>
        <time>2016-07-16T13:50:55Z</time>
      </trkpt>
      <trkpt lat="46.79104" lon="6.50948">
        <ele>942</ele>
        <time>2016-07-16T13:57:27Z</time>
      </trkpt>
      <trkpt lat="46.79108" lon="6.50956">
        <ele>940</ele>
        <time>2016-07-16T13:57:34Z</time>
      </trkpt>
      <trkpt lat="46.79124" lon="6.50981">
        <ele>937</ele>
        <time>2016-07-16T13:57:38Z</time>
      </trkpt>
      <trkpt lat="46.7914" lon="6.51013">
        <ele>925</ele>
        <time>2016-07-16T13:57:43Z</time>
      </trkpt>
      <trkpt lat="46.79151" lon="6.51036">
        <ele>924</ele>
        <time>2016-07-16T13:57:47Z</time>
      </trkpt>
      <trkpt lat="46.79167" lon="6.5107">
        <ele>919</ele>
        <time>2016-07-16T13:57:51Z</time>
      </trkpt>
      <trkpt lat="46.79183" lon="6.51106">
        <ele>908</ele>
        <time>2016-07-16T13:57:56Z</time>
      </trkpt>
      <trkpt lat="46.79191" lon="6.51125">
        <ele>905</ele>
        <time>2016-07-16T13:57:59Z</time>
      </trkpt>
      <trkpt lat="46.79203" lon="6.51159">
        <ele>901</ele>
        <time>2016-07-16T13:58:04Z</time>
      </trkpt>
      <trkpt lat="46.79216" lon="6.51188">
        <ele>889</ele>
        <time>2016-07-16T13:58:08Z</time>
      </trkpt>
      <trkpt lat="46.79225" lon="6.51216">
        <ele>887</ele>
        <time>2016-07-16T13:58:13Z</time>
      </trkpt>
      <trkpt lat="46.79225" lon="6.51241">
        <ele>885</ele>
        <time>2016-07-16T13:58:18Z</time>
      </trkpt>
      <trkpt lat="46.79222" lon="6.51256">
        <ele>876</ele>
        <time>2016-07-16T13:58:23Z</time>
      </trkpt>
      <trkpt lat="46.79225" lon="6.51266">
        <ele>875</ele>
        <time>2016-07-16T13:58:30Z</time>
      </trkpt>
      <trkpt lat="46.7923" lon="6.51276">
        <ele>875</ele>
        <time>2016-07-16T13:58:34Z</time>
      </trkpt>
      <trkpt lat="46.79233" lon="6.51285">
        <ele>874</ele>
        <time>2016-07-16T13:58:38Z</time>
      </trkpt>
      <trkpt lat="46.79238" lon="6.51295">
        <ele>873</ele>
        <time>2016-07-16T13:58:42Z</time>
      </trkpt>
      <trkpt lat="46.79249" lon="6.51316">
        <ele>873</ele>
        <time>2016-07-16T13:58:47Z</time>
      </trkpt>
      <trkpt lat="46.79255" lon="6.51342">
        <ele>869</ele>
        <time>2016-07-16T13:58:51Z</time>
      </trkpt>
      <trkpt lat="46.79262" lon="6.51368">
        <ele>861</ele>
        <time>2016-07-16T13:58:55Z</time>
      </trkpt>
      <trkpt lat="46.79271" lon="6.51393">
        <ele>858</ele>
        <time>2016-07-16T13:59:00Z</time>
      </trkpt>
      <trkpt lat="46.79273" lon="6.51415">
        <ele>858</ele>
        <time>2016-07-16T13:59:04Z</time>
      </trkpt>
      <trkpt lat="46.79277" lon="6.51437">
        <ele>848</ele>
        <time>2016-07-16T13:59:08Z</time>
      </trkpt>
      <trkpt lat="46.79281" lon="6.51459">
        <ele>845</ele>
        <time>2016-07-16T13:59:12Z</time>
      </trkpt>
      <trkpt lat="46.79284" lon="6.51478">
        <ele>842</ele>
        <time>2016-07-16T13:59:16Z</time>
      </trkpt>
      <trkpt lat="46.79291" lon="6.51504">
        <ele>828</ele>
        <time>2016-07-16T13:59:21Z</time>
      </trkpt>
      <trkpt lat="46.79294" lon="6.51527">
        <ele>826</ele>
        <time>2016-07-16T13:59:26Z</time>
      </trkpt>
      <trkpt lat="46.79295" lon="6.51539">
        <ele>825</ele>
        <time>2016-07-16T13:59:44Z</time>
      </trkpt>
      <trkpt lat="46.79296" lon="6.51554">
        <ele>823</ele>
        <time>2016-07-16T13:59:48Z</time>
      </trkpt>
      <trkpt lat="46.79297" lon="6.51573">
        <ele>821</ele>
        <time>2016-07-16T13:59:52Z</time>
      </trkpt>
      <trkpt lat="46.79304" lon="6.51582">
        <ele>823</ele>
        <time>2016-07-16T13:59:55Z</time>
      </trkpt>
      <trkpt lat="46.79318" lon="6.516">
        <ele>810</ele>
        <time>2016-07-16T13:59:59Z</time>
      </trkpt>
      <trkpt lat="46.79331" lon="6.51613">
        <ele>808</ele>
        <time>2016-07-16T14:00:03Z</time>
      </trkpt>
      <trkpt lat="46.79343" lon="6.51626">
        <ele>812</ele>
        <time>2016-07-16T14:00:08Z</time>
      </trkpt>
      <trkpt lat="46.79355" lon="6.51638">
        <ele>810</ele>
        <time>2016-07-16T14:00:12Z</time>
      </trkpt>
      <trkpt lat="46.79366" lon="6.51649">
        <ele>809</ele>
        <time>2016-07-16T14:00:16Z</time>
      </trkpt>
      <trkpt lat="46.79372" lon="6.51658">
        <ele>808</ele>
        <time>2016-07-16T14:00:21Z</time>
      </trkpt>
      <trkpt lat="46.79369" lon="6.5167">
        <ele>796</ele>
        <time>2016-07-16T14:00:43Z</time>
      </trkpt>
      <trkpt lat="46.79371" lon="6.51681">
        <ele>794</ele>
        <time>2016-07-16T14:00:53Z</time>
      </trkpt>
      <trkpt lat="46.7938" lon="6.51684">
        <ele>793</ele>
        <time>2016-07-16T14:00:58Z</time>
      </trkpt>
      <trkpt lat="46.79387" lon="6.51691">
        <ele>793</ele>
        <time>2016-07-16T14:01:02Z</time>
      </trkpt>
      <trkpt lat="46.79388" lon="6.51704">
        <ele>791</ele>
        <time>2016-07-16T14:01:07Z</time>
      </trkpt>
      <trkpt lat="46.79387" lon="6.51716">
        <ele>789</ele>
        <time>2016-07-16T14:01:11Z</time>
      </trkpt>
      <trkpt lat="46.79398" lon="6.51729">
        <ele>786</ele>
        <time>2016-07-16T14:01:15Z</time>
      </trkpt>
      <trkpt lat="46.79398" lon="6.51742">
        <ele>784</ele>
        <time>2016-07-16T14:01:22Z</time>
      </trkpt>
      <trkpt lat="46.79404" lon="6.51751">
        <ele>771</ele>
        <time>2016-07-16T14:01:38Z</time>
      </trkpt>
      <trkpt lat="46.79411" lon="6.5176">
        <ele>771</ele>
        <time>2016-07-16T14:01:51Z</time>
      </trkpt>
      <trkpt lat="46.79419" lon="6.51756">
        <ele>774</ele>
        <time>2016-07-16T14:01:55Z</time>
      </trkpt>
      <trkpt lat="46.79419" lon="6.5174">
        <ele>779</ele>
        <time>2016-07-16T14:02:00Z</time>
      </trkpt>
      <trkpt lat="46.79426" lon="6.51748">
        <ele>778</ele>
        <time>2016-07-16T14:02:05Z</time>
      </trkpt>
      <trkpt lat="46.79436" lon="6.51738">
        <ele>779</ele>
        <time>2016-07-16T14:02:09Z</time>
      </trkpt>
      <trkpt lat="46.79445" lon="6.51726">
        <ele>779</ele>
        <time>2016-07-16T14:02:13Z</time>
      </trkpt>
      <trkpt lat="46.79453" lon="6.51716">
        <ele>779</ele>
        <time>2016-07-16T14:02:17Z</time>
      </trkpt>
      <trkpt lat="46.79465" lon="6.51714">
        <ele>778</ele>
        <time>2016-07-16T14:02:22Z</time>
      </trkpt>
      <trkpt lat="46.79465" lon="6.5173">
        <ele>777</ele>
        <time>2016-07-16T14:02:26Z</time>
      </trkpt>
      <trkpt lat="46.79475" lon="6.51771">
        <ele>763</ele>
        <time>2016-07-16T14:02:31Z</time>
      </trkpt>
      <trkpt lat="46.79488" lon="6.5179">
        <ele>762</ele>
        <time>2016-07-16T14:02:35Z</time>
      </trkpt>
      <trkpt lat="46.79481" lon="6.51787">
        <ele>762</ele>
        <time>2016-07-16T14:04:20Z</time>
      </trkpt>
      <trkpt lat="46.79476" lon="6.51772">
        <ele>763</ele>
        <time>2016-07-16T14:04:25Z</time>
      </trkpt>
      <trkpt lat="46.79472" lon="6.5176">
        <ele>764</ele>
        <time>2016-07-16T14:07:18Z</time>
      </trkpt>
      <trkpt lat="46.79473" lon="6.51748">
        <ele>774</ele>
        <time>2016-07-16T14:07:22Z</time>
      </trkpt>
      <trkpt lat="46.79477" lon="6.51735">
        <ele>775</ele>
        <time>2016-07-16T14:07:27Z</time>
      </trkpt>
      <trkpt lat="46.79479" lon="6.51726">
        <ele>775</ele>
        <time>2016-07-16T14:07:30Z</time>
      </trkpt>
      <trkpt lat="46.79483" lon="6.51712">
        <ele>777</ele>
        <time>2016-07-16T14:07:35Z</time>
      </trkpt>
      <trkpt lat="46.79489" lon="6.51701">
        <ele>778</ele>
        <time>2016-07-16T14:07:39Z</time>
      </trkpt>
      <trkpt lat="46.79498" lon="6.51698">
        <ele>777</ele>
        <time>2016-07-16T14:07:44Z</time>
      </trkpt>
      <trkpt lat="46.79508" lon="6.51704">
        <ele>778</ele>
        <time>2016-07-16T14:07:49Z</time>
      </trkpt>
      <trkpt lat="46.79511" lon="6.51716">
        <ele>777</ele>
        <time>2016-07-16T14:07:59Z</time>
      </trkpt>
      <trkpt lat="46.7951" lon="6.5172">
        <ele>776</ele>
        <time>2016-07-16T14:08:02Z</time>
      </trkpt>
      <trkpt lat="46.79515" lon="6.5174">
        <ele>773</ele>
        <time>2016-07-16T14:08:07Z</time>
      </trkpt>
      <trkpt lat="46.79516" lon="6.51753">
        <ele>770</ele>
        <time>2016-07-16T14:08:12Z</time>
      </trkpt>
      <trkpt lat="46.79519" lon="6.51765">
        <ele>771</ele>
        <time>2016-07-16T14:08:19Z</time>
      </trkpt>
      <trkpt lat="46.79524" lon="6.51775">
        <ele>772</ele>
        <time>2016-07-16T14:08:39Z</time>
      </trkpt>
      <trkpt lat="46.79529" lon="6.51787">
        <ele>773</ele>
        <time>2016-07-16T14:08:44Z</time>
      </trkpt>
      <trkpt lat="46.79533" lon="6.51797">
        <ele>773</ele>
        <time>2016-07-16T14:08:48Z</time>
      </trkpt>
      <trkpt lat="46.79536" lon="6.51804">
        <ele>773</ele>
        <time>2016-07-16T14:08:52Z</time>
      </trkpt>
      <trkpt lat="46.7954" lon="6.51817">
        <ele>774</ele>
        <time>2016-07-16T14:08:56Z</time>
      </trkpt>
      <trkpt lat="46.79543" lon="6.51828">
        <ele>774</ele>
        <time>2016-07-16T14:09:01Z</time>
      </trkpt>
      <trkpt lat="46.79542" lon="6.51838">
        <ele>773</ele>
        <time>2016-07-16T14:09:07Z</time>
      </trkpt>
      <trkpt lat="46.79544" lon="6.51854">
        <ele>774</ele>
        <time>2016-07-16T14:09:12Z</time>
      </trkpt>
      <trkpt lat="46.79542" lon="6.51866">
        <ele>773</ele>
        <time>2016-07-16T14:09:17Z</time>
      </trkpt>
      <trkpt lat="46.79539" lon="6.51876">
        <ele>773</ele>
        <time>2016-07-16T14:09:24Z</time>
      </trkpt>
      <trkpt lat="46.79537" lon="6.51895">
        <ele>772</ele>
        <time>2016-07-16T14:09:29Z</time>
      </trkpt>
      <trkpt lat="46.79534" lon="6.51907">
        <ele>771</ele>
        <time>2016-07-16T14:09:33Z</time>
      </trkpt>
      <trkpt lat="46.79529" lon="6.51918">
        <ele>772</ele>
        <time>2016-07-16T14:09:37Z</time>
      </trkpt>
      <trkpt lat="46.79525" lon="6.51927">
        <ele>771</ele>
        <time>2016-07-16T14:09:42Z</time>
      </trkpt>
      <trkpt lat="46.79525" lon="6.51944">
        <ele>773</ele>
        <time>2016-07-16T14:09:46Z</time>
      </trkpt>
      <trkpt lat="46.79529" lon="6.5196">
        <ele>775</ele>
        <time>2016-07-16T14:09:51Z</time>
      </trkpt>
      <trkpt lat="46.79521" lon="6.51968">
        <ele>774</ele>
        <time>2016-07-16T14:09:55Z</time>
      </trkpt>
      <trkpt lat="46.79507" lon="6.51983">
        <ele>771</ele>
        <time>2016-07-16T14:09:59Z</time>
      </trkpt>
      <trkpt lat="46.79503" lon="6.51988">
        <ele>770</ele>
        <time>2016-07-16T14:11:06Z</time>
      </trkpt>
      <trkpt lat="46.79494" lon="6.51998">
        <ele>764</ele>
        <time>2016-07-16T14:11:11Z</time>
      </trkpt>
      <trkpt lat="46.79483" lon="6.52012">
        <ele>769</ele>
        <time>2016-07-16T14:11:15Z</time>
      </trkpt>
      <trkpt lat="46.79475" lon="6.52026">
        <ele>770</ele>
        <time>2016-07-16T14:11:19Z</time>
      </trkpt>
      <trkpt lat="46.79467" lon="6.52035">
        <ele>770</ele>
        <time>2016-07-16T14:11:23Z</time>
      </trkpt>
      <trkpt lat="46.79459" lon="6.52042">
        <ele>771</ele>
        <time>2016-07-16T14:11:27Z</time>
      </trkpt>
      <trkpt lat="46.79449" lon="6.52051">
        <ele>771</ele>
        <time>2016-07-16T14:11:32Z</time>
      </trkpt>
      <trkpt lat="46.79435" lon="6.52054">
        <ele>771</ele>
        <time>2016-07-16T14:11:37Z</time>
      </trkpt>
      <trkpt lat="46.79427" lon="6.52058">
        <ele>771</ele>
        <time>2016-07-16T14:11:41Z</time>
      </trkpt>
      <trkpt lat="46.7942" lon="6.52066">
        <ele>772</ele>
        <time>2016-07-16T14:11:50Z</time>
      </trkpt>
      <trkpt lat="46.79412" lon="6.5207">
        <ele>763</ele>
        <time>2016-07-16T14:11:58Z</time>
      </trkpt>
      <trkpt lat="46.79403" lon="6.5207">
        <ele>760</ele>
        <time>2016-07-16T14:12:08Z</time>
      </trkpt>
      <trkpt lat="46.79401" lon="6.5208">
        <ele>761</ele>
        <time>2016-07-16T14:12:17Z</time>
      </trkpt>
      <trkpt lat="46.7939" lon="6.5209">
        <ele>765</ele>
        <time>2016-07-16T14:12:22Z</time>
      </trkpt>
      <trkpt lat="46.79394" lon="6.521">
        <ele>766</ele>
        <time>2016-07-16T14:13:18Z</time>
      </trkpt>
      <trkpt lat="46.79401" lon="6.52107">
        <ele>767</ele>
        <time>2016-07-16T14:13:27Z</time>
      </trkpt>
      <trkpt lat="46.79405" lon="6.52119">
        <ele>768</ele>
        <time>2016-07-16T14:13:57Z</time>
      </trkpt>
      <trkpt lat="46.79406" lon="6.52131">
        <ele>770</ele>
        <time>2016-07-16T14:14:11Z</time>
      </trkpt>
      <trkpt lat="46.79408" lon="6.52141">
        <ele>773</ele>
        <time>2016-07-16T14:14:19Z</time>
      </trkpt>
      <trkpt lat="46.79407" lon="6.52159">
        <ele>781</ele>
        <time>2016-07-16T14:14:23Z</time>
      </trkpt>
      <trkpt lat="46.79406" lon="6.52166">
        <ele>782</ele>
        <time>2016-07-16T14:14:24Z</time>
      </trkpt>
      <trkpt lat="46.79399" lon="6.52188">
        <ele>778</ele>
        <time>2016-07-16T14:14:29Z</time>
      </trkpt>
      <trkpt lat="46.79398" lon="6.522">
        <ele>777</ele>
        <time>2016-07-16T14:14:38Z</time>
      </trkpt>
      <trkpt lat="46.79401" lon="6.5221">
        <ele>777</ele>
        <time>2016-07-16T14:15:01Z</time>
      </trkpt>
      <trkpt lat="46.79401" lon="6.52226">
        <ele>779</ele>
        <time>2016-07-16T14:15:06Z</time>
      </trkpt>
      <trkpt lat="46.79399" lon="6.52241">
        <ele>781</ele>
        <time>2016-07-16T14:15:10Z</time>
      </trkpt>
      <trkpt lat="46.79391" lon="6.52247">
        <ele>778</ele>
        <time>2016-07-16T14:15:13Z</time>
      </trkpt>
      <trkpt lat="46.79371" lon="6.52258">
        <ele>770</ele>
        <time>2016-07-16T14:15:17Z</time>
      </trkpt>
      <trkpt lat="46.79363" lon="6.52262">
        <ele>767</ele>
        <time>2016-07-16T14:15:20Z</time>
      </trkpt>
      <trkpt lat="46.79363" lon="6.52281">
        <ele>768</ele>
        <time>2016-07-16T14:15:25Z</time>
      </trkpt>
      <trkpt lat="46.79365" lon="6.52305">
        <ele>767</ele>
        <time>2016-07-16T14:15:29Z</time>
      </trkpt>
      <trkpt lat="46.79362" lon="6.52318">
        <ele>765</ele>
        <time>2016-07-16T14:15:34Z</time>
      </trkpt>
      <trkpt lat="46.79356" lon="6.5233">
        <ele>761</ele>
        <time>2016-07-16T14:15:38Z</time>
      </trkpt>
      <trkpt lat="46.79352" lon="6.52341">
        <ele>759</ele>
        <time>2016-07-16T14:15:43Z</time>
      </trkpt>
      <trkpt lat="46.7935" lon="6.52354">
        <ele>761</ele>
        <time>2016-07-16T14:15:47Z</time>
      </trkpt>
      <trkpt lat="46.79343" lon="6.52359">
        <ele>759</ele>
        <time>2016-07-16T14:15:53Z</time>
      </trkpt>
      <trkpt lat="46.7933" lon="6.52347">
        <ele>729</ele>
        <time>2016-07-16T14:15:58Z</time>
      </trkpt>
      <trkpt lat="46.7931" lon="6.52311">
        <ele>722</ele>
        <time>2016-07-16T14:16:02Z</time>
      </trkpt>
      <trkpt lat="46.79307" lon="6.52271">
        <ele>723</ele>
        <time>2016-07-16T14:16:06Z</time>
      </trkpt>
      <trkpt lat="46.79303" lon="6.52242">
        <ele>723</ele>
        <time>2016-07-16T14:16:11Z</time>
      </trkpt>
      <trkpt lat="46.79301" lon="6.52214">
        <ele>719</ele>
        <time>2016-07-16T14:16:14Z</time>
      </trkpt>
      <trkpt lat="46.79299" lon="6.52193">
        <ele>719</ele>
        <time>2016-07-16T14:16:18Z</time>
      </trkpt>
      <trkpt lat="46.79297" lon="6.52153">
        <ele>716</ele>
        <time>2016-07-16T14:16:22Z</time>
      </trkpt>
      <trkpt lat="46.79296" lon="6.52139">
        <ele>714</ele>
        <time>2016-07-16T14:16:27Z</time>
      </trkpt>
      <trkpt lat="46.79293" lon="6.5212">
        <ele>713</ele>
        <time>2016-07-16T14:16:31Z</time>
      </trkpt>
      <trkpt lat="46.79292" lon="6.52104">
        <ele>712</ele>
        <time>2016-07-16T14:16:36Z</time>
      </trkpt>
      <trkpt lat="46.79294" lon="6.52091">
        <ele>713</ele>
        <time>2016-07-16T14:16:41Z</time>
      </trkpt>
      <trkpt lat="46.79293" lon="6.521">
        <ele>712</ele>
        <time>2016-07-16T14:17:00Z</time>
      </trkpt>
      <trkpt lat="46.79281" lon="6.52123">
        <ele>709</ele>
        <time>2016-07-16T14:17:05Z</time>
      </trkpt>
      <trkpt lat="46.79272" lon="6.52137">
        <ele>706</ele>
        <time>2016-07-16T14:17:09Z</time>
      </trkpt>
      <trkpt lat="46.7926" lon="6.52146">
        <ele>701</ele>
        <time>2016-07-16T14:17:13Z</time>
      </trkpt>
      <trkpt lat="46.79245" lon="6.52148">
        <ele>679</ele>
        <time>2016-07-16T14:17:18Z</time>
      </trkpt>
      <trkpt lat="46.79239" lon="6.5216">
        <ele>680</ele>
        <time>2016-07-16T14:17:22Z</time>
      </trkpt>
      <trkpt lat="46.79234" lon="6.52196">
        <ele>675</ele>
        <time>2016-07-16T14:17:27Z</time>
      </trkpt>
      <trkpt lat="46.79227" lon="6.52234">
        <ele>675</ele>
        <time>2016-07-16T14:17:32Z</time>
      </trkpt>
      <trkpt lat="46.79229" lon="6.52295">
        <ele>671</ele>
        <time>2016-07-16T14:17:37Z</time>
      </trkpt>
      <trkpt lat="46.79226" lon="6.5233">
        <ele>672</ele>
        <time>2016-07-16T14:17:41Z</time>
      </trkpt>
      <trkpt lat="46.79221" lon="6.52368">
        <ele>665</ele>
        <time>2016-07-16T14:17:46Z</time>
      </trkpt>
      <trkpt lat="46.79218" lon="6.52408">
        <ele>664</ele>
        <time>2016-07-16T14:17:51Z</time>
      </trkpt>
      <trkpt lat="46.79224" lon="6.52432">
        <ele>662</ele>
        <time>2016-07-16T14:17:55Z</time>
      </trkpt>
      <trkpt lat="46.79215" lon="6.52438">
        <ele>659</ele>
        <time>2016-07-16T14:18:00Z</time>
      </trkpt>
      <trkpt lat="46.79211" lon="6.52447">
        <ele>658</ele>
        <time>2016-07-16T14:18:06Z</time>
      </trkpt>
      <trkpt lat="46.79206" lon="6.52473">
        <ele>656</ele>
        <time>2016-07-16T14:18:11Z</time>
      </trkpt>
      <trkpt lat="46.79191" lon="6.52513">
        <ele>648</ele>
        <time>2016-07-16T14:18:16Z</time>
      </trkpt>
      <trkpt lat="46.79177" lon="6.52524">
        <ele>646</ele>
        <time>2016-07-16T14:18:20Z</time>
      </trkpt>
      <trkpt lat="46.79162" lon="6.52506">
        <ele>637</ele>
        <time>2016-07-16T14:18:25Z</time>
      </trkpt>
      <trkpt lat="46.79149" lon="6.52487">
        <ele>638</ele>
        <time>2016-07-16T14:18:30Z</time>
      </trkpt>
      <trkpt lat="46.79138" lon="6.52471">
        <ele>638</ele>
        <time>2016-07-16T14:18:34Z</time>
      </trkpt>
      <trkpt lat="46.79123" lon="6.52449">
        <ele>639</ele>
        <time>2016-07-16T14:18:39Z</time>
      </trkpt>
      <trkpt lat="46.79108" lon="6.52428">
        <ele>639</ele>
        <time>2016-07-16T14:18:44Z</time>
      </trkpt>
      <trkpt lat="46.791" lon="6.52415">
        <ele>640</ele>
        <time>2016-07-16T14:18:49Z</time>
      </trkpt>
      <trkpt lat="46.79083" lon="6.52388">
        <ele>639</ele>
        <time>2016-07-16T14:18:53Z</time>
      </trkpt>
      <trkpt lat="46.79069" lon="6.52366">
        <ele>640</ele>
        <time>2016-07-16T14:18:58Z</time>
      </trkpt>
      <trkpt lat="46.79065" lon="6.52347">
        <ele>641</ele>
        <time>2016-07-16T14:19:02Z</time>
      </trkpt>
      <trkpt lat="46.79058" lon="6.52331">
        <ele>643</ele>
        <time>2016-07-16T14:19:06Z</time>
      </trkpt>
      <trkpt lat="46.79046" lon="6.52311">
        <ele>643</ele>
        <time>2016-07-16T14:19:11Z</time>
      </trkpt>
      <trkpt lat="46.79036" lon="6.52294">
        <ele>644</ele>
        <time>2016-07-16T14:19:15Z</time>
      </trkpt>
      <trkpt lat="46.79024" lon="6.52278">
        <ele>644</ele>
        <time>2016-07-16T14:19:20Z</time>
      </trkpt>
      <trkpt lat="46.79009" lon="6.52261">
        <ele>644</ele>
        <time>2016-07-16T14:19:25Z</time>
      </trkpt>
      <trkpt lat="46.78998" lon="6.52245">
        <ele>644</ele>
        <time>2016-07-16T14:19:30Z</time>
      </trkpt>
      <trkpt lat="46.78987" lon="6.52227">
        <ele>644</ele>
        <time>2016-07-16T14:19:33Z</time>
      </trkpt>
      <trkpt lat="46.78973" lon="6.52205">
        <ele>644</ele>
        <time>2016-07-16T14:19:38Z</time>
      </trkpt>
      <trkpt lat="46.78964" lon="6.52189">
        <ele>644</ele>
        <time>2016-07-16T14:19:42Z</time>
      </trkpt>
      <trkpt lat="46.78951" lon="6.52177">
        <ele>643</ele>
        <time>2016-07-16T14:19:46Z</time>
      </trkpt>
      <trkpt lat="46.78924" lon="6.52202">
        <ele>642</ele>
        <time>2016-07-16T14:19:51Z</time>
      </trkpt>
      <trkpt lat="46.78901" lon="6.52226">
        <ele>638</ele>
        <time>2016-07-16T14:19:55Z</time>
      </trkpt>
      <trkpt lat="46.78882" lon="6.52242">
        <ele>637</ele>
        <time>2016-07-16T14:20:00Z</time>
      </trkpt>
      <trkpt lat="46.78865" lon="6.52264">
        <ele>635</ele>
        <time>2016-07-16T14:20:04Z</time>
      </trkpt>
      <trkpt lat="46.78842" lon="6.5229">
        <ele>634</ele>
        <time>2016-07-16T14:20:09Z</time>
      </trkpt>
      <trkpt lat="46.78825" lon="6.52304">
        <ele>630</ele>
        <time>2016-07-16T14:20:13Z</time>
      </trkpt>
      <trkpt lat="46.78817" lon="6.52313">
        <ele>630</ele>
        <time>2016-07-16T14:20:18Z</time>
      </trkpt>
      <trkpt lat="46.78825" lon="6.52326">
        <ele>631</ele>
        <time>2016-07-16T14:20:23Z</time>
      </trkpt>
      <trkpt lat="46.78841" lon="6.52345">
        <ele>632</ele>
        <time>2016-07-16T14:20:28Z</time>
      </trkpt>
      <trkpt lat="46.78857" lon="6.52363">
        <ele>632</ele>
        <time>2016-07-16T14:20:33Z</time>
      </trkpt>
      <trkpt lat="46.78869" lon="6.52377">
        <ele>632</ele>
        <time>2016-07-16T14:20:37Z</time>
      </trkpt>
      <trkpt lat="46.78882" lon="6.52394">
        <ele>632</ele>
        <time>2016-07-16T14:20:42Z</time>
      </trkpt>
      <trkpt lat="46.78899" lon="6.52409">
        <ele>632</ele>
        <time>2016-07-16T14:20:47Z</time>
      </trkpt>
      <trkpt lat="46.78912" lon="6.52427">
        <ele>631</ele>
        <time>2016-07-16T14:20:51Z</time>
      </trkpt>
      <trkpt lat="46.78929" lon="6.52456">
        <ele>632</ele>
        <time>2016-07-16T14:20:55Z</time>
      </trkpt>
      <trkpt lat="46.78949" lon="6.52483">
        <ele>631</ele>
        <time>2016-07-16T14:21:00Z</time>
      </trkpt>
      <trkpt lat="46.78964" lon="6.5251">
        <ele>629</ele>
        <time>2016-07-16T14:21:04Z</time>
      </trkpt>
      <trkpt lat="46.7895" lon="6.52536">
        <ele>628</ele>
        <time>2016-07-16T14:21:08Z</time>
      </trkpt>
      <trkpt lat="46.78925" lon="6.52538">
        <ele>628</ele>
        <time>2016-07-16T14:21:13Z</time>
      </trkpt>
      <trkpt lat="46.78923" lon="6.52542">
        <ele>628</ele>
        <time>2016-07-16T14:22:44Z</time>
      </trkpt>
      <trkpt lat="46.78923" lon="6.52542">
        <ele>628</ele>
        <time>2016-07-16T14:22:44Z</time>
      </trkpt>
    </trkseg>
  </trk>
</gpx>